Time,TemperatureF,DewpointF,PressureIn,WindDirection,WindDirectionDegrees,WindSpeedMPH,WindSpeedGustMPH,Humidity,HourlyPrecipIn,Conditions,Clouds,dailyrainin,SoftwareType,DateUTC
2013-11-01 00:00:00,72.1,72.1,29.98,SE,144,7.0,8.0,100,0.00,,OVC080,0.01,VWS V14.01,2013-11-01 04:00:00,
2013-11-01 00:01:00,72.3,72.3,29.98,South,171,9.0,9.0,100,0.00,,CLR,0.00,VWS V14.01,2013-11-01 04:01:00,
2013-11-01 00:02:00,72.3,72.3,29.98,South,171,9.0,9.0,100,0.00,,CLR,0.00,VWS V14.01,2013-11-01 04:02:00,
2013-11-01 00:03:00,72.3,72.3,29.98,South,190,9.0,9.0,100,0.00,,CLR,0.00,VWS V14.01,2013-11-01 04:03:00,
2013-11-01 00:04:00,72.3,72.3,29.98,South,181,9.0,10.0,100,0.00,,CLR,0.00,VWS V14.01,2013-11-01 04:04:00,
2013-11-01 00:05:00,72.3,72.3,29.98,South,174,10.0,11.0,100,0.00,,CLR,0.00,VWS V14.01,2013-11-01 04:05:00,
2013-11-01 00:06:00,72.3,72.3,29.98,South,173,9.0,10.0,100,0.00,,CLR,0.00,VWS V14.01,2013-11-01 04:06:00,
2013-11-01 00:07:00,72.3,72.3,29.98,South,175,11.0,11.0,100,0.00,,CLR,0.00,VWS V14.01,2013-11-01 04:07:00,
2013-11-01 00:08:00,72.3,72.3,29.98,South,179,11.0,11.0,100,0.00,,CLR,0.00,VWS V14.01,2013-11-01 04:08:00,
2013-11-01 00:09:00,72.3,72.3,29.98,South,177,11.0,11.0,100,0.00,,CLR,0.00,VWS V14.01,2013-11-01 04:09:00,
2013-11-01 00:10:00,72.3,72.3,29.98,South,170,9.0,11.0,100,0.00,,CLR,0.00,VWS V14.01,2013-11-01 04:10:00,
2013-11-01 00:11:00,72.3,72.3,29.98,South,180,11.0,11.0,100,0.00,,CLR,0.00,VWS V14.01,2013-11-01 04:11:00,
2013-11-01 00:12:00,72.3,72.3,29.98,South,180,10.0,10.0,100,0.00,,CLR,0.00,VWS V14.01,2013-11-01 04:12:00,
2013-11-01 00:13:00,72.3,72.3,29.98,South,174,6.0,11.0,100,0.00,,CLR,0.00,VWS V14.01,2013-11-01 04:13:00,
2013-11-01 00:14:00,72.3,72.3,29.98,South,176,10.0,10.0,100,0.00,,CLR,0.00,VWS V14.01,2013-11-01 04:14:00,
2013-11-01 00:15:00,72.3,72.3,29.98,South,179,10.0,11.0,100,0.00,,CLR,0.00,VWS V14.01,2013-11-01 04:15:00,
2013-11-01 00:16:00,72.3,72.3,29.98,South,171,9.0,10.0,100,0.00,,CLR,0.00,VWS V14.01,2013-11-01 04:16:00,
2013-11-01 00:17:00,72.3,72.3,29.98,South,172,9.0,9.0,100,0.00,,CLR,0.00,VWS V14.01,2013-11-01 04:17:00,
2013-11-01 00:18:00,72.3,72.3,29.98,South,178,10.0,10.0,100,0.00,,CLR,0.00,VWS V14.01,2013-11-01 04:18:00,
2013-11-01 00:19:00,72.3,72.3,29.98,South,177,10.0,10.0,100,0.00,,CLR,0.00,VWS V14.01,2013-11-01 04:19:00,
2013-11-01 00:20:00,72.5,72.5,29.98,South,170,9.0,10.0,100,0.00,,CLR,0.00,VWS V14.01,2013-11-01 04:20:00,
2013-11-01 00:21:00,72.3,72.3,29.98,South,179,10.0,10.0,100,0.00,,CLR,0.00,VWS V14.01,2013-11-01 04:21:00,
2013-11-01 00:22:00,72.5,72.5,29.98,South,188,8.0,10.0,100,0.00,,CLR,0.00,VWS V14.01,2013-11-01 04:22:00,
2013-11-01 00:23:00,72.5,72.5,29.98,SSW,192,10.0,10.0,100,0.00,,CLR,0.00,VWS V14.01,2013-11-01 04:23:00,
2013-11-01 00:24:00,72.5,72.5,29.98,South,175,10.0,11.0,100,0.00,,CLR,0.00,VWS V14.01,2013-11-01 04:24:00,
2013-11-01 00:25:00,72.3,72.3,29.98,South,185,10.0,10.0,100,0.00,,CLR,0.00,VWS V14.01,2013-11-01 04:25:00,
2013-11-01 00:26:00,72.3,72.3,29.98,South,188,9.0,10.0,100,0.00,,CLR,0.00,VWS V14.01,2013-11-01 04:26:00,
2013-11-01 00:27:00,72.3,72.3,29.98,South,180,7.0,9.0,100,0.00,,CLR,0.00,VWS V14.01,2013-11-01 04:27:00,
2013-11-01 00:28:00,72.3,72.3,29.98,South,190,9.0,10.0,100,0.00,,CLR,0.00,VWS V14.01,2013-11-01 04:28:00,
2013-11-01 00:29:00,72.3,72.3,29.98,South,176,7.0,10.0,100,0.00,,CLR,0.00,VWS V14.01,2013-11-01 04:29:00,
2013-11-01 00:30:00,72.3,72.3,29.98,SSW,198,10.0,10.0,100,0.00,,CLR,0.00,VWS V14.01,2013-11-01 04:30:00,
2013-11-01 00:31:00,72.3,72.3,29.98,South,182,9.0,10.0,100,0.00,,CLR,0.00,VWS V14.01,2013-11-01 04:31:00,
2013-11-01 00:32:00,72.3,72.3,29.98,South,180,9.0,10.0,100,0.00,,CLR,0.00,VWS V14.01,2013-11-01 04:32:00,
2013-11-01 00:33:00,72.3,72.3,29.98,South,176,10.0,10.0,100,0.00,,CLR,0.00,VWS V14.01,2013-11-01 04:33:00,
2013-11-01 00:34:00,72.3,72.3,29.97,South,180,11.0,11.0,100,0.00,,CLR,0.00,VWS V14.01,2013-11-01 04:34:00,
2013-11-01 00:35:00,72.3,72.3,29.97,South,176,10.0,11.0,100,0.00,,CLR,0.00,VWS V14.01,2013-11-01 04:35:00,
2013-11-01 00:36:00,72.3,72.3,29.98,South,183,10.0,11.0,100,0.00,,CLR,0.00,VWS V14.01,2013-11-01 04:36:00,
2013-11-01 00:37:00,72.3,72.3,29.97,SSW,205,9.0,9.0,100,0.00,,FEW070,0.00,VWS V14.01,2013-11-01 04:37:00,
2013-11-01 00:38:00,72.3,72.3,29.97,South,186,10.0,10.0,100,0.00,,CLR,0.00,VWS V14.01,2013-11-01 04:38:00,
2013-11-01 00:39:00,72.3,72.3,29.98,SSW,207,9.0,10.0,100,0.00,,CLR,0.00,VWS V14.01,2013-11-01 04:39:00,
2013-11-01 00:40:00,72.3,72.3,29.97,SSW,194,9.0,10.0,100,0.00,,CLR,0.00,VWS V14.01,2013-11-01 04:40:00,
2013-11-01 00:41:00,72.3,72.3,29.97,South,190,10.0,10.0,100,0.00,,CLR,0.00,VWS V14.01,2013-11-01 04:41:00,
2013-11-01 00:42:00,72.3,72.3,29.97,South,188,10.0,10.0,100,0.00,,FEW070,0.00,VWS V14.01,2013-11-01 04:42:00,
2013-11-01 00:43:00,72.3,72.3,29.97,SSW,194,9.0,10.0,100,0.00,,CLR,0.00,VWS V14.01,2013-11-01 04:43:00,
2013-11-01 00:44:00,72.3,72.3,29.97,South,175,10.0,10.0,100,0.00,,CLR,0.00,VWS V14.01,2013-11-01 04:44:00,
2013-11-01 00:45:00,72.3,72.3,29.97,South,182,10.0,10.0,100,0.00,,CLR,0.00,VWS V14.01,2013-11-01 04:45:00,
2013-11-01 00:46:00,72.3,72.3,29.97,SSW,192,8.0,10.0,100,0.00,,CLR,0.00,VWS V14.01,2013-11-01 04:46:00,
2013-11-01 00:47:00,72.3,72.3,29.97,South,190,10.0,10.0,100,0.00,,FEW070,0.00,VWS V14.01,2013-11-01 04:47:00,
2013-11-01 00:48:00,72.3,72.3,29.97,SSW,196,9.0,10.0,100,0.00,,CLR,0.00,VWS V14.01,2013-11-01 04:48:00,
2013-11-01 00:49:00,72.3,72.3,29.97,SSW,211,9.0,9.0,100,0.00,,CLR,0.00,VWS V14.01,2013-11-01 04:49:00,
2013-11-01 00:50:00,72.3,72.3,29.97,SSE,150,9.0,9.0,100,0.00,,CLR,0.00,VWS V14.01,2013-11-01 04:50:00,
2013-11-01 00:51:00,72.3,72.3,29.97,SSW,209,10.0,11.0,100,0.00,,CLR,0.00,VWS V14.01,2013-11-01 04:51:00,
2013-11-01 00:52:00,72.3,72.3,29.97,South,180,9.0,9.0,100,0.00,,FEW070,0.00,VWS V14.01,2013-11-01 04:52:00,
2013-11-01 00:53:00,72.3,72.3,29.97,SSE,167,10.0,10.0,100,0.00,,CLR,0.00,VWS V14.01,2013-11-01 04:53:00,
2013-11-01 00:54:00,72.3,72.3,29.97,SSW,202,10.0,10.0,100,0.00,,CLR,0.00,VWS V14.01,2013-11-01 04:54:00,
2013-11-01 00:55:00,72.3,72.3,29.97,SW,223,7.0,10.0,100,0.00,,CLR,0.00,VWS V14.01,2013-11-01 04:55:00,
2013-11-01 00:56:00,72.3,72.3,29.97,South,184,9.0,11.0,100,0.00,,CLR,0.00,VWS V14.01,2013-11-01 04:56:00,
2013-11-01 00:57:00,72.3,72.3,29.97,SSW,195,11.0,11.0,100,0.00,,FEW070,0.00,VWS V14.01,2013-11-01 04:57:00,
2013-11-01 00:58:00,72.3,72.3,29.97,South,191,9.0,11.0,100,0.00,,CLR,0.00,VWS V14.01,2013-11-01 04:58:00,
2013-11-01 00:59:00,72.3,72.3,29.97,South,184,8.0,10.0,100,0.00,,CLR,0.00,VWS V14.01,2013-11-01 04:59:00,
2013-11-01 01:00:00,72.3,72.3,29.97,South,178,10.0,10.0,100,0.00,,CLR,0.00,VWS V14.01,2013-11-01 05:00:00,
2013-11-01 01:01:00,72.3,72.3,29.97,South,177,10.0,11.0,100,0.00,,CLR,0.00,VWS V14.01,2013-11-01 05:01:00,
2013-11-01 01:02:00,72.3,72.3,29.96,South,189,11.0,11.0,100,0.00,,FEW070,0.00,VWS V14.01,2013-11-01 05:02:00,
2013-11-01 01:03:00,72.3,72.3,29.96,South,173,9.0,11.0,100,0.00,,CLR,0.00,VWS V14.01,2013-11-01 05:03:00,
2013-11-01 01:04:00,72.3,72.3,29.97,South,186,11.0,11.0,100,0.00,,CLR,0.00,VWS V14.01,2013-11-01 05:04:00,
2013-11-01 01:05:00,72.3,72.3,29.96,South,180,10.0,11.0,100,0.00,,CLR,0.00,VWS V14.01,2013-11-01 05:05:00,
2013-11-01 01:06:00,72.3,72.3,29.96,South,173,11.0,11.0,100,0.00,,CLR,0.00,VWS V14.01,2013-11-01 05:06:00,
2013-11-01 01:07:00,72.3,72.3,29.96,SSW,198,9.0,10.0,100,0.00,,FEW070,0.00,VWS V14.01,2013-11-01 05:07:00,
2013-11-01 01:08:00,72.3,72.3,29.96,South,189,8.0,11.0,100,0.00,,CLR,0.00,VWS V14.01,2013-11-01 05:08:00,
2013-11-01 01:09:00,72.3,72.3,29.96,South,179,9.0,12.0,100,0.00,,CLR,0.00,VWS V14.01,2013-11-01 05:09:00,
2013-11-01 01:10:00,72.3,72.3,29.96,South,182,7.0,10.0,100,0.00,,CLR,0.00,VWS V14.01,2013-11-01 05:10:00,
2013-11-01 01:11:00,72.3,72.3,29.96,South,183,11.0,11.0,100,0.00,,CLR,0.00,VWS V14.01,2013-11-01 05:11:00,
2013-11-01 01:12:00,72.3,72.3,29.96,South,169,9.0,10.0,100,0.00,,FEW070,0.00,VWS V14.01,2013-11-01 05:12:00,
2013-11-01 01:13:00,72.3,72.3,29.96,SSE,167,9.0,12.0,100,0.00,,CLR,0.00,VWS V14.01,2013-11-01 05:13:00,
2013-11-01 01:14:00,72.3,72.3,29.96,South,169,10.0,10.0,100,0.00,,CLR,0.00,VWS V14.01,2013-11-01 05:14:00,
2013-11-01 01:15:00,72.3,72.3,29.96,SSE,165,7.0,11.0,100,0.00,,CLR,0.00,VWS V14.01,2013-11-01 05:15:00,
2013-11-01 01:16:00,72.3,72.3,29.95,South,178,8.0,10.0,100,0.00,,CLR,0.00,VWS V14.01,2013-11-01 05:16:00,
2013-11-01 01:17:00,72.3,72.3,29.95,South,182,9.0,9.0,100,0.00,,FEW070,0.00,VWS V14.01,2013-11-01 05:17:00,
2013-11-01 01:18:00,72.3,72.3,29.95,South,171,10.0,10.0,100,0.00,,CLR,0.00,VWS V14.01,2013-11-01 05:18:00,
2013-11-01 01:19:00,72.3,72.3,29.95,SSE,168,9.0,11.0,100,0.00,,CLR,0.00,VWS V14.01,2013-11-01 05:19:00,
2013-11-01 01:20:00,72.3,72.3,29.95,South,169,10.0,10.0,100,0.00,,CLR,0.00,VWS V14.01,2013-11-01 05:20:00,
2013-11-01 01:21:00,72.3,72.3,29.95,South,180,10.0,10.0,100,0.00,,CLR,0.00,VWS V14.01,2013-11-01 05:21:00,
2013-11-01 01:22:00,72.3,72.3,29.95,SSE,165,9.0,9.0,100,0.00,,FEW070,0.00,VWS V14.01,2013-11-01 05:22:00,
2013-11-01 01:23:00,72.3,72.3,29.95,South,186,8.0,9.0,100,0.00,,CLR,0.00,VWS V14.01,2013-11-01 05:23:00,
2013-11-01 01:24:00,72.3,72.3,29.95,South,173,7.0,9.0,100,0.00,,CLR,0.00,VWS V14.01,2013-11-01 05:24:00,
2013-11-01 01:25:00,72.3,72.3,29.95,South,182,8.0,9.0,100,0.00,,CLR,0.00,VWS V14.01,2013-11-01 05:25:00,
2013-11-01 01:26:00,72.1,72.1,29.95,SSE,168,9.0,10.0,100,0.00,,CLR,0.00,VWS V14.01,2013-11-01 05:26:00,
2013-11-01 01:27:00,72.1,72.1,29.95,SSE,154,10.0,10.0,100,0.00,,FEW070,0.00,VWS V14.01,2013-11-01 05:27:00,
2013-11-01 01:28:00,72.1,72.1,29.95,South,169,8.0,10.0,100,0.00,,CLR,0.00,VWS V14.01,2013-11-01 05:28:00,
2013-11-01 01:29:00,72.3,72.3,29.95,South,180,9.0,11.0,100,0.00,,CLR,0.00,VWS V14.01,2013-11-01 05:29:00,
2013-11-01 01:30:00,72.3,72.3,29.94,South,173,9.0,12.0,100,0.00,,CLR,0.00,VWS V14.01,2013-11-01 05:30:00,
2013-11-01 01:31:00,72.3,72.3,29.94,SSE,162,8.0,13.0,100,0.00,,CLR,0.00,VWS V14.01,2013-11-01 05:31:00,
2013-11-01 01:32:00,72.3,72.3,29.95,South,171,11.0,11.0,100,0.00,,FEW070,0.00,VWS V14.01,2013-11-01 05:32:00,
2013-11-01 01:33:00,72.3,72.3,29.95,SSE,167,11.0,11.0,100,0.00,,CLR,0.00,VWS V14.01,2013-11-01 05:33:00,
2013-11-01 01:34:00,72.3,72.3,29.94,SSE,167,11.0,12.0,100,0.00,,CLR,0.00,VWS V14.01,2013-11-01 05:34:00,
2013-11-01 01:35:00,72.3,72.3,29.94,South,180,10.0,11.0,100,0.00,,CLR,0.00,VWS V14.01,2013-11-01 05:35:00,
2013-11-01 01:36:00,72.3,72.3,29.94,South,188,10.0,10.0,100,0.00,,CLR,0.00,VWS V14.01,2013-11-01 05:36:00,
2013-11-01 01:37:00,72.3,72.3,29.95,SSE,167,10.0,10.0,100,0.00,,CLR,0.00,VWS V14.01,2013-11-01 05:37:00,
2013-11-01 01:38:00,72.3,72.3,29.95,South,172,10.0,10.0,100,0.00,,CLR,0.00,VWS V14.01,2013-11-01 05:38:00,
2013-11-01 01:39:00,72.3,72.3,29.94,South,173,11.0,11.0,100,0.00,,CLR,0.00,VWS V14.01,2013-11-01 05:39:00,
2013-11-01 01:40:00,72.3,72.3,29.94,South,176,9.0,12.0,100,0.00,,CLR,0.00,VWS V14.01,2013-11-01 05:40:00,
2013-11-01 01:41:00,72.3,72.3,29.94,South,169,10.0,11.0,100,0.00,,CLR,0.00,VWS V14.01,2013-11-01 05:41:00,
2013-11-01 01:42:00,72.3,72.3,29.94,South,176,11.0,11.0,100,0.00,,CLR,0.00,VWS V14.01,2013-11-01 05:42:00,
2013-11-01 01:43:00,72.3,72.3,29.94,South,179,10.0,11.0,100,0.00,,CLR,0.00,VWS V14.01,2013-11-01 05:43:00,
2013-11-01 01:44:00,72.3,72.3,29.94,South,174,11.0,12.0,100,0.00,,CLR,0.00,VWS V14.01,2013-11-01 05:44:00,
2013-11-01 01:45:00,72.3,72.3,29.94,SSW,192,13.0,13.0,100,0.00,,CLR,0.00,VWS V14.01,2013-11-01 05:45:00,
2013-11-01 01:46:00,72.3,72.3,29.94,South,183,11.0,13.0,100,0.00,,CLR,0.00,VWS V14.01,2013-11-01 05:46:00,
2013-11-01 01:47:00,72.3,72.3,29.94,South,177,12.0,12.0,100,0.00,,CLR,0.00,VWS V14.01,2013-11-01 05:47:00,
2013-11-01 01:48:00,72.3,72.3,29.94,South,187,11.0,12.0,100,0.00,,CLR,0.00,VWS V14.01,2013-11-01 05:48:00,
2013-11-01 01:49:00,72.3,72.3,29.94,South,185,7.0,11.0,100,0.00,,CLR,0.00,VWS V14.01,2013-11-01 05:49:00,
2013-11-01 01:50:00,72.3,72.3,29.94,South,174,9.0,11.0,100,0.00,,CLR,0.00,VWS V14.01,2013-11-01 05:50:00,
2013-11-01 01:51:00,72.3,72.3,29.94,SSW,205,10.0,11.0,100,0.00,,CLR,0.00,VWS V14.01,2013-11-01 05:51:00,
2013-11-01 01:52:00,72.3,72.3,29.94,SSW,192,11.0,12.0,100,0.00,,CLR,0.00,VWS V14.01,2013-11-01 05:52:00,
2013-11-01 01:53:00,72.3,72.3,29.94,SSW,204,10.0,12.0,100,0.00,,CLR,0.00,VWS V14.01,2013-11-01 05:53:00,
2013-11-01 01:54:00,72.3,72.3,29.94,South,184,10.0,11.0,100,0.00,,CLR,0.00,VWS V14.01,2013-11-01 05:54:00,
2013-11-01 01:55:00,72.3,72.3,29.94,SSW,200,9.0,9.0,100,0.00,,CLR,0.00,VWS V14.01,2013-11-01 05:55:00,
2013-11-01 01:56:00,72.3,72.3,29.94,SSW,201,11.0,11.0,100,0.00,,CLR,0.00,VWS V14.01,2013-11-01 05:56:00,
2013-11-01 01:57:00,72.3,72.3,29.94,SSW,192,9.0,11.0,100,0.00,,CLR,0.00,VWS V14.01,2013-11-01 05:57:00,
2013-11-01 01:58:00,72.3,72.3,29.94,SSW,198,6.0,9.0,100,0.00,,CLR,0.00,VWS V14.01,2013-11-01 05:58:00,
2013-11-01 01:59:00,72.3,72.3,29.94,SSW,199,7.0,9.0,100,0.00,,CLR,0.00,VWS V14.01,2013-11-01 05:59:00,
2013-11-01 02:00:00,72.3,72.3,29.94,South,181,6.0,9.0,100,0.00,,CLR,0.00,VWS V14.01,2013-11-01 06:00:00,
2013-11-01 02:01:00,72.3,72.3,29.94,South,184,8.0,9.0,100,0.00,,CLR,0.00,VWS V14.01,2013-11-01 06:01:00,
2013-11-01 02:02:00,72.3,72.3,29.94,South,178,7.0,8.0,100,0.00,,CLR,0.00,VWS V14.01,2013-11-01 06:02:00,
2013-11-01 02:03:00,72.3,72.3,29.94,SSW,196,6.0,7.0,100,0.00,,CLR,0.00,VWS V14.01,2013-11-01 06:03:00,
2013-11-01 02:04:00,72.1,72.1,29.94,SSW,197,6.0,9.0,100,0.00,,CLR,0.00,VWS V14.01,2013-11-01 06:04:00,
2013-11-01 02:05:00,72.1,72.1,29.94,SW,215,7.0,10.0,100,0.00,,CLR,0.00,VWS V14.01,2013-11-01 06:05:00,
2013-11-01 02:06:00,72.1,72.1,29.94,SSW,213,6.0,10.0,100,0.00,,CLR,0.00,VWS V14.01,2013-11-01 06:06:00,
2013-11-01 02:07:00,72.1,72.1,29.94,South,180,10.0,10.0,100,0.00,,CLR,0.00,VWS V14.01,2013-11-01 06:07:00,
2013-11-01 02:08:00,72.1,72.1,29.94,SSW,210,5.0,10.0,100,0.00,,CLR,0.00,VWS V14.01,2013-11-01 06:08:00,
2013-11-01 02:09:00,72.1,72.1,29.94,SSW,198,7.0,9.0,100,0.00,,CLR,0.00,VWS V14.01,2013-11-01 06:09:00,
2013-11-01 02:10:00,72.1,72.1,29.94,South,180,9.0,9.0,100,0.00,,CLR,0.00,VWS V14.01,2013-11-01 06:10:00,
2013-11-01 02:11:00,72.1,72.1,29.94,SSW,195,10.0,10.0,100,0.00,,CLR,0.00,VWS V14.01,2013-11-01 06:11:00,
2013-11-01 02:12:00,72.1,72.1,29.94,SSW,200,9.0,10.0,100,0.00,,CLR,0.00,VWS V14.01,2013-11-01 06:12:00,
2013-11-01 02:13:00,72.1,72.1,29.94,SSW,205,7.0,9.0,100,0.00,,CLR,0.00,VWS V14.01,2013-11-01 06:13:00,
2013-11-01 02:14:00,72.1,72.1,29.94,South,190,7.0,9.0,100,0.00,,CLR,0.00,VWS V14.01,2013-11-01 06:14:00,
2013-11-01 02:15:00,72.1,72.1,29.94,SW,216,10.0,10.0,100,0.00,,CLR,0.00,VWS V14.01,2013-11-01 06:15:00,
2013-11-01 02:16:00,72.1,72.1,29.94,SSW,194,6.0,10.0,100,0.00,,CLR,0.00,VWS V14.01,2013-11-01 06:16:00,
2013-11-01 02:17:00,72.1,72.1,29.94,SSW,200,6.0,10.0,100,0.00,,CLR,0.00,VWS V14.01,2013-11-01 06:17:00,
2013-11-01 02:18:00,72.1,72.1,29.94,SW,216,10.0,11.0,100,0.00,,CLR,0.00,VWS V14.01,2013-11-01 06:18:00,
2013-11-01 02:19:00,72.1,72.1,29.94,SSW,213,10.0,10.0,100,0.00,,CLR,0.00,VWS V14.01,2013-11-01 06:19:00,
2013-11-01 02:20:00,72.1,72.1,29.94,SSW,196,9.0,9.0,100,0.00,,CLR,0.00,VWS V14.01,2013-11-01 06:20:00,
2013-11-01 02:21:00,72.3,72.3,29.95,South,180,10.0,10.0,100,0.00,,OVC080,0.00,VWS V14.01,2013-11-01 06:21:00,
2013-11-01 02:22:00,72.3,72.3,29.95,South,172,9.0,10.0,100,0.00,,OVC080,0.00,VWS V14.01,2013-11-01 06:22:00,
2013-11-01 02:23:00,72.3,72.3,29.95,South,186,8.0,9.0,100,0.00,,OVC080,0.00,VWS V14.01,2013-11-01 06:23:00,
2013-11-01 02:24:00,72.3,72.3,29.95,South,173,7.0,9.0,100,0.00,,OVC080,0.00,VWS V14.01,2013-11-01 06:24:00,
2013-11-01 02:25:00,72.1,72.1,29.94,SW,221,10.0,10.0,100,0.00,,CLR,0.00,VWS V14.01,2013-11-01 06:25:00,
2013-11-01 02:26:00,72.1,72.1,29.95,SSE,168,9.0,10.0,100,0.00,,OVC080,0.00,VWS V14.01,2013-11-01 06:26:00,
2013-11-01 02:27:00,72.1,72.1,29.95,South,173,10.0,10.0,100,0.00,,OVC080,0.00,VWS V14.01,2013-11-01 06:27:00,
2013-11-01 02:28:00,72.1,72.1,29.95,South,169,8.0,10.0,100,0.00,,OVC080,0.00,VWS V14.01,2013-11-01 06:28:00,
2013-11-01 02:29:00,72.3,72.3,29.95,South,180,9.0,11.0,100,0.00,,OVC080,0.00,VWS V14.01,2013-11-01 06:29:00,
2013-11-01 02:30:00,72.1,72.1,29.94,SW,223,11.0,12.0,100,0.00,,CLR,0.00,VWS V14.01,2013-11-01 06:30:00,
2013-11-01 02:31:00,72.3,72.3,29.94,SSE,162,8.0,13.0,100,0.00,,OVC080,0.00,VWS V14.01,2013-11-01 06:31:00,
2013-11-01 02:32:00,72.3,72.3,29.94,SSE,168,11.0,11.0,100,0.00,,OVC080,0.00,VWS V14.01,2013-11-01 06:32:00,
2013-11-01 02:33:00,72.3,72.3,29.95,SSE,167,11.0,11.0,100,0.00,,OVC080,0.00,VWS V14.01,2013-11-01 06:33:00,
2013-11-01 02:34:00,72.3,72.3,29.94,SSE,167,11.0,12.0,100,0.00,,OVC080,0.00,VWS V14.01,2013-11-01 06:34:00,
2013-11-01 02:35:00,72.1,72.1,29.94,SSW,197,11.0,11.0,100,0.00,,CLR,0.00,VWS V14.01,2013-11-01 06:35:00,
2013-11-01 02:36:00,72.3,72.3,29.94,South,188,10.0,10.0,100,0.00,,OVC080,0.00,VWS V14.01,2013-11-01 06:36:00,
2013-11-01 02:37:00,72.3,72.3,29.94,South,185,10.0,12.0,100,0.00,,OVC080,0.00,VWS V14.01,2013-11-01 06:37:00,
2013-11-01 02:38:00,72.3,72.3,29.95,South,172,10.0,10.0,100,0.00,,OVC080,0.00,VWS V14.01,2013-11-01 06:38:00,
2013-11-01 02:39:00,72.3,72.3,29.94,South,173,11.0,11.0,100,0.00,,OVC080,0.00,VWS V14.01,2013-11-01 06:39:00,
2013-11-01 02:40:00,72.1,72.1,29.94,SW,215,12.0,12.0,100,0.00,,CLR,0.00,VWS V14.01,2013-11-01 06:40:00,
2013-11-01 02:41:00,72.3,72.3,29.94,South,169,10.0,11.0,100,0.00,,OVC080,0.00,VWS V14.01,2013-11-01 06:41:00,
2013-11-01 02:42:00,72.3,72.3,29.94,South,176,11.0,11.0,100,0.00,,OVC080,0.00,VWS V14.01,2013-11-01 06:42:00,
2013-11-01 02:43:00,72.3,72.3,29.94,South,179,10.0,11.0,100,0.00,,OVC080,0.00,VWS V14.01,2013-11-01 06:43:00,
2013-11-01 02:44:00,72.3,72.3,29.94,South,174,11.0,12.0,100,0.00,,OVC080,0.00,VWS V14.01,2013-11-01 06:44:00,
2013-11-01 02:45:00,72.1,72.1,29.94,South,191,10.0,12.0,100,0.00,,CLR,0.00,VWS V14.01,2013-11-01 06:45:00,
2013-11-01 02:46:00,72.3,72.3,29.94,South,183,11.0,13.0,100,0.00,,OVC080,0.00,VWS V14.01,2013-11-01 06:46:00,
2013-11-01 02:47:00,72.3,72.3,29.94,South,177,12.0,12.0,100,0.00,,OVC080,0.00,VWS V14.01,2013-11-01 06:47:00,
2013-11-01 02:48:00,72.3,72.3,29.94,South,187,11.0,12.0,100,0.00,,OVC080,0.00,VWS V14.01,2013-11-01 06:48:00,
2013-11-01 02:49:00,72.3,72.3,29.94,South,185,7.0,11.0,100,0.00,,OVC080,0.00,VWS V14.01,2013-11-01 06:49:00,
2013-11-01 02:50:00,72.1,72.1,29.93,SSW,198,10.0,10.0,100,0.00,,CLR,0.00,VWS V14.01,2013-11-01 06:50:00,
2013-11-01 02:51:00,72.3,72.3,29.94,SSW,205,10.0,11.0,100,0.00,,OVC080,0.00,VWS V14.01,2013-11-01 06:51:00,
2013-11-01 02:52:00,72.3,72.3,29.94,SSW,192,11.0,12.0,100,0.00,,OVC080,0.00,VWS V14.01,2013-11-01 06:52:00,
2013-11-01 02:53:00,72.3,72.3,29.94,SSW,204,10.0,12.0,100,0.00,,OVC080,0.00,VWS V14.01,2013-11-01 06:53:00,
2013-11-01 02:54:00,72.3,72.3,29.94,South,184,10.0,11.0,100,0.00,,OVC080,0.00,VWS V14.01,2013-11-01 06:54:00,
2013-11-01 02:55:00,72.1,72.1,29.93,South,187,10.0,10.0,100,0.00,,CLR,0.00,VWS V14.01,2013-11-01 06:55:00,
2013-11-01 02:56:00,72.3,72.3,29.94,SSW,201,11.0,11.0,100,0.00,,OVC080,0.00,VWS V14.01,2013-11-01 06:56:00,
2013-11-01 02:57:00,72.3,72.3,29.94,SSW,192,9.0,11.0,100,0.00,,OVC080,0.00,VWS V14.01,2013-11-01 06:57:00,
2013-11-01 02:58:00,72.3,72.3,29.94,SSW,198,6.0,9.0,100,0.00,,OVC080,0.00,VWS V14.01,2013-11-01 06:58:00,
2013-11-01 02:59:00,72.3,72.3,29.94,SSW,199,7.0,9.0,100,0.00,,OVC080,0.00,VWS V14.01,2013-11-01 06:59:00,
2013-11-01 03:00:00,72.1,72.1,29.93,SSW,200,11.0,11.0,100,0.00,,CLR,0.00,VWS V14.01,2013-11-01 07:00:00,
2013-11-01 03:01:00,72.3,72.3,29.94,South,184,8.0,9.0,100,0.00,,OVC080,0.00,VWS V14.01,2013-11-01 07:01:00,
2013-11-01 03:02:00,72.3,72.3,29.94,South,178,7.0,8.0,100,0.00,,OVC080,0.00,VWS V14.01,2013-11-01 07:02:00,
2013-11-01 03:03:00,72.3,72.3,29.94,SSW,196,6.0,7.0,100,0.00,,OVC080,0.00,VWS V14.01,2013-11-01 07:03:00,
2013-11-01 03:04:00,72.1,72.1,29.94,SSW,197,6.0,9.0,100,0.00,,OVC080,0.00,VWS V14.01,2013-11-01 07:04:00,
2013-11-01 03:05:00,72.1,72.1,29.92,South,180,10.0,12.0,100,0.00,,CLR,0.00,VWS V14.01,2013-11-01 07:05:00,
2013-11-01 03:06:00,72.1,72.1,29.94,SSW,213,6.0,10.0,100,0.00,,OVC080,0.00,VWS V14.01,2013-11-01 07:06:00,
2013-11-01 03:07:00,72.1,72.1,29.94,South,180,10.0,10.0,100,0.00,,OVC080,0.00,VWS V14.01,2013-11-01 07:07:00,
2013-11-01 03:08:00,72.1,72.1,29.94,SSW,210,5.0,10.0,100,0.00,,OVC080,0.00,VWS V14.01,2013-11-01 07:08:00,
2013-11-01 03:09:00,72.1,72.1,29.94,SSW,198,7.0,9.0,100,0.00,,OVC080,0.00,VWS V14.01,2013-11-01 07:09:00,
2013-11-01 03:10:00,72.1,72.1,29.92,SSW,192,11.0,11.0,100,0.00,,CLR,0.00,VWS V14.01,2013-11-01 07:10:00,
2013-11-01 03:11:00,72.1,72.1,29.94,SSW,195,10.0,10.0,100,0.00,,OVC080,0.00,VWS V14.01,2013-11-01 07:11:00,
2013-11-01 03:12:00,72.1,72.1,29.94,SSW,200,9.0,10.0,100,0.00,,OVC080,0.00,VWS V14.01,2013-11-01 07:12:00,
2013-11-01 03:13:00,72.1,72.1,29.94,SSW,205,7.0,9.0,100,0.00,,OVC080,0.00,VWS V14.01,2013-11-01 07:13:00,
2013-11-01 03:14:00,72.1,72.1,29.94,South,190,7.0,9.0,100,0.00,,OVC080,0.00,VWS V14.01,2013-11-01 07:14:00,
2013-11-01 03:15:00,72.1,72.1,29.92,South,189,12.0,12.0,100,0.00,,CLR,0.00,VWS V14.01,2013-11-01 07:15:00,
2013-11-01 03:16:00,72.1,72.1,29.94,SSW,194,6.0,10.0,100,0.00,,OVC080,0.00,VWS V14.01,2013-11-01 07:16:00,
2013-11-01 03:17:00,72.1,72.1,29.94,SSW,200,6.0,10.0,100,0.00,,OVC080,0.00,VWS V14.01,2013-11-01 07:17:00,
2013-11-01 03:18:00,72.1,72.1,29.94,SW,216,10.0,11.0,100,0.00,,OVC080,0.00,VWS V14.01,2013-11-01 07:18:00,
2013-11-01 03:19:00,72.1,72.1,29.94,SSW,213,10.0,10.0,100,0.00,,OVC080,0.00,VWS V14.01,2013-11-01 07:19:00,
2013-11-01 03:20:00,72.1,72.1,29.92,SSW,205,11.0,11.0,100,0.00,,CLR,0.00,VWS V14.01,2013-11-01 07:20:00,
2013-11-01 03:21:00,72.1,72.1,29.94,SSW,203,11.0,11.0,100,0.00,,OVC080,0.00,VWS V14.01,2013-11-01 07:21:00,
2013-11-01 03:22:00,72.1,72.1,29.94,SSW,194,10.0,12.0,100,0.00,,OVC080,0.00,VWS V14.01,2013-11-01 07:22:00,
2013-11-01 03:23:00,72.1,72.1,29.94,South,191,9.0,11.0,100,0.00,,OVC080,0.00,VWS V14.01,2013-11-01 07:23:00,
2013-11-01 03:24:00,72.1,72.1,29.94,SSW,212,8.0,10.0,100,0.00,,OVC080,0.00,VWS V14.01,2013-11-01 07:24:00,
2013-11-01 03:25:00,72.3,72.3,29.92,South,184,14.0,14.0,100,0.00,,CLR,0.00,VWS V14.01,2013-11-01 07:25:00,
2013-11-01 03:26:00,72.1,72.1,29.94,SSW,208,9.0,10.0,100,0.00,,OVC080,0.00,VWS V14.01,2013-11-01 07:26:00,
2013-11-01 03:27:00,72.1,72.1,29.94,SSW,197,10.0,11.0,100,0.00,,OVC080,0.00,VWS V14.01,2013-11-01 07:27:00,
2013-11-01 03:28:00,72.1,72.1,29.94,SSW,193,8.0,10.0,100,0.00,,OVC080,0.00,VWS V14.01,2013-11-01 07:28:00,
2013-11-01 03:29:00,72.1,72.1,29.94,SSW,205,10.0,10.0,100,0.00,,OVC080,0.00,VWS V14.01,2013-11-01 07:29:00,
2013-11-01 03:30:00,72.3,72.3,29.92,SSW,199,9.0,11.0,100,0.00,,CLR,0.00,VWS V14.01,2013-11-01 07:30:00,
2013-11-01 03:31:00,72.1,72.1,29.94,SSW,202,10.0,12.0,100,0.00,,OVC080,0.00,VWS V14.01,2013-11-01 07:31:00,
2013-11-01 03:32:00,72.1,72.1,29.94,SW,223,9.0,10.0,100,0.00,,OVC080,0.00,VWS V14.01,2013-11-01 07:32:00,
2013-11-01 03:33:00,72.1,72.1,29.94,South,187,10.0,11.0,100,0.00,,OVC080,0.00,VWS V14.01,2013-11-01 07:33:00,
2013-11-01 03:34:00,72.1,72.1,29.94,SSW,201,10.0,12.0,100,0.00,,OVC080,0.00,VWS V14.01,2013-11-01 07:34:00,
2013-11-01 03:35:00,72.3,72.3,29.91,South,188,13.0,13.0,100,0.00,,CLR,0.00,VWS V14.01,2013-11-01 07:35:00,
2013-11-01 03:36:00,72.1,72.1,29.94,South,190,11.0,12.0,100,0.00,,OVC080,0.00,VWS V14.01,2013-11-01 07:36:00,
2013-11-01 03:37:00,72.1,72.1,29.94,SW,227,11.0,11.0,100,0.00,,OVC080,0.00,VWS V14.01,2013-11-01 07:37:00,
2013-11-01 03:38:00,72.1,72.1,29.93,SSW,202,12.0,12.0,100,0.00,,OVC080,0.00,VWS V14.01,2013-11-01 07:38:00,
2013-11-01 03:39:00,72.1,72.1,29.94,SW,233,11.0,13.0,100,0.00,,OVC080,0.00,VWS V14.01,2013-11-01 07:39:00,
2013-11-01 03:40:00,72.3,72.3,29.91,SSW,212,10.0,13.0,100,0.00,,CLR,0.00,VWS V14.01,2013-11-01 07:40:00,
2013-11-01 03:41:00,72.1,72.1,29.94,SW,222,6.0,12.0,100,0.00,,OVC080,0.00,VWS V14.01,2013-11-01 07:41:00,
2013-11-01 03:42:00,72.1,72.1,29.94,SSW,196,10.0,11.0,100,0.00,,OVC080,0.00,VWS V14.01,2013-11-01 07:42:00,
2013-11-01 03:43:00,72.1,72.1,29.94,SSW,200,10.0,11.0,100,0.00,,OVC080,0.00,VWS V14.01,2013-11-01 07:43:00,
2013-11-01 03:44:00,72.1,72.1,29.94,SW,216,9.0,10.0,100,0.00,,OVC080,0.00,VWS V14.01,2013-11-01 07:44:00,
2013-11-01 03:45:00,72.3,72.3,29.91,South,172,11.0,13.0,100,0.00,,CLR,0.00,VWS V14.01,2013-11-01 07:45:00,
2013-11-01 03:46:00,72.1,72.1,29.94,SW,225,11.0,12.0,100,0.00,,OVC080,0.00,VWS V14.01,2013-11-01 07:46:00,
2013-11-01 03:47:00,72.1,72.1,29.93,SW,217,7.0,11.0,100,0.00,,OVC080,0.00,VWS V14.01,2013-11-01 07:47:00,
2013-11-01 03:48:00,72.1,72.1,29.93,SSW,213,10.0,12.0,100,0.00,,OVC080,0.00,VWS V14.01,2013-11-01 07:48:00,
2013-11-01 03:49:00,72.1,72.1,29.93,SSW,196,9.0,11.0,100,0.00,,OVC080,0.00,VWS V14.01,2013-11-01 07:49:00,
2013-11-01 03:50:00,72.1,72.1,29.91,South,190,10.0,12.0,100,0.00,,CLR,0.00,VWS V14.01,2013-11-01 07:50:00,
2013-11-01 03:51:00,72.1,72.1,29.93,SSW,196,11.0,11.0,100,0.00,,OVC080,0.00,VWS V14.01,2013-11-01 07:51:00,
2013-11-01 03:52:00,72.1,72.1,29.93,SSW,205,12.0,13.0,100,0.00,,OVC080,0.00,VWS V14.01,2013-11-01 07:52:00,
2013-11-01 03:53:00,72.1,72.1,29.93,SSW,207,10.0,13.0,100,0.00,,OVC080,0.00,VWS V14.01,2013-11-01 07:53:00,
2013-11-01 03:54:00,72.1,72.1,29.93,SW,221,8.0,10.0,100,0.00,,OVC080,0.00,VWS V14.01,2013-11-01 07:54:00,
2013-11-01 03:55:00,72.1,72.1,29.91,South,178,10.0,13.0,100,0.00,,CLR,0.00,VWS V14.01,2013-11-01 07:55:00,
2013-11-01 03:56:00,72.1,72.1,29.93,SSW,208,10.0,10.0,100,0.00,,OVC080,0.00,VWS V14.01,2013-11-01 07:56:00,
2013-11-01 03:57:00,72.1,72.1,29.93,SSW,199,7.0,10.0,100,0.00,,OVC080,0.00,VWS V14.01,2013-11-01 07:57:00,
2013-11-01 03:58:00,72.1,72.1,29.93,SSW,201,11.0,11.0,100,0.00,,OVC080,0.00,VWS V14.01,2013-11-01 07:58:00,
2013-11-01 03:59:00,72.1,72.1,29.93,SSW,197,9.0,11.0,100,0.00,,OVC080,0.00,VWS V14.01,2013-11-01 07:59:00,
2013-11-01 04:00:00,72.1,72.1,29.90,South,179,15.0,15.0,100,0.00,,CLR,0.00,VWS V14.01,2013-11-01 08:00:00,
2013-11-01 04:01:00,72.1,72.1,29.93,SSW,199,6.0,11.0,100,0.00,,OVC080,0.00,VWS V14.01,2013-11-01 08:01:00,
2013-11-01 04:02:00,72.1,72.1,29.92,SSW,205,10.0,10.0,100,0.00,,OVC080,0.00,VWS V14.01,2013-11-01 08:02:00,
2013-11-01 04:03:00,72.1,72.1,29.92,SW,215,9.0,10.0,100,0.00,,OVC080,0.00,VWS V14.01,2013-11-01 08:03:00,
2013-11-01 04:04:00,72.1,72.1,29.92,SSW,197,11.0,11.0,100,0.00,,OVC080,0.00,VWS V14.01,2013-11-01 08:04:00,
2013-11-01 04:05:00,72.1,72.1,29.90,SSE,165,13.0,13.0,100,0.00,,CLR,0.00,VWS V14.01,2013-11-01 08:05:00,
2013-11-01 04:06:00,72.1,72.1,29.92,SSW,201,10.0,12.0,100,0.00,,OVC080,0.00,VWS V14.01,2013-11-01 08:06:00,
2013-11-01 04:07:00,72.1,72.1,29.92,South,175,10.0,13.0,100,0.00,,OVC080,0.00,VWS V14.01,2013-11-01 08:07:00,
2013-11-01 04:08:00,72.1,72.1,29.92,South,181,11.0,11.0,100,0.00,,OVC080,0.00,VWS V14.01,2013-11-01 08:08:00,
2013-11-01 04:09:00,72.1,72.1,29.92,South,190,10.0,12.0,100,0.00,,OVC080,0.00,VWS V14.01,2013-11-01 08:09:00,
2013-11-01 04:10:00,72.1,72.1,29.90,South,188,12.0,12.0,100,0.00,,CLR,0.00,VWS V14.01,2013-11-01 08:10:00,
2013-11-01 04:11:00,72.1,72.1,29.92,SSW,196,11.0,11.0,100,0.00,,OVC080,0.00,VWS V14.01,2013-11-01 08:11:00,
2013-11-01 04:12:00,72.1,72.1,29.92,South,191,11.0,12.0,100,0.00,,OVC080,0.00,VWS V14.01,2013-11-01 08:12:00,
2013-11-01 04:13:00,72.1,72.1,29.92,SSW,198,10.0,11.0,100,0.00,,OVC080,0.00,VWS V14.01,2013-11-01 08:13:00,
2013-11-01 04:14:00,72.1,72.1,29.92,SSW,198,9.0,11.0,100,0.00,,OVC080,0.00,VWS V14.01,2013-11-01 08:14:00,
2013-11-01 04:15:00,72.0,72.0,29.90,SSW,198,10.0,11.0,100,0.00,,CLR,0.00,VWS V14.01,2013-11-01 08:15:00,
2013-11-01 04:16:00,72.1,72.1,29.92,SSW,199,10.0,12.0,100,0.00,,OVC080,0.00,VWS V14.01,2013-11-01 08:16:00,
2013-11-01 04:17:00,72.1,72.1,29.92,SSE,160,12.0,12.0,100,0.00,,OVC080,0.00,VWS V14.01,2013-11-01 08:17:00,
2013-11-01 04:18:00,72.1,72.1,29.92,SSE,167,11.0,12.0,100,0.00,,OVC080,0.00,VWS V14.01,2013-11-01 08:18:00,
2013-11-01 04:19:00,72.1,72.1,29.92,SSW,193,11.0,11.0,100,0.00,,OVC080,0.00,VWS V14.01,2013-11-01 08:19:00,
2013-11-01 04:20:00,72.0,72.0,29.90,SSW,194,10.0,12.0,100,0.00,,CLR,0.00,VWS V14.01,2013-11-01 08:20:00,
2013-11-01 04:21:00,72.3,72.3,29.92,SSW,208,12.0,12.0,100,0.00,,OVC080,0.00,VWS V14.01,2013-11-01 08:21:00,
2013-11-01 04:22:00,72.3,72.3,29.92,SSW,198,10.0,12.0,100,0.00,,OVC080,0.00,VWS V14.01,2013-11-01 08:22:00,
2013-11-01 04:23:00,72.3,72.3,29.92,South,188,10.0,10.0,100,0.00,,OVC080,0.00,VWS V14.01,2013-11-01 08:23:00,
2013-11-01 04:24:00,72.3,72.3,29.92,SSW,194,11.0,11.0,100,0.00,,OVC080,0.00,VWS V14.01,2013-11-01 08:24:00,
2013-11-01 04:25:00,72.0,72.0,29.90,South,171,11.0,14.0,100,0.00,,CLR,0.00,VWS V14.01,2013-11-01 08:25:00,
2013-11-01 04:26:00,72.3,72.3,29.92,SSW,194,8.0,14.0,100,0.00,,OVC080,0.00,VWS V14.01,2013-11-01 08:26:00,
2013-11-01 04:27:00,72.3,72.3,29.92,SSW,205,10.0,11.0,100,0.00,,OVC080,0.00,VWS V14.01,2013-11-01 08:27:00,
2013-11-01 04:28:00,72.3,72.3,29.92,SSW,202,9.0,11.0,100,0.00,,OVC080,0.00,VWS V14.01,2013-11-01 08:28:00,
2013-11-01 04:29:00,72.1,72.1,29.92,SSW,205,7.0,11.0,100,0.00,,OVC080,0.00,VWS V14.01,2013-11-01 08:29:00,
2013-11-01 04:30:00,71.8,71.8,29.90,SSW,192,12.0,12.0,100,0.00,,CLR,0.00,VWS V14.01,2013-11-01 08:30:00,
2013-11-01 04:31:00,72.3,72.3,29.92,South,189,11.0,12.0,100,0.00,,OVC080,0.00,VWS V14.01,2013-11-01 08:31:00,
2013-11-01 04:32:00,72.3,72.3,29.92,SSE,162,11.0,12.0,100,0.00,,OVC080,0.00,VWS V14.01,2013-11-01 08:32:00,
2013-11-01 04:33:00,72.3,72.3,29.92,SSW,192,11.0,12.0,100,0.00,,OVC080,0.00,VWS V14.01,2013-11-01 08:33:00,
2013-11-01 04:34:00,72.3,72.3,29.92,SSW,199,7.0,11.0,100,0.00,,OVC080,0.00,VWS V14.01,2013-11-01 08:34:00,
2013-11-01 04:35:00,71.8,71.8,29.89,South,178,12.0,13.0,100,0.00,,CLR,0.00,VWS V14.01,2013-11-01 08:35:00,
2013-11-01 04:36:00,72.3,72.3,29.91,SSW,203,12.0,13.0,100,0.00,,OVC080,0.00,VWS V14.01,2013-11-01 08:36:00,
2013-11-01 04:37:00,72.3,72.3,29.91,SSW,192,10.0,12.0,100,0.00,,OVC080,0.00,VWS V14.01,2013-11-01 08:37:00,
2013-11-01 04:38:00,72.3,72.3,29.91,SSW,192,10.0,13.0,100,0.00,,OVC080,0.00,VWS V14.01,2013-11-01 08:38:00,
2013-11-01 04:39:00,72.3,72.3,29.91,SSE,161,12.0,12.0,100,0.00,,OVC080,0.00,VWS V14.01,2013-11-01 08:39:00,
2013-11-01 04:40:00,71.8,71.8,29.89,South,182,13.0,13.0,100,0.00,,CLR,0.00,VWS V14.01,2013-11-01 08:40:00,
2013-11-01 04:41:00,72.3,72.3,29.91,SW,220,13.0,13.0,100,0.00,,OVC080,0.00,VWS V14.01,2013-11-01 08:41:00,
2013-11-01 04:42:00,72.3,72.3,29.91,SSW,193,13.0,14.0,100,0.00,,OVC080,0.00,VWS V14.01,2013-11-01 08:42:00,
2013-11-01 04:43:00,72.3,72.3,29.91,SSW,203,10.0,13.0,100,0.00,,OVC080,0.00,VWS V14.01,2013-11-01 08:43:00,
2013-11-01 04:44:00,72.3,72.3,29.91,SSW,201,11.0,13.0,100,0.00,,OVC080,0.00,VWS V14.01,2013-11-01 08:44:00,
2013-11-01 04:45:00,71.8,71.8,29.89,SSW,194,13.0,13.0,100,0.00,,CLR,0.00,VWS V14.01,2013-11-01 08:45:00,
2013-11-01 04:46:00,72.3,72.3,29.91,South,172,12.0,14.0,100,0.00,,OVC080,0.00,VWS V14.01,2013-11-01 08:46:00,
2013-11-01 04:47:00,72.3,72.3,29.91,SSW,192,14.0,14.0,100,0.00,,OVC080,0.00,VWS V14.01,2013-11-01 08:47:00,
2013-11-01 04:48:00,72.3,72.3,29.91,South,186,9.0,14.0,100,0.00,,OVC080,0.00,VWS V14.01,2013-11-01 08:48:00,
2013-11-01 04:49:00,72.3,72.3,29.91,SSW,192,10.0,13.0,100,0.00,,OVC080,0.00,VWS V14.01,2013-11-01 08:49:00,
2013-11-01 04:50:00,71.8,71.8,29.89,SSW,192,12.0,12.0,100,0.00,,CLR,0.00,VWS V14.01,2013-11-01 08:50:00,
2013-11-01 04:51:00,72.1,72.1,29.91,SSE,167,9.0,12.0,100,0.00,,OVC080,0.00,VWS V14.01,2013-11-01 08:51:00,
2013-11-01 04:52:00,72.1,72.1,29.91,SSW,195,9.0,13.0,100,0.00,,OVC080,0.00,VWS V14.01,2013-11-01 08:52:00,
2013-11-01 04:53:00,72.1,72.1,29.91,SSW,205,13.0,13.0,100,0.00,,OVC080,0.00,VWS V14.01,2013-11-01 08:53:00,
2013-11-01 04:54:00,72.1,72.1,29.91,South,184,11.0,13.0,100,0.00,,OVC080,0.00,VWS V14.01,2013-11-01 08:54:00,
2013-11-01 04:55:00,71.8,71.8,29.89,SSW,202,12.0,14.0,100,0.00,,CLR,0.00,VWS V14.01,2013-11-01 08:55:00,
2013-11-01 04:56:00,72.1,72.1,29.91,SSW,199,12.0,13.0,100,0.00,,OVC080,0.00,VWS V14.01,2013-11-01 08:56:00,
2013-11-01 04:57:00,72.1,72.1,29.91,SSW,202,10.0,14.0,100,0.00,,OVC080,0.00,VWS V14.01,2013-11-01 08:57:00,
2013-11-01 04:58:00,72.1,72.1,29.91,SSW,201,11.0,13.0,100,0.00,,OVC080,0.00,VWS V14.01,2013-11-01 08:58:00,
2013-11-01 04:59:00,72.1,72.1,29.90,South,172,12.0,15.0,100,0.00,,OVC080,0.00,VWS V14.01,2013-11-01 08:59:00,
2013-11-01 05:00:00,71.8,71.8,29.89,South,188,14.0,14.0,100,0.00,,CLR,0.00,VWS V14.01,2013-11-01 09:00:00,
2013-11-01 05:01:00,72.1,72.1,29.90,SSW,192,13.0,15.0,100,0.00,,OVC080,0.00,VWS V14.01,2013-11-01 09:01:00,
2013-11-01 05:02:00,72.1,72.1,29.90,South,187,13.0,13.0,100,0.00,,OVC080,0.00,VWS V14.01,2013-11-01 09:02:00,
2013-11-01 05:03:00,72.1,72.1,29.90,South,184,11.0,13.0,100,0.00,,OVC080,0.00,VWS V14.01,2013-11-01 09:03:00,
2013-11-01 05:04:00,72.1,72.1,29.90,SSW,192,15.0,15.0,100,0.00,,OVC080,0.00,VWS V14.01,2013-11-01 09:04:00,
2013-11-01 05:05:00,71.8,71.8,29.89,SSW,198,13.0,14.0,100,0.00,,CLR,0.00,VWS V14.01,2013-11-01 09:05:00,
2013-11-01 05:06:00,72.1,72.1,29.90,South,182,13.0,13.0,100,0.00,,OVC080,0.00,VWS V14.01,2013-11-01 09:06:00,
2013-11-01 05:07:00,72.1,72.1,29.90,South,188,12.0,13.0,100,0.00,,OVC080,0.00,VWS V14.01,2013-11-01 09:07:00,
2013-11-01 05:08:00,72.1,72.1,29.90,SW,215,11.0,12.0,100,0.00,,OVC080,0.00,VWS V14.01,2013-11-01 09:08:00,
2013-11-01 05:09:00,72.1,72.1,29.90,South,170,11.0,13.0,100,0.00,,OVC080,0.00,VWS V14.01,2013-11-01 09:09:00,
2013-11-01 05:10:00,71.8,71.8,29.89,South,186,16.0,16.0,100,0.00,,CLR,0.00,VWS V14.01,2013-11-01 09:10:00,
2013-11-01 05:11:00,72.1,72.1,29.90,South,186,11.0,12.0,100,0.00,,OVC080,0.00,VWS V14.01,2013-11-01 09:11:00,
2013-11-01 05:12:00,72.1,72.1,29.90,SSE,166,11.0,12.0,100,0.00,,OVC080,0.00,VWS V14.01,2013-11-01 09:12:00,
2013-11-01 05:13:00,72.1,72.1,29.90,South,184,11.0,14.0,100,0.00,,OVC080,0.00,VWS V14.01,2013-11-01 09:13:00,
2013-11-01 05:14:00,72.1,72.1,29.90,SSW,193,12.0,12.0,100,0.00,,OVC080,0.00,VWS V14.01,2013-11-01 09:14:00,
2013-11-01 05:15:00,71.8,71.8,29.89,SSW,208,10.0,11.0,100,0.00,,CLR,0.00,VWS V14.01,2013-11-01 09:15:00,
2013-11-01 05:16:00,72.0,72.0,29.90,South,179,13.0,13.0,100,0.00,,OVC080,0.00,VWS V14.01,2013-11-01 09:16:00,
2013-11-01 05:17:00,72.0,72.0,29.90,South,186,12.0,14.0,100,0.00,,OVC080,0.00,VWS V14.01,2013-11-01 09:17:00,
2013-11-01 05:18:00,72.0,72.0,29.90,South,189,12.0,14.0,100,0.00,,OVC080,0.00,VWS V14.01,2013-11-01 09:18:00,
2013-11-01 05:19:00,72.0,72.0,29.90,SSW,201,9.0,13.0,100,0.00,,OVC080,0.00,VWS V14.01,2013-11-01 09:19:00,
2013-11-01 05:20:00,71.8,71.8,29.89,South,175,13.0,14.0,100,0.00,,CLR,0.00,VWS V14.01,2013-11-01 09:20:00,
2013-11-01 05:21:00,72.0,72.0,29.90,SW,223,13.0,13.0,100,0.00,,OVC080,0.00,VWS V14.01,2013-11-01 09:21:00,
2013-11-01 05:22:00,72.0,72.0,29.90,SSW,192,11.0,13.0,100,0.00,,OVC080,0.00,VWS V14.01,2013-11-01 09:22:00,
2013-11-01 05:23:00,72.0,72.0,29.90,SSE,168,11.0,12.0,100,0.00,,OVC080,0.00,VWS V14.01,2013-11-01 09:23:00,
2013-11-01 05:24:00,72.0,72.0,29.90,SSW,194,10.0,13.0,100,0.00,,OVC080,0.00,VWS V14.01,2013-11-01 09:24:00,
2013-11-01 05:25:00,71.8,71.8,29.88,SSW,194,14.0,14.0,100,0.00,,CLR,0.00,VWS V14.01,2013-11-01 09:25:00,
2013-11-01 05:26:00,72.0,72.0,29.90,SW,217,12.0,14.0,100,0.00,,OVC080,0.00,VWS V14.01,2013-11-01 09:26:00,
2013-11-01 05:27:00,72.0,72.0,29.90,South,184,14.0,14.0,100,0.00,,OVC080,0.00,VWS V14.01,2013-11-01 09:27:00,
2013-11-01 05:28:00,72.0,72.0,29.90,SSE,166,12.0,14.0,100,0.00,,OVC080,0.00,VWS V14.01,2013-11-01 09:28:00,
2013-11-01 05:29:00,72.0,72.0,29.90,SSE,167,11.0,15.0,100,0.00,,OVC080,0.00,VWS V14.01,2013-11-01 09:29:00,
2013-11-01 05:30:00,71.8,71.8,29.88,SSE,160,16.0,16.0,100,0.00,,CLR,0.00,VWS V14.01,2013-11-01 09:30:00,
2013-11-01 05:31:00,71.8,71.8,29.90,SSW,209,7.0,12.0,100,0.00,,OVC080,0.00,VWS V14.01,2013-11-01 09:31:00,
2013-11-01 05:32:00,71.8,71.8,29.90,SW,214,15.0,15.0,100,0.00,,OVC080,0.00,VWS V14.01,2013-11-01 09:32:00,
2013-11-01 05:33:00,71.8,71.8,29.90,SSW,213,11.0,15.0,100,0.00,,OVC080,0.00,VWS V14.01,2013-11-01 09:33:00,
2013-11-01 05:34:00,71.8,71.8,29.90,South,186,14.0,14.0,100,0.00,,OVC080,0.00,VWS V14.01,2013-11-01 09:34:00,
2013-11-01 05:35:00,72.0,72.0,29.88,SSW,196,18.0,18.0,100,0.00,,CLR,0.00,VWS V14.01,2013-11-01 09:35:00,
2013-11-01 05:36:00,71.8,71.8,29.89,SSW,196,13.0,13.0,100,0.00,,OVC080,0.00,VWS V14.01,2013-11-01 09:36:00,
2013-11-01 05:37:00,71.8,71.8,29.89,South,178,11.0,14.0,100,0.00,,OVC080,0.00,VWS V14.01,2013-11-01 09:37:00,
2013-11-01 05:38:00,71.8,71.8,29.90,South,169,14.0,14.0,100,0.00,,OVC080,0.00,VWS V14.01,2013-11-01 09:38:00,
2013-11-01 05:39:00,71.8,71.8,29.89,South,190,11.0,14.0,100,0.00,,OVC080,0.00,VWS V14.01,2013-11-01 09:39:00,
2013-11-01 05:40:00,72.0,72.0,29.88,South,176,15.0,17.0,100,0.00,,CLR,0.00,VWS V14.01,2013-11-01 09:40:00,
2013-11-01 05:41:00,71.8,71.8,29.89,South,183,10.0,13.0,100,0.00,,OVC080,0.00,VWS V14.01,2013-11-01 09:41:00,
2013-11-01 05:42:00,71.8,71.8,29.89,South,190,12.0,14.0,100,0.00,,OVC080,0.00,VWS V14.01,2013-11-01 09:42:00,
2013-11-01 05:43:00,71.8,71.8,29.89,SSW,193,11.0,14.0,100,0.00,,OVC080,0.00,VWS V14.01,2013-11-01 09:43:00,
2013-11-01 05:44:00,71.8,71.8,29.89,South,180,10.0,14.0,100,0.00,,OVC080,0.00,VWS V14.01,2013-11-01 09:44:00,
2013-11-01 05:45:00,72.0,72.0,29.88,South,175,13.0,18.0,100,0.00,,CLR,0.00,VWS V14.01,2013-11-01 09:45:00,
2013-11-01 05:46:00,71.8,71.8,29.89,South,190,12.0,14.0,100,0.00,,OVC080,0.00,VWS V14.01,2013-11-01 09:46:00,
2013-11-01 05:47:00,71.8,71.8,29.89,SSW,195,11.0,12.0,100,0.00,,OVC080,0.00,VWS V14.01,2013-11-01 09:47:00,
2013-11-01 05:48:00,71.8,71.8,29.89,SSW,196,11.0,14.0,100,0.00,,OVC080,0.00,VWS V14.01,2013-11-01 09:48:00,
2013-11-01 05:49:00,71.8,71.8,29.89,South,186,11.0,13.0,100,0.00,,OVC080,0.00,VWS V14.01,2013-11-01 09:49:00,
2013-11-01 05:50:00,72.1,72.1,29.87,SSE,164,20.0,20.0,100,0.00,,CLR,0.00,VWS V14.01,2013-11-01 09:50:00,
2013-11-01 05:51:00,71.8,71.8,29.89,South,176,13.0,13.0,100,0.00,,OVC080,0.00,VWS V14.01,2013-11-01 09:51:00,
2013-11-01 05:52:00,71.8,71.8,29.89,SSW,192,12.0,13.0,100,0.00,,OVC080,0.00,VWS V14.01,2013-11-01 09:52:00,
2013-11-01 05:53:00,71.8,71.8,29.89,South,183,13.0,13.0,100,0.00,,OVC080,0.00,VWS V14.01,2013-11-01 09:53:00,
2013-11-01 05:54:00,71.8,71.8,29.89,SSW,202,14.0,15.0,100,0.00,,OVC080,0.00,VWS V14.01,2013-11-01 09:54:00,
2013-11-01 05:55:00,72.1,72.1,29.87,South,175,20.0,20.0,100,0.00,,CLR,0.00,VWS V14.01,2013-11-01 09:55:00,
2013-11-01 05:56:00,71.8,71.8,29.89,South,176,13.0,14.0,100,0.00,,OVC080,0.00,VWS V14.01,2013-11-01 09:56:00,
2013-11-01 05:57:00,71.8,71.8,29.89,SSW,206,13.0,13.0,100,0.00,,OVC080,0.00,VWS V14.01,2013-11-01 09:57:00,
2013-11-01 05:58:00,71.8,71.8,29.89,South,182,13.0,14.0,100,0.00,,OVC080,0.00,VWS V14.01,2013-11-01 09:58:00,
2013-11-01 05:59:00,71.8,71.8,29.89,SSE,168,12.0,16.0,100,0.00,,OVC080,0.00,VWS V14.01,2013-11-01 09:59:00,
2013-11-01 06:00:00,72.1,72.1,29.86,SSE,152,16.0,17.0,100,0.00,,CLR,0.00,VWS V14.01,2013-11-01 10:00:00,
2013-11-01 06:01:00,71.8,71.8,29.89,South,170,12.0,14.0,100,0.00,,OVC080,0.00,VWS V14.01,2013-11-01 10:01:00,
2013-11-01 06:02:00,71.8,71.8,29.89,SSE,165,11.0,14.0,100,0.00,,OVC080,0.00,VWS V14.01,2013-11-01 10:02:00,
2013-11-01 06:03:00,71.8,71.8,29.89,SSW,192,15.0,15.0,100,0.00,,OVC080,0.00,VWS V14.01,2013-11-01 10:03:00,
2013-11-01 06:04:00,71.8,71.8,29.89,South,191,12.0,16.0,100,0.00,,OVC080,0.00,VWS V14.01,2013-11-01 10:04:00,
2013-11-01 06:05:00,72.1,72.1,29.87,South,171,13.0,14.0,100,0.00,,CLR,0.00,VWS V14.01,2013-11-01 10:05:00,
2013-11-01 06:06:00,71.8,71.8,29.89,South,175,13.0,14.0,100,0.00,,OVC080,0.00,VWS V14.01,2013-11-01 10:06:00,
2013-11-01 06:07:00,71.8,71.8,29.89,SSW,200,13.0,14.0,100,0.00,,OVC080,0.00,VWS V14.01,2013-11-01 10:07:00,
2013-11-01 06:08:00,71.8,71.8,29.89,SSW,193,14.0,14.0,100,0.00,,OVC080,0.00,VWS V14.01,2013-11-01 10:08:00,
2013-11-01 06:09:00,71.8,71.8,29.89,SSW,192,14.0,14.0,100,0.00,,OVC080,0.00,VWS V14.01,2013-11-01 10:09:00,
2013-11-01 06:10:00,72.3,72.3,29.87,SSE,167,25.0,25.0,100,0.00,,CLR,0.00,VWS V14.01,2013-11-01 10:10:00,
2013-11-01 06:11:00,71.8,71.8,29.89,SSW,201,11.0,16.0,100,0.00,,OVC080,0.00,VWS V14.01,2013-11-01 10:11:00,
2013-11-01 06:12:00,71.8,71.8,29.89,SSW,194,13.0,15.0,100,0.00,,OVC080,0.00,VWS V14.01,2013-11-01 10:12:00,
2013-11-01 06:13:00,71.8,71.8,29.89,SSW,200,13.0,17.0,100,0.00,,OVC080,0.00,VWS V14.01,2013-11-01 10:13:00,
2013-11-01 06:14:00,71.8,71.8,29.89,SSW,205,12.0,13.0,100,0.00,,OVC080,0.00,VWS V14.01,2013-11-01 10:14:00,
2013-11-01 06:15:00,72.3,72.3,29.87,South,175,16.0,16.0,100,0.00,,CLR,0.00,VWS V14.01,2013-11-01 10:15:00,
2013-11-01 06:16:00,71.8,71.8,29.89,SSW,209,12.0,15.0,100,0.00,,OVC080,0.00,VWS V14.01,2013-11-01 10:16:00,
2013-11-01 06:17:00,71.8,71.8,29.89,SSW,198,14.0,14.0,100,0.00,,OVC080,0.00,VWS V14.01,2013-11-01 10:17:00,
2013-11-01 06:18:00,71.8,71.8,29.89,SSW,194,13.0,15.0,100,0.00,,OVC080,0.00,VWS V14.01,2013-11-01 10:18:00,
2013-11-01 06:19:00,71.8,71.8,29.89,South,184,14.0,14.0,100,0.00,,OVC080,0.00,VWS V14.01,2013-11-01 10:19:00,
2013-11-01 06:20:00,72.3,72.3,29.87,South,178,19.0,22.0,100,0.00,,CLR,0.00,VWS V14.01,2013-11-01 10:20:00,
2013-11-01 06:21:00,71.8,71.8,29.89,South,169,13.0,14.0,100,0.00,,OVC080,0.00,VWS V14.01,2013-11-01 10:21:00,
2013-11-01 06:22:00,71.8,71.8,29.89,SSW,199,13.0,15.0,100,0.00,,OVC080,0.00,VWS V14.01,2013-11-01 10:22:00,
2013-11-01 06:23:00,71.8,71.8,29.89,South,175,14.0,15.0,100,0.00,,OVC080,0.00,VWS V14.01,2013-11-01 10:23:00,
2013-11-01 06:24:00,71.8,71.8,29.89,South,190,13.0,15.0,100,0.00,,OVC080,0.00,VWS V14.01,2013-11-01 10:24:00,
2013-11-01 06:25:00,72.5,72.5,29.87,South,169,20.0,23.0,100,0.00,,CLR,0.00,VWS V14.01,2013-11-01 10:25:00,
2013-11-01 06:26:00,71.8,71.8,29.88,South,172,15.0,16.0,100,0.00,,OVC080,0.00,VWS V14.01,2013-11-01 10:26:00,
2013-11-01 06:27:00,71.8,71.8,29.89,SSW,200,16.0,16.0,100,0.00,,OVC080,0.00,VWS V14.01,2013-11-01 10:27:00,
2013-11-01 06:28:00,71.8,71.8,29.88,South,179,14.0,16.0,100,0.00,,OVC080,0.00,VWS V14.01,2013-11-01 10:28:00,
2013-11-01 06:29:00,71.8,71.8,29.88,South,189,14.0,17.0,100,0.00,,OVC080,0.00,VWS V14.01,2013-11-01 10:29:00,
2013-11-01 06:30:00,72.5,72.5,29.87,SSE,168,17.0,17.0,100,0.00,,CLR,0.00,VWS V14.01,2013-11-01 10:30:00,
2013-11-01 06:31:00,71.8,71.8,29.88,South,180,15.0,16.0,100,0.00,,OVC080,0.00,VWS V14.01,2013-11-01 10:31:00,
2013-11-01 06:32:00,71.8,71.8,29.88,SSW,196,17.0,19.0,100,0.00,,OVC080,0.00,VWS V14.01,2013-11-01 10:32:00,
2013-11-01 06:33:00,72.0,72.0,29.88,South,191,13.0,17.0,100,0.00,,OVC080,0.00,VWS V14.01,2013-11-01 10:33:00,
2013-11-01 06:34:00,72.0,72.0,29.88,SSE,160,16.0,16.0,100,0.00,,OVC080,0.00,VWS V14.01,2013-11-01 10:34:00,
2013-11-01 06:35:00,72.5,72.5,29.87,SSE,168,15.0,20.0,100,0.00,,CLR,0.00,VWS V14.01,2013-11-01 10:35:00,
2013-11-01 06:36:00,72.0,72.0,29.88,SSW,199,17.0,18.0,100,0.00,,OVC080,0.00,VWS V14.01,2013-11-01 10:36:00,
2013-11-01 06:37:00,72.0,72.0,29.88,SSW,194,14.0,19.0,100,0.00,,OVC080,0.00,VWS V14.01,2013-11-01 10:37:00,
2013-11-01 06:38:00,72.0,72.0,29.88,South,170,19.0,19.0,100,0.00,,OVC080,0.00,VWS V14.01,2013-11-01 10:38:00,
2013-11-01 06:39:00,72.0,72.0,29.88,South,182,17.0,19.0,100,0.00,,OVC080,0.00,VWS V14.01,2013-11-01 10:39:00,
2013-11-01 06:40:00,72.5,72.5,29.87,South,188,17.0,19.0,100,0.00,,CLR,0.00,VWS V14.01,2013-11-01 10:40:00,
2013-11-01 06:41:00,72.0,72.0,29.88,South,178,20.0,20.0,100,0.00,,OVC080,0.00,VWS V14.01,2013-11-01 10:41:00,
2013-11-01 06:42:00,72.0,72.0,29.88,South,184,18.0,20.0,100,0.00,,OVC080,0.00,VWS V14.01,2013-11-01 10:42:00,
2013-11-01 06:43:00,72.0,72.0,29.88,South,191,20.0,20.0,100,0.00,,OVC080,0.00,VWS V14.01,2013-11-01 10:43:00,
2013-11-01 06:44:00,72.0,72.0,29.88,South,179,19.0,20.0,100,0.00,,OVC080,0.00,VWS V14.01,2013-11-01 10:44:00,
2013-11-01 06:45:00,72.5,72.5,29.87,South,173,16.0,20.0,100,0.00,,CLR,0.00,VWS V14.01,2013-11-01 10:45:00,
2013-11-01 06:46:00,72.0,72.0,29.88,South,180,22.0,22.0,100,0.00,,OVC080,0.00,VWS V14.01,2013-11-01 10:46:00,
2013-11-01 06:47:00,72.0,72.0,29.88,South,190,20.0,22.0,100,0.00,,OVC080,0.00,VWS V14.01,2013-11-01 10:47:00,
2013-11-01 06:48:00,72.0,72.0,29.88,SSE,168,20.0,20.0,100,0.00,,OVC080,0.00,VWS V14.01,2013-11-01 10:48:00,
2013-11-01 06:49:00,72.0,72.0,29.88,South,178,22.0,22.0,100,0.00,,OVC080,0.00,VWS V14.01,2013-11-01 10:49:00,
2013-11-01 06:50:00,72.5,72.5,29.87,South,189,15.0,19.0,100,0.00,,CLR,0.00,VWS V14.01,2013-11-01 10:50:00,
2013-11-01 06:51:00,72.1,72.1,29.87,South,170,15.0,21.0,100,0.00,,OVC080,0.00,VWS V14.01,2013-11-01 10:51:00,
2013-11-01 06:52:00,72.1,72.1,29.87,South,176,22.0,22.0,100,0.00,,OVC080,0.00,VWS V14.01,2013-11-01 10:52:00,
2013-11-01 06:53:00,72.1,72.1,29.87,South,179,17.0,22.0,100,0.00,,OVC080,0.00,VWS V14.01,2013-11-01 10:53:00,
2013-11-01 06:54:00,72.1,72.1,29.87,South,182,17.0,21.0,100,0.00,,OVC080,0.00,VWS V14.01,2013-11-01 10:54:00,
2013-11-01 06:55:00,72.5,72.5,29.87,South,182,19.0,19.0,100,0.00,,CLR,0.00,VWS V14.01,2013-11-01 10:55:00,
2013-11-01 06:56:00,72.1,72.1,29.87,SSE,157,16.0,20.0,100,0.00,,OVC080,0.00,VWS V14.01,2013-11-01 10:56:00,
2013-11-01 06:57:00,72.1,72.1,29.87,SSE,158,18.0,20.0,100,0.00,,OVC080,0.00,VWS V14.01,2013-11-01 10:57:00,
2013-11-01 06:58:00,72.1,72.1,29.87,SW,218,16.0,18.0,100,0.00,,OVC080,0.00,VWS V14.01,2013-11-01 10:58:00,
2013-11-01 06:59:00,72.1,72.1,29.87,South,171,21.0,21.0,100,0.00,,OVC080,0.00,VWS V14.01,2013-11-01 10:59:00,
2013-11-01 07:00:00,72.5,72.5,29.87,SSW,202,20.0,20.0,100,0.00,,CLR,0.00,VWS V14.01,2013-11-01 11:00:00,
2013-11-01 07:01:00,72.1,72.1,29.86,South,182,23.0,23.0,100,0.00,,OVC080,0.00,VWS V14.01,2013-11-01 11:01:00,
2013-11-01 07:02:00,72.1,72.1,29.86,South,173,15.0,23.0,100,0.00,,OVC080,0.00,VWS V14.01,2013-11-01 11:02:00,
2013-11-01 07:03:00,72.1,72.1,29.86,SE,146,19.0,19.0,100,0.00,,OVC080,0.00,VWS V14.01,2013-11-01 11:03:00,
2013-11-01 07:04:00,72.1,72.1,29.87,South,178,16.0,23.0,100,0.00,,OVC080,0.00,VWS V14.01,2013-11-01 11:04:00,
2013-11-01 07:05:00,72.5,72.5,29.87,South,182,17.0,23.0,100,0.00,,CLR,0.00,VWS V14.01,2013-11-01 11:05:00,
2013-11-01 07:06:00,72.1,72.1,29.87,South,170,20.0,20.0,100,0.00,,OVC080,0.00,VWS V14.01,2013-11-01 11:06:00,
2013-11-01 07:07:00,72.3,72.3,29.87,SSW,194,14.0,25.0,100,0.00,,OVC080,0.00,VWS V14.01,2013-11-01 11:07:00,
2013-11-01 07:08:00,72.3,72.3,29.87,SSE,161,19.0,24.0,100,0.00,,OVC080,0.00,VWS V14.01,2013-11-01 11:08:00,
2013-11-01 07:09:00,72.3,72.3,29.87,South,169,19.0,22.0,100,0.00,,OVC080,0.00,VWS V14.01,2013-11-01 11:09:00,
2013-11-01 07:10:00,72.5,72.5,29.87,South,185,19.0,19.0,100,0.00,,CLR,0.00,VWS V14.01,2013-11-01 11:10:00,
2013-11-01 07:11:00,72.3,72.3,29.87,SSE,167,18.0,25.0,100,0.00,,OVC080,0.00,VWS V14.01,2013-11-01 11:11:00,
2013-11-01 07:12:00,72.3,72.3,29.87,South,171,21.0,22.0,100,0.00,,OVC080,0.00,VWS V14.01,2013-11-01 11:12:00,
2013-11-01 07:13:00,72.3,72.3,29.87,South,169,21.0,27.0,100,0.00,,OVC080,0.00,VWS V14.01,2013-11-01 11:13:00,
2013-11-01 07:14:00,72.3,72.3,29.87,South,171,16.0,23.0,100,0.00,,OVC080,0.00,VWS V14.01,2013-11-01 11:14:00,
2013-11-01 07:15:00,72.5,72.5,29.87,South,169,20.0,24.0,100,0.00,,CLR,0.00,VWS V14.01,2013-11-01 11:15:00,
2013-11-01 07:16:00,72.3,72.3,29.87,South,180,14.0,18.0,100,0.00,,OVC080,0.00,VWS V14.01,2013-11-01 11:16:00,
2013-11-01 07:17:00,72.3,72.3,29.87,South,186,22.0,22.0,100,0.00,,OVC080,0.00,VWS V14.01,2013-11-01 11:17:00,
2013-11-01 07:18:00,72.3,72.3,29.87,South,191,17.0,23.0,100,0.00,,OVC080,0.00,VWS V14.01,2013-11-01 11:18:00,
2013-11-01 07:19:00,72.3,72.3,29.87,SSE,150,14.0,20.0,100,0.00,,OVC080,0.00,VWS V14.01,2013-11-01 11:19:00,
2013-11-01 07:20:00,72.5,72.5,29.87,SSE,161,19.0,19.0,100,0.00,,CLR,0.00,VWS V14.01,2013-11-01 11:20:00,
2013-11-01 07:21:00,72.3,72.3,29.87,South,171,24.0,24.0,100,0.00,,OVC080,0.00,VWS V14.01,2013-11-01 11:21:00,
2013-11-01 07:22:00,72.3,72.3,29.87,SSE,163,19.0,24.0,100,0.00,,OVC080,0.00,VWS V14.01,2013-11-01 11:22:00,
2013-11-01 07:23:00,72.3,72.3,29.87,South,169,17.0,22.0,100,0.00,,OVC080,0.00,VWS V14.01,2013-11-01 11:23:00,
2013-11-01 07:24:00,72.5,72.5,29.87,South,171,17.0,20.0,100,0.00,,OVC080,0.00,VWS V14.01,2013-11-01 11:24:00,
2013-11-01 07:25:00,72.5,72.5,29.87,SSW,198,17.0,17.0,100,0.00,,CLR,0.00,VWS V14.01,2013-11-01 11:25:00,
2013-11-01 07:26:00,72.5,72.5,29.87,South,177,18.0,23.0,100,0.00,,OVC080,0.00,VWS V14.01,2013-11-01 11:26:00,
2013-11-01 07:27:00,72.5,72.5,29.87,SSE,167,21.0,24.0,100,0.00,,OVC080,0.00,VWS V14.01,2013-11-01 11:27:00,
2013-11-01 07:28:00,72.5,72.5,29.87,SSE,159,17.0,21.0,100,0.00,,OVC080,0.00,VWS V14.01,2013-11-01 11:28:00,
2013-11-01 07:29:00,72.5,72.5,29.87,SSW,196,16.0,25.0,100,0.00,,OVC080,0.00,VWS V14.01,2013-11-01 11:29:00,
2013-11-01 07:30:00,72.5,72.5,29.87,SSW,203,14.0,17.0,100,0.00,,CLR,0.00,VWS V14.01,2013-11-01 11:30:00,
2013-11-01 07:31:00,72.5,72.5,29.87,SSE,159,21.0,21.0,100,0.00,,OVC080,0.00,VWS V14.01,2013-11-01 11:31:00,
2013-11-01 07:32:00,72.5,72.5,29.87,South,183,21.0,23.0,100,0.00,,OVC080,0.00,VWS V14.01,2013-11-01 11:32:00,
2013-11-01 07:33:00,72.5,72.5,29.87,South,185,14.0,21.0,100,0.00,,OVC080,0.00,VWS V14.01,2013-11-01 11:33:00,
2013-11-01 07:34:00,72.5,72.5,29.87,South,173,14.0,22.0,100,0.00,,OVC080,0.00,VWS V14.01,2013-11-01 11:34:00,
2013-11-01 07:35:00,72.5,72.5,29.87,SSE,165,17.0,17.0,100,0.00,,CLR,0.00,VWS V14.01,2013-11-01 11:35:00,
2013-11-01 07:36:00,72.5,72.5,29.87,SSW,200,24.0,24.0,100,0.00,,OVC080,0.00,VWS V14.01,2013-11-01 11:36:00,
2013-11-01 07:37:00,72.5,72.5,29.87,South,183,16.0,24.0,100,0.00,,OVC080,0.00,VWS V14.01,2013-11-01 11:37:00,
2013-11-01 07:38:00,72.5,72.5,29.87,South,173,25.0,25.0,100,0.00,,OVC080,0.00,VWS V14.01,2013-11-01 11:38:00,
2013-11-01 07:39:00,72.5,72.5,29.87,SSE,163,21.0,25.0,100,0.00,,OVC080,0.00,VWS V14.01,2013-11-01 11:39:00,
2013-11-01 07:40:00,72.5,72.5,29.87,SSW,207,14.0,16.0,100,0.00,,SCT120,0.00,VWS V14.01,2013-11-01 11:40:00,
2013-11-01 07:41:00,72.5,72.5,29.87,SSE,161,22.0,25.0,100,0.00,,OVC080,0.00,VWS V14.01,2013-11-01 11:41:00,
2013-11-01 07:42:00,72.5,72.5,29.87,South,184,21.0,24.0,100,0.00,,OVC080,0.00,VWS V14.01,2013-11-01 11:42:00,
2013-11-01 07:43:00,72.5,72.5,29.87,South,186,20.0,21.0,100,0.00,,OVC080,0.00,VWS V14.01,2013-11-01 11:43:00,
2013-11-01 07:44:00,72.5,72.5,29.87,South,175,17.0,20.0,100,0.00,,OVC080,0.00,VWS V14.01,2013-11-01 11:44:00,
2013-11-01 07:45:00,72.5,72.5,29.88,SSW,209,14.0,18.0,100,0.00,,SCT120,0.00,VWS V14.01,2013-11-01 11:45:00,
2013-11-01 07:46:00,72.5,72.5,29.87,South,172,18.0,21.0,100,0.00,,OVC080,0.00,VWS V14.01,2013-11-01 11:46:00,
2013-11-01 07:47:00,72.5,72.5,29.87,South,179,22.0,22.0,100,0.00,,OVC080,0.00,VWS V14.01,2013-11-01 11:47:00,
2013-11-01 07:48:00,72.5,72.5,29.87,South,186,21.0,22.0,100,0.00,,OVC080,0.00,VWS V14.01,2013-11-01 11:48:00,
2013-11-01 07:49:00,72.5,72.5,29.87,South,191,22.0,22.0,100,0.00,,OVC080,0.00,VWS V14.01,2013-11-01 11:49:00,
2013-11-01 07:50:00,72.5,72.5,29.88,SSW,194,17.0,18.0,100,0.00,,SCT120,0.00,VWS V14.01,2013-11-01 11:50:00,
2013-11-01 07:51:00,72.5,72.5,29.87,SSE,157,20.0,20.0,100,0.00,,OVC080,0.00,VWS V14.01,2013-11-01 11:51:00,
2013-11-01 07:52:00,72.5,72.5,29.87,South,171,17.0,20.0,100,0.00,,OVC080,0.00,VWS V14.01,2013-11-01 11:52:00,
2013-11-01 07:53:00,72.5,72.5,29.87,South,185,18.0,20.0,100,0.00,,OVC080,0.00,VWS V14.01,2013-11-01 11:53:00,
2013-11-01 07:54:00,72.5,72.5,29.87,South,182,19.0,20.0,100,0.00,,OVC080,0.00,VWS V14.01,2013-11-01 11:54:00,
2013-11-01 07:55:00,72.5,72.5,29.88,SSW,213,19.0,19.0,100,0.00,,SCT120,0.00,VWS V14.01,2013-11-01 11:55:00,
2013-11-01 07:56:00,72.5,72.5,29.87,South,186,19.0,21.0,100,0.00,,OVC080,0.00,VWS V14.01,2013-11-01 11:56:00,
2013-11-01 07:57:00,72.5,72.5,29.87,SSW,196,19.0,19.0,100,0.00,,OVC080,0.00,VWS V14.01,2013-11-01 11:57:00,
2013-11-01 07:58:00,72.5,72.5,29.87,South,174,16.0,22.0,100,0.00,,OVC080,0.00,VWS V14.01,2013-11-01 11:58:00,
2013-11-01 07:59:00,72.5,72.5,29.87,South,189,17.0,21.0,100,0.00,,OVC080,0.00,VWS V14.01,2013-11-01 11:59:00,
2013-11-01 08:00:00,72.5,72.5,29.89,SSW,196,18.0,18.0,100,0.00,,SCT120,0.00,VWS V14.01,2013-11-01 12:00:00,
2013-11-01 08:01:00,72.5,72.5,29.87,South,177,17.0,20.0,100,0.00,,OVC080,0.00,VWS V14.01,2013-11-01 12:01:00,
2013-11-01 08:02:00,72.5,72.5,29.87,SSE,161,16.0,18.0,100,0.00,,OVC080,0.00,VWS V14.01,2013-11-01 12:02:00,
2013-11-01 08:03:00,72.5,72.5,29.87,South,179,21.0,21.0,100,0.00,,OVC080,0.00,VWS V14.01,2013-11-01 12:03:00,
2013-11-01 08:04:00,72.5,72.5,29.87,SSW,192,19.0,21.0,100,0.00,,OVC080,0.00,VWS V14.01,2013-11-01 12:04:00,
2013-11-01 08:05:00,72.5,72.5,29.89,SSW,200,19.0,20.0,100,0.00,,SCT120,0.00,VWS V14.01,2013-11-01 12:05:00,
2013-11-01 08:06:00,72.5,72.5,29.87,South,178,19.0,23.0,100,0.00,,OVC080,0.00,VWS V14.01,2013-11-01 12:06:00,
2013-11-01 08:07:00,72.5,72.5,29.87,SSW,194,24.0,24.0,100,0.00,,OVC080,0.00,VWS V14.01,2013-11-01 12:07:00,
2013-11-01 08:08:00,72.5,72.5,29.87,South,175,18.0,24.0,100,0.00,,OVC080,0.00,VWS V14.01,2013-11-01 12:08:00,
2013-11-01 08:09:00,72.5,72.5,29.87,South,180,18.0,21.0,100,0.00,,OVC080,0.00,VWS V14.01,2013-11-01 12:09:00,
2013-11-01 08:10:00,72.5,72.5,29.89,SSW,208,20.0,21.0,100,0.00,,SCT120,0.00,VWS V14.01,2013-11-01 12:10:00,
2013-11-01 08:11:00,72.5,72.5,29.87,South,180,18.0,19.0,100,0.00,,OVC080,0.00,VWS V14.01,2013-11-01 12:11:00,
2013-11-01 08:12:00,72.5,72.5,29.87,South,185,18.0,22.0,100,0.00,,OVC080,0.00,VWS V14.01,2013-11-01 12:12:00,
2013-11-01 08:13:00,72.5,72.5,29.87,SSE,165,15.0,24.0,100,0.00,,OVC080,0.00,VWS V14.01,2013-11-01 12:13:00,
2013-11-01 08:14:00,72.5,72.5,29.87,South,179,20.0,22.0,100,0.00,,OVC080,0.00,VWS V14.01,2013-11-01 12:14:00,
2013-11-01 08:15:00,72.5,72.5,29.89,SSW,198,13.0,16.0,100,0.00,,SCT120,0.00,VWS V14.01,2013-11-01 12:15:00,
2013-11-01 08:16:00,72.5,72.5,29.87,South,173,19.0,20.0,100,0.00,,OVC080,0.00,VWS V14.01,2013-11-01 12:16:00,
2013-11-01 08:17:00,72.5,72.5,29.87,South,186,17.0,22.0,100,0.00,,OVC080,0.00,VWS V14.01,2013-11-01 12:17:00,
2013-11-01 08:18:00,72.5,72.5,29.87,SSW,195,24.0,24.0,100,0.00,,OVC080,0.00,VWS V14.01,2013-11-01 12:18:00,
2013-11-01 08:19:00,72.5,72.5,29.87,South,184,19.0,24.0,100,0.00,,OVC080,0.00,VWS V14.01,2013-11-01 12:19:00,
2013-11-01 08:20:00,72.5,72.5,29.89,SSW,201,14.0,17.0,100,0.00,,SCT120,0.00,VWS V14.01,2013-11-01 12:20:00,
2013-11-01 08:21:00,72.5,72.5,29.87,South,184,18.0,19.0,100,0.00,,OVC080,0.00,VWS V14.01,2013-11-01 12:21:00,
2013-11-01 08:22:00,72.5,72.5,29.87,South,179,19.0,19.0,100,0.00,,OVC080,0.00,VWS V14.01,2013-11-01 12:22:00,
2013-11-01 08:23:00,72.5,72.5,29.87,South,169,15.0,19.0,100,0.00,,OVC080,0.00,VWS V14.01,2013-11-01 12:23:00,
2013-11-01 08:24:00,72.5,72.5,29.87,South,182,18.0,19.0,100,0.00,,OVC080,0.00,VWS V14.01,2013-11-01 12:24:00,
2013-11-01 08:25:00,72.5,72.5,29.89,SSW,204,18.0,19.0,100,0.00,,SCT120,0.00,VWS V14.01,2013-11-01 12:25:00,
2013-11-01 08:26:00,72.5,72.5,29.87,SSW,211,17.0,17.0,100,0.00,,OVC080,0.00,VWS V14.01,2013-11-01 12:26:00,
2013-11-01 08:27:00,72.5,72.5,29.87,SSW,201,16.0,19.0,100,0.00,,OVC080,0.00,VWS V14.01,2013-11-01 12:27:00,
2013-11-01 08:28:00,72.5,72.5,29.87,SSW,196,18.0,19.0,100,0.00,,OVC080,0.00,VWS V14.01,2013-11-01 12:28:00,
2013-11-01 08:29:00,72.5,72.5,29.89,SSW,209,17.0,17.0,100,0.00,,SCT120,0.00,VWS V14.01,2013-11-01 12:29:00,
2013-11-01 08:30:00,72.5,72.5,29.87,SSW,197,17.0,17.0,100,0.00,,OVC080,0.00,VWS V14.01,2013-11-01 12:30:00,
2013-11-01 08:31:00,72.5,72.5,29.87,SSW,192,15.0,19.0,100,0.00,,OVC080,0.00,VWS V14.01,2013-11-01 12:31:00,
2013-11-01 08:32:00,72.5,72.5,29.87,South,190,12.0,16.0,100,0.00,,OVC080,0.00,VWS V14.01,2013-11-01 12:32:00,
2013-11-01 08:33:00,72.3,72.3,29.87,SSW,193,15.0,16.0,100,0.00,,OVC080,0.00,VWS V14.01,2013-11-01 12:33:00,
2013-11-01 08:34:00,72.5,72.5,29.89,WSW,250,16.0,16.0,100,0.00,,SCT120,0.00,VWS V14.01,2013-11-01 12:34:00,
2013-11-01 08:35:00,72.3,72.3,29.87,SSW,198,15.0,20.0,100,0.00,,OVC080,0.00,VWS V14.01,2013-11-01 12:35:00,
2013-11-01 08:36:00,72.5,72.5,29.87,SW,215,13.0,17.0,100,0.00,,OVC080,0.00,VWS V14.01,2013-11-01 12:36:00,
2013-11-01 08:37:00,72.5,72.5,29.87,South,188,19.0,19.0,100,0.00,,OVC080,0.00,VWS V14.01,2013-11-01 12:37:00,
2013-11-01 08:38:00,72.5,72.5,29.87,SW,219,23.0,23.0,100,0.00,,OVC080,0.00,VWS V14.01,2013-11-01 12:38:00,
2013-11-01 08:39:00,72.5,72.5,29.90,SSW,198,12.0,18.0,100,0.00,,BKN200,0.00,VWS V14.01,2013-11-01 12:39:00,
2013-11-01 08:40:00,72.5,72.5,29.87,SSW,194,16.0,17.0,100,0.00,,OVC080,0.00,VWS V14.01,2013-11-01 12:40:00,
2013-11-01 08:41:00,72.5,72.5,29.87,SSW,196,15.0,16.0,100,0.00,,OVC080,0.00,VWS V14.01,2013-11-01 12:41:00,
2013-11-01 08:42:00,72.5,72.5,29.87,SSW,205,14.0,15.0,100,0.00,,OVC080,0.00,VWS V14.01,2013-11-01 12:42:00,
2013-11-01 08:43:00,72.5,72.5,29.87,SSW,192,18.0,18.0,100,0.00,,OVC080,0.00,VWS V14.01,2013-11-01 12:43:00,
2013-11-01 08:44:00,72.5,72.5,29.90,SW,231,11.0,13.0,100,0.00,,BKN200,0.00,VWS V14.01,2013-11-01 12:44:00,
2013-11-01 08:45:00,72.5,72.5,29.88,SW,216,18.0,21.0,100,0.00,,OVC080,0.00,VWS V14.01,2013-11-01 12:45:00,
2013-11-01 08:46:00,72.5,72.5,29.88,SSE,167,14.0,18.0,100,0.00,,OVC080,0.00,VWS V14.01,2013-11-01 12:46:00,
2013-11-01 08:47:00,72.5,72.5,29.88,South,171,16.0,18.0,100,0.00,,OVC080,0.00,VWS V14.01,2013-11-01 12:47:00,
2013-11-01 08:48:00,72.5,72.5,29.88,South,173,16.0,16.0,100,0.00,,OVC080,0.00,VWS V14.01,2013-11-01 12:48:00,
2013-11-01 08:49:00,72.5,72.5,29.88,SSW,192,15.0,16.0,100,0.00,,OVC080,0.00,VWS V14.01,2013-11-01 12:49:00,
2013-11-01 08:50:00,72.5,72.5,29.90,SSW,207,16.0,17.0,100,0.00,,BKN200,0.00,VWS V14.01,2013-11-01 12:50:00,
2013-11-01 08:51:00,72.5,72.5,29.88,SSW,205,17.0,18.0,100,0.00,,OVC080,0.00,VWS V14.01,2013-11-01 12:51:00,
2013-11-01 08:52:00,72.5,72.5,29.88,SW,228,13.0,19.0,100,0.00,,OVC080,0.00,VWS V14.01,2013-11-01 12:52:00,
2013-11-01 08:53:00,72.5,72.5,29.88,South,183,18.0,19.0,100,0.00,,OVC080,0.00,VWS V14.01,2013-11-01 12:53:00,
2013-11-01 08:54:00,72.5,72.5,29.90,SSW,203,16.0,17.0,100,0.00,,BKN200,0.00,VWS V14.01,2013-11-01 12:54:00,
2013-11-01 08:55:00,72.5,72.5,29.88,South,185,16.0,21.0,100,0.00,,OVC080,0.00,VWS V14.01,2013-11-01 12:55:00,
2013-11-01 08:56:00,72.5,72.5,29.88,SSW,202,21.0,21.0,100,0.00,,OVC080,0.00,VWS V14.01,2013-11-01 12:56:00,
2013-11-01 08:57:00,72.5,72.5,29.88,SSW,207,20.0,21.0,100,0.00,,OVC080,0.00,VWS V14.01,2013-11-01 12:57:00,
2013-11-01 08:58:00,72.5,72.5,29.89,SW,229,18.0,21.0,100,0.00,,OVC080,0.00,VWS V14.01,2013-11-01 12:58:00,
2013-11-01 08:59:00,72.5,72.5,29.90,SSW,204,16.0,16.0,100,0.00,,BKN200,0.00,VWS V14.01,2013-11-01 12:59:00,
2013-11-01 09:00:00,72.5,72.5,29.89,SSW,207,18.0,20.0,100,0.00,,OVC080,0.00,VWS V14.01,2013-11-01 13:00:00,
2013-11-01 09:01:00,72.5,72.5,29.89,SSW,198,18.0,18.0,100,0.00,,OVC080,0.00,VWS V14.01,2013-11-01 13:01:00,
2013-11-01 09:02:00,72.5,72.5,29.89,SW,227,17.0,19.0,100,0.00,,OVC080,0.00,VWS V14.01,2013-11-01 13:02:00,
2013-11-01 09:03:00,72.5,72.5,29.89,SSW,212,20.0,20.0,100,0.00,,OVC080,0.00,VWS V14.01,2013-11-01 13:03:00,
2013-11-01 09:04:00,72.5,72.5,29.90,SSW,204,17.0,17.0,100,0.00,,BKN200,0.00,VWS V14.01,2013-11-01 13:04:00,
2013-11-01 09:05:00,72.5,72.5,29.89,SSW,200,19.0,20.0,100,0.00,,OVC080,0.00,VWS V14.01,2013-11-01 13:05:00,
2013-11-01 09:06:00,72.5,72.5,29.89,SSW,200,17.0,19.0,100,0.00,,OVC080,0.00,VWS V14.01,2013-11-01 13:06:00,
2013-11-01 09:07:00,72.5,72.5,29.89,South,186,19.0,21.0,100,0.00,,OVC080,0.00,VWS V14.01,2013-11-01 13:07:00,
2013-11-01 09:08:00,72.5,72.5,29.89,SW,217,14.0,19.0,100,0.00,,OVC080,0.00,VWS V14.01,2013-11-01 13:08:00,
2013-11-01 09:09:00,72.5,72.5,29.90,SW,225,12.0,14.0,100,0.00,,BKN200,0.00,VWS V14.01,2013-11-01 13:09:00,
2013-11-01 09:10:00,72.5,72.5,29.89,SSW,208,20.0,21.0,100,0.00,,OVC080,0.00,VWS V14.01,2013-11-01 13:10:00,
2013-11-01 09:11:00,72.5,72.5,29.89,SSW,199,17.0,20.0,100,0.00,,OVC080,0.00,VWS V14.01,2013-11-01 13:11:00,
2013-11-01 09:12:00,72.5,72.5,29.89,SW,222,17.0,19.0,100,0.00,,OVC080,0.00,VWS V14.01,2013-11-01 13:12:00,
2013-11-01 09:13:00,72.5,72.5,29.89,SSW,194,15.0,18.0,100,0.00,,OVC080,0.00,VWS V14.01,2013-11-01 13:13:00,
2013-11-01 09:14:00,72.7,72.7,29.86,SW,236,17.0,17.0,100,0.00,,BKN200,0.00,VWS V14.01,2013-11-01 13:14:00,
2013-11-01 09:15:00,72.5,72.5,29.89,SSW,205,16.0,19.0,100,0.00,,OVC080,0.00,VWS V14.01,2013-11-01 13:15:00,
2013-11-01 09:16:00,72.5,72.5,29.89,SW,214,15.0,19.0,100,0.00,,OVC080,0.00,VWS V14.01,2013-11-01 13:16:00,
2013-11-01 09:17:00,72.3,72.3,29.89,SW,219,19.0,19.0,100,0.00,,OVC080,0.00,VWS V14.01,2013-11-01 13:17:00,
2013-11-01 09:18:00,72.5,72.5,29.89,SW,215,17.0,19.0,100,0.00,,OVC080,0.00,VWS V14.01,2013-11-01 13:18:00,
2013-11-01 09:19:00,72.7,72.7,29.91,SSW,203,17.0,17.0,100,0.00,,BKN200,0.00,VWS V14.01,2013-11-01 13:19:00,
2013-11-01 09:20:00,72.5,72.5,29.89,SSW,213,17.0,17.0,100,0.00,,OVC080,0.00,VWS V14.01,2013-11-01 13:20:00,
2013-11-01 09:21:00,72.5,72.5,29.89,SSW,200,14.0,17.0,100,0.00,,OVC080,0.00,VWS V14.01,2013-11-01 13:21:00,
2013-11-01 09:22:00,72.5,72.5,29.89,SSW,203,16.0,17.0,100,0.00,,OVC080,0.00,VWS V14.01,2013-11-01 13:22:00,
2013-11-01 09:23:00,72.5,72.5,29.89,SSW,202,17.0,18.0,100,0.00,,OVC080,0.00,VWS V14.01,2013-11-01 13:23:00,
2013-11-01 09:24:00,72.7,72.7,29.91,SSW,197,14.0,17.0,100,0.00,,BKN200,0.00,VWS V14.01,2013-11-01 13:24:00,
2013-11-01 09:25:00,72.5,72.5,29.89,SSW,204,18.0,19.0,100,0.00,,OVC080,0.00,VWS V14.01,2013-11-01 13:25:00,
2013-11-01 09:26:00,72.5,72.5,29.89,SSW,198,11.0,18.0,100,0.00,,OVC080,0.00,VWS V14.01,2013-11-01 13:26:00,
2013-11-01 09:27:00,72.5,72.5,29.89,SSW,194,16.0,19.0,100,0.00,,OVC080,0.00,VWS V14.01,2013-11-01 13:27:00,
2013-11-01 09:28:00,72.5,72.5,29.89,SW,225,14.0,18.0,100,0.00,,OVC080,0.00,VWS V14.01,2013-11-01 13:28:00,
2013-11-01 09:29:00,72.5,72.5,29.91,WSW,242,14.0,17.0,100,0.00,,BKN200,0.00,VWS V14.01,2013-11-01 13:29:00,
2013-11-01 09:30:00,72.5,72.5,29.89,SSW,209,17.0,17.0,100,0.00,,OVC080,0.00,VWS V14.01,2013-11-01 13:30:00,
2013-11-01 09:31:00,72.5,72.5,29.89,WSW,248,17.0,18.0,100,0.00,,OVC080,0.00,VWS V14.01,2013-11-01 13:31:00,
2013-11-01 09:32:00,72.5,72.5,29.89,SSW,203,19.0,19.0,100,0.00,,OVC080,0.00,VWS V14.01,2013-11-01 13:32:00,
2013-11-01 09:33:00,72.5,72.5,29.89,SSW,200,14.0,19.0,100,0.00,,OVC080,0.00,VWS V14.01,2013-11-01 13:33:00,
2013-11-01 09:34:00,72.7,72.7,29.91,SSW,211,15.0,15.0,100,0.00,,BKN200,0.00,VWS V14.01,2013-11-01 13:34:00,
2013-11-01 09:35:00,72.5,72.5,29.89,WSW,250,16.0,16.0,100,0.00,,OVC080,0.00,VWS V14.01,2013-11-01 13:35:00,
2013-11-01 09:36:00,72.5,72.5,29.89,SW,221,16.0,16.0,100,0.00,,OVC080,0.00,VWS V14.01,2013-11-01 13:36:00,
2013-11-01 09:37:00,72.5,72.5,29.89,SW,215,16.0,16.0,100,0.00,,OVC080,0.00,VWS V14.01,2013-11-01 13:37:00,
2013-11-01 09:38:00,72.5,72.5,29.89,SSW,211,18.0,18.0,100,0.00,,OVC080,0.00,VWS V14.01,2013-11-01 13:38:00,
2013-11-01 09:39:00,72.7,72.7,29.91,SSW,209,15.0,17.0,100,0.00,,BKN200,0.00,VWS V14.01,2013-11-01 13:39:00,
2013-11-01 09:40:00,72.5,72.5,29.90,SSW,198,12.0,18.0,100,0.00,,OVC080,0.00,VWS V14.01,2013-11-01 13:40:00,
2013-11-01 09:41:00,72.5,72.5,29.90,SW,221,19.0,19.0,100,0.00,,OVC080,0.00,VWS V14.01,2013-11-01 13:41:00,
2013-11-01 09:42:00,72.5,72.5,29.90,WSW,248,16.0,19.0,100,0.00,,OVC080,0.00,VWS V14.01,2013-11-01 13:42:00,
2013-11-01 09:43:00,72.5,72.5,29.90,WSW,252,14.0,16.0,100,0.00,,OVC080,0.00,VWS V14.01,2013-11-01 13:43:00,
2013-11-01 09:44:00,72.7,72.7,29.69,WSW,240,15.0,17.0,100,0.00,,BKN200,0.00,VWS V14.01,2013-11-01 13:44:00,
2013-11-01 09:45:00,72.5,72.5,29.90,SW,231,11.0,13.0,100,0.00,,OVC080,0.00,VWS V14.01,2013-11-01 13:45:00,
2013-11-01 09:46:00,72.5,72.5,29.90,WSW,239,6.0,16.0,100,0.00,,OVC080,0.00,VWS V14.01,2013-11-01 13:46:00,
2013-11-01 09:47:00,72.5,72.5,29.90,WSW,246,7.0,16.0,100,0.00,,OVC080,0.00,VWS V14.01,2013-11-01 13:47:00,
2013-11-01 09:48:00,72.5,72.5,29.90,SW,223,14.0,14.0,100,0.00,,OVC080,0.00,VWS V14.01,2013-11-01 13:48:00,
2013-11-01 09:49:00,72.5,72.5,29.91,SSW,195,16.0,17.0,100,0.00,,BKN200,0.00,VWS V14.01,2013-11-01 13:49:00,
2013-11-01 09:50:00,72.5,72.5,29.90,SSW,204,17.0,17.0,100,0.00,,OVC080,0.00,VWS V14.01,2013-11-01 13:50:00,
2013-11-01 09:51:00,72.5,72.5,29.90,SW,217,16.0,17.0,100,0.00,,OVC080,0.00,VWS V14.01,2013-11-01 13:51:00,
2013-11-01 09:52:00,72.5,72.5,29.89,SSW,196,16.0,20.0,100,0.00,,OVC080,0.00,VWS V14.01,2013-11-01 13:52:00,
2013-11-01 09:53:00,72.5,72.5,29.90,SW,228,16.0,16.0,100,0.00,,OVC080,0.00,VWS V14.01,2013-11-01 13:53:00,
2013-11-01 09:54:00,72.7,72.7,29.91,SW,217,16.0,16.0,100,0.00,,BKN200,0.00,VWS V14.01,2013-11-01 13:54:00,
2013-11-01 09:55:00,72.5,72.5,29.90,SSW,203,16.0,17.0,100,0.00,,OVC080,0.00,VWS V14.01,2013-11-01 13:55:00,
2013-11-01 09:56:00,72.5,72.5,29.90,SW,225,21.0,21.0,100,0.00,,OVC080,0.00,VWS V14.01,2013-11-01 13:56:00,
2013-11-01 09:57:00,72.5,72.5,29.90,SW,228,16.0,21.0,100,0.00,,OVC080,0.00,VWS V14.01,2013-11-01 13:57:00,
2013-11-01 09:58:00,72.5,72.5,29.90,South,190,16.0,16.0,100,0.00,,OVC080,0.00,VWS V14.01,2013-11-01 13:58:00,
2013-11-01 09:59:00,72.7,72.7,29.90,SW,216,14.0,17.0,100,0.00,,BKN200,0.00,VWS V14.01,2013-11-01 13:59:00,
2013-11-01 10:00:00,72.5,72.5,29.90,SSW,204,16.0,16.0,100,0.00,,OVC080,0.00,VWS V14.01,2013-11-01 14:00:00,
2013-11-01 10:01:00,72.3,72.3,29.90,SSW,198,14.0,16.0,100,0.00,,OVC080,0.00,VWS V14.01,2013-11-01 14:01:00,
2013-11-01 10:02:00,72.5,72.5,29.90,SSW,209,13.0,15.0,100,0.00,,OVC080,0.00,VWS V14.01,2013-11-01 14:02:00,
2013-11-01 10:03:00,72.5,72.5,29.90,SSW,204,15.0,17.0,100,0.00,,OVC080,0.00,VWS V14.01,2013-11-01 14:03:00,
2013-11-01 10:04:00,72.7,72.7,29.91,SW,233,13.0,17.0,100,0.00,,BKN200,0.00,VWS V14.01,2013-11-01 14:04:00,
2013-11-01 10:05:00,72.5,72.5,29.90,SSW,204,17.0,17.0,100,0.00,,OVC080,0.00,VWS V14.01,2013-11-01 14:05:00,
2013-11-01 10:06:00,72.5,72.5,29.91,SSW,209,14.0,17.0,100,0.00,,OVC080,0.00,VWS V14.01,2013-11-01 14:06:00,
2013-11-01 10:07:00,72.5,72.5,29.90,SSW,208,16.0,16.0,100,0.00,,OVC080,0.00,VWS V14.01,2013-11-01 14:07:00,
2013-11-01 10:08:00,72.5,72.5,29.91,SSW,205,13.0,16.0,100,0.00,,OVC080,0.00,VWS V14.01,2013-11-01 14:08:00,
2013-11-01 10:09:00,72.7,72.7,29.91,WSW,240,16.0,17.0,100,0.00,,BKN200,0.00,VWS V14.01,2013-11-01 14:09:00,
2013-11-01 10:10:00,72.5,72.5,29.90,SW,225,12.0,14.0,100,0.00,,OVC080,0.00,VWS V14.01,2013-11-01 14:10:00,
2013-11-01 10:11:00,72.7,72.7,29.90,SW,215,14.0,15.0,100,0.00,,OVC080,0.00,VWS V14.01,2013-11-01 14:11:00,
2013-11-01 10:12:00,72.7,72.7,29.90,SSW,207,12.0,14.0,100,0.00,,OVC080,0.00,VWS V14.01,2013-11-01 14:12:00,
2013-11-01 10:13:00,72.7,72.7,29.91,SSW,204,14.0,14.0,100,0.00,,OVC080,0.00,VWS V14.01,2013-11-01 14:13:00,
2013-11-01 10:14:00,72.7,72.7,29.91,SSW,196,10.0,13.0,100,0.00,,BKN200,0.00,VWS V14.01,2013-11-01 14:14:00,
2013-11-01 10:15:00,72.7,72.7,29.91,SSW,204,16.0,16.0,100,0.00,,OVC080,0.00,VWS V14.01,2013-11-01 14:15:00,
2013-11-01 10:16:00,72.7,72.7,29.86,SW,226,15.0,17.0,100,0.00,,OVC080,0.00,VWS V14.01,2013-11-01 14:16:00,
2013-11-01 10:17:00,72.7,72.7,29.86,SSW,213,14.0,15.0,100,0.00,,OVC080,0.00,VWS V14.01,2013-11-01 14:17:00,
2013-11-01 10:18:00,72.7,72.7,29.91,SSW,209,10.0,15.0,100,0.00,,OVC080,0.00,VWS V14.01,2013-11-01 14:18:00,
2013-11-01 10:19:00,72.7,72.7,29.91,SSW,209,14.0,14.0,100,0.00,,BKN200,0.00,VWS V14.01,2013-11-01 14:19:00,
2013-11-01 10:20:00,72.7,72.7,29.91,SSW,203,17.0,17.0,100,0.00,,OVC080,0.00,VWS V14.01,2013-11-01 14:20:00,
2013-11-01 10:21:00,72.7,72.7,29.91,SSW,200,17.0,17.0,100,0.00,,OVC080,0.00,VWS V14.01,2013-11-01 14:21:00,
2013-11-01 10:22:00,72.7,72.7,29.90,SSW,192,16.0,17.0,100,0.00,,OVC080,0.00,VWS V14.01,2013-11-01 14:22:00,
2013-11-01 10:23:00,72.7,72.7,29.91,SSW,211,15.0,18.0,100,0.00,,OVC080,0.00,VWS V14.01,2013-11-01 14:23:00,
2013-11-01 10:24:00,72.7,72.7,29.88,SSW,213,12.0,12.0,100,0.00,,BKN200,0.00,VWS V14.01,2013-11-01 14:24:00,
2013-11-01 10:25:00,72.7,72.7,29.91,SSW,197,14.0,17.0,100,0.00,,OVC080,0.00,VWS V14.01,2013-11-01 14:25:00,
2013-11-01 10:26:00,72.7,72.7,29.91,SSW,197,17.0,17.0,100,0.00,,OVC080,0.00,VWS V14.01,2013-11-01 14:26:00,
2013-11-01 10:27:00,72.5,72.5,29.91,SSW,200,11.0,19.0,100,0.00,,OVC080,0.00,VWS V14.01,2013-11-01 14:27:00,
2013-11-01 10:28:00,72.5,72.5,29.91,SSW,196,13.0,20.0,100,0.00,,OVC080,0.00,VWS V14.01,2013-11-01 14:28:00,
2013-11-01 10:29:00,72.5,72.5,29.91,SSW,198,13.0,13.0,100,0.00,,BKN200,0.00,VWS V14.01,2013-11-01 14:29:00,
2013-11-01 10:30:00,72.5,72.5,29.91,WSW,242,14.0,17.0,100,0.00,,OVC080,0.00,VWS V14.01,2013-11-01 14:30:00,
2013-11-01 10:31:00,72.7,72.7,29.91,SW,234,14.0,15.0,100,0.00,,OVC080,0.00,VWS V14.01,2013-11-01 14:31:00,
2013-11-01 10:32:00,72.7,72.7,29.91,SW,215,10.0,14.0,100,0.00,,OVC080,0.00,VWS V14.01,2013-11-01 14:32:00,
2013-11-01 10:33:00,72.7,72.7,29.91,South,190,10.0,15.0,100,0.00,,OVC080,0.00,VWS V14.01,2013-11-01 14:33:00,
2013-11-01 10:34:00,72.5,72.5,29.90,SW,219,14.0,18.0,100,0.00,,BKN200,0.00,VWS V14.01,2013-11-01 14:34:00,
2013-11-01 10:35:00,72.7,72.7,29.91,SSW,211,15.0,15.0,100,0.00,,OVC080,0.00,VWS V14.01,2013-11-01 14:35:00,
2013-11-01 10:36:00,72.7,72.7,29.91,SW,217,12.0,15.0,100,0.00,,OVC080,0.00,VWS V14.01,2013-11-01 14:36:00,
2013-11-01 10:37:00,72.7,72.7,29.91,SW,215,13.0,17.0,100,0.00,,OVC080,0.00,VWS V14.01,2013-11-01 14:37:00,
2013-11-01 10:38:00,72.7,72.7,29.91,SSW,196,13.0,18.0,100,0.00,,OVC080,0.00,VWS V14.01,2013-11-01 14:38:00,
2013-11-01 10:39:00,72.5,72.5,29.90,SSW,195,16.0,16.0,100,0.00,,BKN120,0.00,VWS V14.01,2013-11-01 14:39:00,
2013-11-01 10:40:00,72.7,72.7,29.91,SSW,209,15.0,17.0,100,0.00,,OVC080,0.00,VWS V14.01,2013-11-01 14:40:00,
2013-11-01 10:41:00,72.7,72.7,29.69,SSW,210,12.0,15.0,100,0.00,,OVC080,0.00,VWS V14.01,2013-11-01 14:41:00,
2013-11-01 10:42:00,72.7,72.7,29.69,SSW,200,15.0,15.0,100,0.00,,OVC080,0.00,VWS V14.01,2013-11-01 14:42:00,
2013-11-01 10:43:00,72.7,72.7,29.69,SW,226,15.0,17.0,100,0.00,,OVC080,0.00,VWS V14.01,2013-11-01 14:43:00,
2013-11-01 10:44:00,72.5,72.5,29.89,SSW,207,16.0,19.0,100,0.00,,BKN120,0.00,VWS V14.01,2013-11-01 14:44:00,
2013-11-01 10:45:00,72.7,72.7,29.69,WSW,240,15.0,17.0,100,0.00,,OVC080,0.00,VWS V14.01,2013-11-01 14:45:00,
2013-11-01 10:46:00,72.7,72.7,29.69,SSW,209,15.0,16.0,100,0.00,,OVC080,0.00,VWS V14.01,2013-11-01 14:46:00,
2013-11-01 10:47:00,72.5,72.5,29.69,SSW,193,13.0,17.0,100,0.00,,OVC080,0.00,VWS V14.01,2013-11-01 14:47:00,
2013-11-01 10:48:00,72.5,72.5,29.91,South,180,13.0,16.0,100,0.00,,OVC080,0.00,VWS V14.01,2013-11-01 14:48:00,
2013-11-01 10:49:00,72.3,72.3,29.90,SW,229,17.0,17.0,100,0.00,,BKN120,0.00,VWS V14.01,2013-11-01 14:49:00,
2013-11-01 10:50:00,72.5,72.5,29.91,SSW,195,16.0,17.0,100,0.00,,OVC080,0.00,VWS V14.01,2013-11-01 14:50:00,
2013-11-01 10:51:00,72.5,72.5,29.89,SW,214,13.0,16.0,100,0.00,,OVC080,0.00,VWS V14.01,2013-11-01 14:51:00,
2013-11-01 10:52:00,72.5,72.5,29.90,SSW,209,13.0,13.0,100,0.00,,OVC080,0.00,VWS V14.01,2013-11-01 14:52:00,
2013-11-01 10:53:00,72.7,72.7,29.90,South,188,11.0,13.0,100,0.00,,OVC080,0.00,VWS V14.01,2013-11-01 14:53:00,
2013-11-01 10:54:00,72.3,72.3,29.90,SSW,202,16.0,16.0,100,0.00,,BKN120,0.00,VWS V14.01,2013-11-01 14:54:00,
2013-11-01 10:55:00,72.7,72.7,29.91,SSW,210,16.0,17.0,100,0.00,,OVC080,0.00,VWS V14.01,2013-11-01 14:55:00,
2013-11-01 10:56:00,72.7,72.7,29.91,South,188,11.0,16.0,100,0.00,,OVC080,0.00,VWS V14.01,2013-11-01 14:56:00,
2013-11-01 10:57:00,72.7,72.7,29.90,SSW,196,14.0,18.0,100,0.00,,OVC080,0.00,VWS V14.01,2013-11-01 14:57:00,
2013-11-01 10:58:00,72.7,72.7,29.90,SSW,209,16.0,17.0,100,0.00,,OVC080,0.00,VWS V14.01,2013-11-01 14:58:00,
2013-11-01 10:59:00,72.3,72.3,29.90,SSW,202,12.0,16.0,100,0.00,,BKN120,0.00,VWS V14.01,2013-11-01 14:59:00,
2013-11-01 11:00:00,72.7,72.7,29.90,SW,216,14.0,17.0,100,0.00,,OVC080,0.00,VWS V14.01,2013-11-01 15:00:00,
2013-11-01 11:01:00,72.8,72.8,29.90,WSW,250,13.0,17.0,100,0.00,,OVC080,0.00,VWS V14.01,2013-11-01 15:01:00,
2013-11-01 11:02:00,72.7,72.7,29.90,SSW,208,14.0,14.0,100,0.00,,OVC080,0.00,VWS V14.01,2013-11-01 15:02:00,
2013-11-01 11:03:00,72.7,72.7,29.91,SW,226,12.0,16.0,100,0.00,,OVC080,0.00,VWS V14.01,2013-11-01 15:03:00,
2013-11-01 11:04:00,72.3,72.3,29.90,SW,223,14.0,17.0,100,0.00,,BKN120,0.00,VWS V14.01,2013-11-01 15:04:00,
2013-11-01 11:05:00,72.7,72.7,29.91,SW,233,13.0,17.0,100,0.00,,OVC080,0.00,VWS V14.01,2013-11-01 15:05:00,
2013-11-01 11:06:00,72.7,72.7,29.91,SSW,207,10.0,17.0,100,0.00,,OVC080,0.00,VWS V14.01,2013-11-01 15:06:00,
2013-11-01 11:07:00,72.8,72.8,29.91,SSW,194,14.0,15.0,100,0.00,,OVC080,0.00,VWS V14.01,2013-11-01 15:07:00,
2013-11-01 11:08:00,72.7,72.7,29.91,SSW,211,15.0,16.0,100,0.00,,OVC080,0.00,VWS V14.01,2013-11-01 15:08:00,
2013-11-01 11:09:00,72.3,72.3,29.89,SW,215,11.0,14.0,100,0.00,,BKN120,0.00,VWS V14.01,2013-11-01 15:09:00,
2013-11-01 11:10:00,72.7,72.7,29.91,WSW,240,16.0,17.0,100,0.00,,OVC080,0.00,VWS V14.01,2013-11-01 15:10:00,
2013-11-01 11:11:00,72.7,72.7,29.91,SSW,207,12.0,16.0,100,0.00,,OVC080,0.00,VWS V14.01,2013-11-01 15:11:00,
2013-11-01 11:12:00,72.7,72.7,29.89,SSW,200,15.0,16.0,100,0.00,,OVC080,0.00,VWS V14.01,2013-11-01 15:12:00,
2013-11-01 11:13:00,72.7,72.7,29.91,SSW,206,14.0,15.0,100,0.00,,OVC080,0.00,VWS V14.01,2013-11-01 15:13:00,
2013-11-01 11:14:00,72.3,72.3,29.90,SSW,197,16.0,16.0,100,0.00,,BKN120,0.00,VWS V14.01,2013-11-01 15:14:00,
2013-11-01 11:15:00,72.7,72.7,29.91,SSW,196,10.0,13.0,100,0.00,,OVC080,0.00,VWS V14.01,2013-11-01 15:15:00,
2013-11-01 11:16:00,72.7,72.7,29.91,SW,217,10.0,14.0,100,0.00,,OVC080,0.00,VWS V14.01,2013-11-01 15:16:00,
2013-11-01 11:17:00,72.7,72.7,29.91,WSW,242,13.0,13.0,100,0.00,,OVC080,0.00,VWS V14.01,2013-11-01 15:17:00,
2013-11-01 11:18:00,72.7,72.7,29.91,SSW,207,11.0,13.0,100,0.00,,OVC080,0.00,VWS V14.01,2013-11-01 15:18:00,
2013-11-01 11:19:00,72.3,72.3,29.89,SSW,204,12.0,16.0,100,0.00,,BKN120,0.00,VWS V14.01,2013-11-01 15:19:00,
2013-11-01 11:20:00,72.7,72.7,29.91,SSW,209,14.0,14.0,100,0.00,,OVC080,0.00,VWS V14.01,2013-11-01 15:20:00,
2013-11-01 11:21:00,72.7,72.7,29.91,SSW,198,13.0,14.0,100,0.00,,OVC080,0.00,VWS V14.01,2013-11-01 15:21:00,
2013-11-01 11:22:00,72.7,72.7,29.91,SW,227,7.0,14.0,100,0.00,,OVC080,0.00,VWS V14.01,2013-11-01 15:22:00,
2013-11-01 11:23:00,72.7,72.7,29.91,SW,235,7.0,13.0,100,0.00,,OVC080,0.00,VWS V14.01,2013-11-01 15:23:00,
2013-11-01 11:24:00,72.3,72.3,29.90,South,186,11.0,12.0,100,0.00,,BKN120,0.00,VWS V14.01,2013-11-01 15:24:00,
2013-11-01 11:25:00,72.7,72.7,29.88,SSW,213,12.0,12.0,100,0.00,,OVC080,0.00,VWS V14.01,2013-11-01 15:25:00,
2013-11-01 11:26:00,72.7,72.7,29.89,SSW,198,12.0,13.0,100,0.00,,OVC080,0.00,VWS V14.01,2013-11-01 15:26:00,
2013-11-01 11:27:00,72.5,72.5,29.91,SW,229,13.0,13.0,100,0.00,,OVC080,0.00,VWS V14.01,2013-11-01 15:27:00,
2013-11-01 11:28:00,72.5,72.5,29.91,SW,226,10.0,14.0,100,0.00,,OVC080,0.00,VWS V14.01,2013-11-01 15:28:00,
2013-11-01 11:29:00,72.3,72.3,29.89,SW,223,13.0,13.0,100,0.00,,BKN120,0.00,VWS V14.01,2013-11-01 15:29:00,
2013-11-01 11:30:00,72.5,72.5,29.91,SSW,198,13.0,13.0,100,0.00,,OVC080,0.00,VWS V14.01,2013-11-01 15:30:00,
2013-11-01 11:31:00,72.5,72.5,29.91,SW,214,14.0,15.0,100,0.00,,OVC080,0.00,VWS V14.01,2013-11-01 15:31:00,
2013-11-01 11:32:00,72.5,72.5,29.91,SSW,203,14.0,16.0,100,0.00,,OVC080,0.00,VWS V14.01,2013-11-01 15:32:00,
2013-11-01 11:33:00,72.5,72.5,29.91,SSW,202,17.0,18.0,100,0.00,,OVC080,0.00,VWS V14.01,2013-11-01 15:33:00,
2013-11-01 11:34:00,72.3,72.3,29.90,SSW,202,12.0,13.0,100,0.00,,BKN120,0.00,VWS V14.01,2013-11-01 15:34:00,
2013-11-01 11:35:00,72.5,72.5,29.90,SW,219,14.0,18.0,100,0.00,,OVC080,0.00,VWS V14.01,2013-11-01 15:35:00,
2013-11-01 11:36:00,72.5,72.5,29.90,SSW,198,14.0,16.0,100,0.00,,OVC080,0.00,VWS V14.01,2013-11-01 15:36:00,
2013-11-01 11:37:00,72.5,72.5,29.89,SSW,202,18.0,18.0,100,0.00,,OVC080,0.00,VWS V14.01,2013-11-01 15:37:00,
2013-11-01 11:38:00,72.5,72.5,29.90,SSW,209,11.0,18.0,100,0.00,,OVC080,0.00,VWS V14.01,2013-11-01 15:38:00,
2013-11-01 11:39:00,72.3,72.3,29.90,SSW,205,14.0,14.0,100,0.00,,OVC120,0.00,VWS V14.01,2013-11-01 15:39:00,
2013-11-01 11:40:00,72.5,72.5,29.90,SSW,195,16.0,16.0,100,0.00,,OVC080,0.00,VWS V14.01,2013-11-01 15:40:00,
2013-11-01 11:41:00,72.5,72.5,29.90,SW,223,13.0,16.0,100,0.00,,OVC080,0.00,VWS V14.01,2013-11-01 15:41:00,
2013-11-01 11:42:00,72.5,72.5,29.90,SSW,208,7.0,15.0,100,0.00,,OVC080,0.00,VWS V14.01,2013-11-01 15:42:00,
2013-11-01 11:43:00,72.5,72.5,29.90,SSW,212,14.0,14.0,100,0.00,,OVC080,0.00,VWS V14.01,2013-11-01 15:43:00,
2013-11-01 11:44:00,72.3,72.3,29.89,SSW,198,13.0,14.0,100,0.00,,OVC120,0.00,VWS V14.01,2013-11-01 15:44:00,
2013-11-01 11:45:00,72.5,72.5,29.89,SSW,207,16.0,19.0,100,0.00,,OVC080,0.00,VWS V14.01,2013-11-01 15:45:00,
2013-11-01 11:46:00,72.5,72.5,29.90,South,182,15.0,17.0,100,0.00,,OVC080,0.00,VWS V14.01,2013-11-01 15:46:00,
2013-11-01 11:47:00,72.5,72.5,29.90,SSW,202,12.0,16.0,100,0.00,,OVC080,0.00,VWS V14.01,2013-11-01 15:47:00,
2013-11-01 11:48:00,72.5,72.5,29.90,SW,225,12.0,17.0,100,0.00,,OVC080,0.00,VWS V14.01,2013-11-01 15:48:00,
2013-11-01 11:49:00,72.1,72.1,29.89,South,187,11.0,12.0,100,0.00,,OVC120,0.00,VWS V14.01,2013-11-01 15:49:00,
2013-11-01 11:50:00,72.3,72.3,29.90,SW,215,16.0,17.0,100,0.00,,OVC080,0.00,VWS V14.01,2013-11-01 15:50:00,
2013-11-01 11:51:00,72.3,72.3,29.90,SSW,195,18.0,18.0,100,0.00,,OVC080,0.00,VWS V14.01,2013-11-01 15:51:00,
2013-11-01 11:52:00,72.3,72.3,29.89,SW,221,17.0,18.0,100,0.00,,OVC080,0.00,VWS V14.01,2013-11-01 15:52:00,
2013-11-01 11:53:00,72.3,72.3,29.90,SSW,193,14.0,17.0,100,0.00,,OVC080,0.00,VWS V14.01,2013-11-01 15:53:00,
2013-11-01 11:54:00,72.1,72.1,29.89,SSW,194,10.0,12.0,100,0.00,,OVC120,0.00,VWS V14.01,2013-11-01 15:54:00,
2013-11-01 11:55:00,72.3,72.3,29.90,SSW,207,15.0,16.0,100,0.00,,OVC080,0.00,VWS V14.01,2013-11-01 15:55:00,
2013-11-01 11:56:00,72.3,72.3,29.90,SW,219,13.0,15.0,100,0.00,,OVC080,0.00,VWS V14.01,2013-11-01 15:56:00,
2013-11-01 11:57:00,72.3,72.3,29.90,South,182,13.0,15.0,100,0.00,,OVC080,0.00,VWS V14.01,2013-11-01 15:57:00,
2013-11-01 11:58:00,72.3,72.3,29.90,SSW,209,17.0,17.0,100,0.00,,OVC080,0.00,VWS V14.01,2013-11-01 15:58:00,
2013-11-01 11:59:00,72.1,72.1,29.89,South,169,12.0,12.0,100,0.00,,OVC120,0.00,VWS V14.01,2013-11-01 15:59:00,
2013-11-01 12:00:00,72.3,72.3,29.90,SSW,209,15.0,16.0,100,0.00,,OVC080,0.00,VWS V14.01,2013-11-01 16:00:00,
2013-11-01 12:01:00,72.3,72.3,29.90,SSW,196,16.0,16.0,100,0.00,,OVC080,0.00,VWS V14.01,2013-11-01 16:01:00,
2013-11-01 12:02:00,72.3,72.3,29.90,SW,217,16.0,16.0,100,0.00,,OVC080,0.00,VWS V14.01,2013-11-01 16:02:00,
2013-11-01 12:03:00,72.3,72.3,29.90,SW,214,13.0,16.0,100,0.00,,OVC080,0.00,VWS V14.01,2013-11-01 16:03:00,
2013-11-01 12:04:00,72.3,72.3,29.87,SSE,155,11.0,14.0,100,0.00,,OVC120,0.00,VWS V14.01,2013-11-01 16:04:00,
2013-11-01 12:05:00,72.3,72.3,29.90,SW,223,14.0,17.0,100,0.00,,OVC080,0.00,VWS V14.01,2013-11-01 16:05:00,
2013-11-01 12:06:00,72.3,72.3,29.90,SSW,203,13.0,15.0,100,0.00,,OVC080,0.00,VWS V14.01,2013-11-01 16:06:00,
2013-11-01 12:07:00,72.3,72.3,29.89,SSW,209,12.0,14.0,100,0.00,,OVC080,0.00,VWS V14.01,2013-11-01 16:07:00,
2013-11-01 12:08:00,72.3,72.3,29.90,SW,217,10.0,15.0,100,0.00,,OVC080,0.00,VWS V14.01,2013-11-01 16:08:00,
2013-11-01 12:09:00,72.3,72.3,29.87,SE,144,12.0,15.0,100,0.00,,OVC120,0.00,VWS V14.01,2013-11-01 16:09:00,
2013-11-01 12:10:00,72.3,72.3,29.89,SW,215,11.0,14.0,100,0.00,,OVC080,0.00,VWS V14.01,2013-11-01 16:10:00,
2013-11-01 12:11:00,72.3,72.3,29.90,WSW,244,13.0,15.0,100,0.00,,OVC080,0.00,VWS V14.01,2013-11-01 16:11:00,
2013-11-01 12:12:00,72.3,72.3,29.90,SSW,193,14.0,16.0,100,0.00,,OVC080,0.00,VWS V14.01,2013-11-01 16:12:00,
2013-11-01 12:13:00,72.3,72.3,29.90,SSW,211,15.0,16.0,100,0.00,,OVC080,0.00,VWS V14.01,2013-11-01 16:13:00,
2013-11-01 12:14:00,72.3,72.3,29.86,SSE,163,9.0,15.0,100,0.00,,OVC120,0.00,VWS V14.01,2013-11-01 16:14:00,
2013-11-01 12:15:00,72.3,72.3,29.90,SSW,197,16.0,16.0,100,0.00,,OVC080,0.00,VWS V14.01,2013-11-01 16:15:00,
2013-11-01 12:16:00,72.3,72.3,29.90,SSW,204,14.0,16.0,100,0.00,,OVC080,0.00,VWS V14.01,2013-11-01 16:16:00,
2013-11-01 12:17:00,72.3,72.3,29.90,SSW,212,17.0,17.0,100,0.00,,OVC080,0.00,VWS V14.01,2013-11-01 16:17:00,
2013-11-01 12:18:00,72.3,72.3,29.89,SSW,202,13.0,17.0,100,0.00,,OVC080,0.00,VWS V14.01,2013-11-01 16:18:00,
2013-11-01 12:19:00,72.5,72.5,29.87,South,178,11.0,17.0,100,0.00,,OVC120,0.00,VWS V14.01,2013-11-01 16:19:00,
2013-11-01 12:20:00,72.3,72.3,29.89,SSW,204,12.0,16.0,100,0.00,,OVC080,0.00,VWS V14.01,2013-11-01 16:20:00,
2013-11-01 12:21:00,72.3,72.3,29.89,SW,225,16.0,16.0,100,0.00,,OVC080,0.00,VWS V14.01,2013-11-01 16:21:00,
2013-11-01 12:22:00,72.3,72.3,29.90,SW,217,12.0,16.0,100,0.00,,OVC080,0.00,VWS V14.01,2013-11-01 16:22:00,
2013-11-01 12:23:00,72.3,72.3,29.89,SSW,205,11.0,15.0,100,0.00,,OVC080,0.00,VWS V14.01,2013-11-01 16:23:00,
2013-11-01 12:24:00,72.5,72.5,29.87,South,180,15.0,15.0,100,0.00,,OVC120,0.00,VWS V14.01,2013-11-01 16:24:00,
2013-11-01 12:25:00,72.3,72.3,29.90,SSW,213,12.0,12.0,100,0.00,,OVC080,0.00,VWS V14.01,2013-11-01 16:25:00,
2013-11-01 12:26:00,72.3,72.3,29.90,SSW,205,7.0,12.0,100,0.00,,OVC080,0.00,VWS V14.01,2013-11-01 16:26:00,
2013-11-01 12:27:00,72.3,72.3,29.90,SW,220,18.0,18.0,100,0.00,,OVC080,0.00,VWS V14.01,2013-11-01 16:27:00,
2013-11-01 12:28:00,72.3,72.3,29.90,SSW,207,14.0,18.0,100,0.00,,OVC080,0.00,VWS V14.01,2013-11-01 16:28:00,
2013-11-01 12:29:00,72.5,72.5,29.87,South,184,17.0,17.0,100,0.00,,OVC120,0.00,VWS V14.01,2013-11-01 16:29:00,
2013-11-01 12:30:00,72.3,72.3,29.89,SW,223,13.0,13.0,100,0.00,,OVC080,0.00,VWS V14.01,2013-11-01 16:30:00,
2013-11-01 12:31:00,72.3,72.3,29.90,SSW,203,11.0,15.0,100,0.00,,OVC080,0.00,VWS V14.01,2013-11-01 16:31:00,
2013-11-01 12:32:00,72.3,72.3,29.90,SSW,207,15.0,15.0,100,0.00,,OVC080,0.00,VWS V14.01,2013-11-01 16:32:00,
2013-11-01 12:33:00,72.3,72.3,29.90,SSW,209,12.0,15.0,100,0.00,,OVC080,0.00,VWS V14.01,2013-11-01 16:33:00,
2013-11-01 12:34:00,72.5,72.5,29.87,SSW,198,14.0,14.0,100,0.00,,OVC120,0.00,VWS V14.01,2013-11-01 16:34:00,
2013-11-01 12:35:00,72.3,72.3,29.90,SSW,202,12.0,13.0,100,0.00,,OVC080,0.00,VWS V14.01,2013-11-01 16:35:00,
2013-11-01 12:36:00,72.3,72.3,29.90,WSW,247,7.0,12.0,100,0.00,,OVC080,0.00,VWS V14.01,2013-11-01 16:36:00,
2013-11-01 12:37:00,72.3,72.3,29.90,SW,222,5.0,11.0,100,0.00,,OVC080,0.00,VWS V14.01,2013-11-01 16:37:00,
2013-11-01 12:38:00,72.3,72.3,29.90,SSW,203,11.0,12.0,100,0.00,,OVC080,0.00,VWS V14.01,2013-11-01 16:38:00,
2013-11-01 12:39:00,72.5,72.5,29.87,SSW,196,14.0,14.0,100,0.00,,BKN200,0.00,VWS V14.01,2013-11-01 16:39:00,
2013-11-01 12:40:00,72.3,72.3,29.90,SSW,205,14.0,14.0,100,0.00,,OVC080,0.00,VWS V14.01,2013-11-01 16:40:00,
2013-11-01 12:41:00,72.3,72.3,29.90,SW,225,12.0,15.0,100,0.00,,OVC080,0.00,VWS V14.01,2013-11-01 16:41:00,
2013-11-01 12:42:00,72.3,72.3,29.90,SSW,211,12.0,13.0,100,0.00,,OVC080,0.00,VWS V14.01,2013-11-01 16:42:00,
2013-11-01 12:43:00,72.3,72.3,29.89,SSW,194,12.0,14.0,100,0.00,,OVC080,0.00,VWS V14.01,2013-11-01 16:43:00,
2013-11-01 12:44:00,72.5,72.5,29.86,South,176,10.0,14.0,100,0.00,,BKN200,0.00,VWS V14.01,2013-11-01 16:44:00,
2013-11-01 12:45:00,72.3,72.3,29.89,SSW,198,13.0,14.0,100,0.00,,OVC080,0.00,VWS V14.01,2013-11-01 16:45:00,
2013-11-01 12:46:00,72.1,72.1,29.89,SW,220,9.0,15.0,100,0.00,,OVC080,0.00,VWS V14.01,2013-11-01 16:46:00,
2013-11-01 12:47:00,72.1,72.1,29.89,South,186,14.0,14.0,100,0.00,,OVC080,0.00,VWS V14.01,2013-11-01 16:47:00,
2013-11-01 12:48:00,72.1,72.1,29.89,SW,216,12.0,14.0,100,0.00,,OVC080,0.00,VWS V14.01,2013-11-01 16:48:00,
2013-11-01 12:49:00,72.5,72.5,29.86,South,189,11.0,16.0,100,0.00,,BKN200,0.00,VWS V14.01,2013-11-01 16:49:00,
2013-11-01 12:50:00,72.1,72.1,29.89,SW,231,10.0,12.0,100,0.00,,OVC080,0.00,VWS V14.01,2013-11-01 16:50:00,
2013-11-01 12:51:00,72.1,72.1,29.89,SSW,212,16.0,16.0,100,0.00,,OVC080,0.00,VWS V14.01,2013-11-01 16:51:00,
2013-11-01 12:52:00,72.1,72.1,29.89,SW,216,11.0,16.0,100,0.00,,OVC080,0.00,VWS V14.01,2013-11-01 16:52:00,
2013-11-01 12:53:00,72.1,72.1,29.89,SSW,205,6.0,14.0,100,0.00,,OVC080,0.00,VWS V14.01,2013-11-01 16:53:00,
2013-11-01 12:54:00,72.5,72.5,29.86,South,179,12.0,13.0,100,0.00,,BKN200,0.00,VWS V14.01,2013-11-01 16:54:00,
2013-11-01 12:55:00,72.1,72.1,29.89,South,178,11.0,12.0,100,0.00,,OVC080,0.00,VWS V14.01,2013-11-01 16:55:00,
2013-11-01 12:56:00,72.1,72.1,29.89,SW,233,10.0,12.0,100,0.00,,OVC080,0.00,VWS V14.01,2013-11-01 16:56:00,
2013-11-01 12:57:00,72.1,72.1,29.89,SSW,207,13.0,13.0,100,0.00,,OVC080,0.00,VWS V14.01,2013-11-01 16:57:00,
2013-11-01 12:58:00,72.1,72.1,29.89,South,171,10.0,13.0,100,0.00,,OVC080,0.00,VWS V14.01,2013-11-01 16:58:00,
2013-11-01 12:59:00,72.5,72.5,29.85,SSW,207,11.0,12.0,100,0.00,,BKN200,0.00,VWS V14.01,2013-11-01 16:59:00,
2013-11-01 13:00:00,72.1,72.1,29.89,South,186,12.0,12.0,100,0.00,,OVC080,0.00,VWS V14.01,2013-11-01 17:00:00,
2013-11-01 13:01:00,72.1,72.1,29.86,SSE,167,13.0,15.0,100,0.00,,OVC080,0.00,VWS V14.01,2013-11-01 17:01:00,
2013-11-01 13:02:00,72.1,72.1,29.86,South,184,11.0,16.0,100,0.00,,OVC080,0.00,VWS V14.01,2013-11-01 17:02:00,
2013-11-01 13:03:00,72.1,72.1,29.88,South,171,10.0,15.0,100,0.00,,OVC080,0.00,VWS V14.01,2013-11-01 17:03:00,
2013-11-01 13:04:00,72.3,72.3,29.81,South,182,15.0,15.0,100,0.00,,BKN200,0.00,VWS V14.01,2013-11-01 17:04:00,
2013-11-01 13:05:00,72.3,72.3,29.87,SSE,157,12.0,14.0,100,0.00,,OVC080,0.00,VWS V14.01,2013-11-01 17:05:00,
2013-11-01 13:06:00,72.3,72.3,29.87,South,170,10.0,15.0,100,0.00,,OVC080,0.00,VWS V14.01,2013-11-01 17:06:00,
2013-11-01 13:07:00,72.3,72.3,29.87,SSE,158,15.0,17.0,100,0.00,,OVC080,0.00,VWS V14.01,2013-11-01 17:07:00,
2013-11-01 13:08:00,72.3,72.3,29.87,SE,138,12.0,15.0,100,0.00,,OVC080,0.00,VWS V14.01,2013-11-01 17:08:00,
2013-11-01 13:09:00,72.5,72.5,29.84,South,181,15.0,15.0,100,0.00,,BKN200,0.00,VWS V14.01,2013-11-01 17:09:00,
2013-11-01 13:10:00,72.3,72.3,29.87,SSE,159,10.0,15.0,100,0.00,,OVC080,0.00,VWS V14.01,2013-11-01 17:10:00,
2013-11-01 13:11:00,72.3,72.3,29.87,South,189,15.0,15.0,100,0.00,,OVC080,0.00,VWS V14.01,2013-11-01 17:11:00,
2013-11-01 13:12:00,72.3,72.3,29.87,SSE,159,16.0,16.0,100,0.00,,OVC080,0.00,VWS V14.01,2013-11-01 17:12:00,
2013-11-01 13:13:00,72.3,72.3,29.87,SSE,160,11.0,16.0,100,0.00,,OVC080,0.00,VWS V14.01,2013-11-01 17:13:00,
2013-11-01 13:14:00,72.7,72.7,29.84,SSW,208,10.0,10.0,100,0.00,,BKN200,0.00,VWS V14.01,2013-11-01 17:14:00,
2013-11-01 13:15:00,72.3,72.3,29.86,SSE,157,13.0,15.0,100,0.00,,OVC080,0.00,VWS V14.01,2013-11-01 17:15:00,
2013-11-01 13:16:00,72.5,72.5,29.86,SSE,156,12.0,16.0,100,0.00,,OVC080,0.00,VWS V14.01,2013-11-01 17:16:00,
2013-11-01 13:17:00,72.5,72.5,29.86,South,175,12.0,13.0,100,0.00,,OVC080,0.00,VWS V14.01,2013-11-01 17:17:00,
2013-11-01 13:18:00,72.5,72.5,29.86,SSE,167,13.0,13.0,100,0.00,,OVC080,0.00,VWS V14.01,2013-11-01 17:18:00,
2013-11-01 13:19:00,72.8,72.8,29.53,SSW,205,10.0,12.0,100,0.00,,BKN200,0.00,VWS V14.01,2013-11-01 17:19:00,
2013-11-01 13:20:00,72.5,72.5,29.87,South,178,11.0,17.0,100,0.00,,OVC080,0.00,VWS V14.01,2013-11-01 17:20:00,
2013-11-01 13:21:00,72.5,72.5,29.87,South,179,12.0,17.0,100,0.00,,OVC080,0.00,VWS V14.01,2013-11-01 17:21:00,
2013-11-01 13:22:00,72.5,72.5,29.86,South,176,16.0,16.0,100,0.00,,OVC080,0.00,VWS V14.01,2013-11-01 17:22:00,
2013-11-01 13:23:00,72.5,72.5,29.87,South,179,11.0,16.0,100,0.00,,OVC080,0.00,VWS V14.01,2013-11-01 17:23:00,
2013-11-01 13:24:00,73.0,73.0,29.84,SW,215,12.0,14.0,100,0.00,,BKN200,0.00,VWS V14.01,2013-11-01 17:24:00,
2013-11-01 13:25:00,72.5,72.5,29.87,South,180,15.0,15.0,100,0.00,,OVC080,0.00,VWS V14.01,2013-11-01 17:25:00,
2013-11-01 13:26:00,72.5,72.5,29.87,South,190,14.0,15.0,100,0.00,,OVC080,0.00,VWS V14.01,2013-11-01 17:26:00,
2013-11-01 13:27:00,72.5,72.5,29.87,South,186,15.0,15.0,100,0.00,,OVC080,0.00,VWS V14.01,2013-11-01 17:27:00,
2013-11-01 13:28:00,72.5,72.5,29.87,SSW,194,13.0,15.0,100,0.00,,OVC080,0.00,VWS V14.01,2013-11-01 17:28:00,
2013-11-01 13:29:00,73.0,73.0,29.84,SSW,198,12.0,12.0,100,0.00,,BKN200,0.00,VWS V14.01,2013-11-01 17:29:00,
2013-11-01 13:30:00,72.5,72.5,29.87,South,185,17.0,17.0,100,0.00,,OVC080,0.00,VWS V14.01,2013-11-01 17:30:00,
2013-11-01 13:31:00,72.5,72.5,29.87,SSE,167,13.0,17.0,100,0.00,,OVC080,0.00,VWS V14.01,2013-11-01 17:31:00,
2013-11-01 13:32:00,72.5,72.5,29.87,South,184,14.0,14.0,100,0.00,,OVC080,0.00,VWS V14.01,2013-11-01 17:32:00,
2013-11-01 13:33:00,72.5,72.5,29.84,South,183,12.0,16.0,100,0.00,,OVC080,0.00,VWS V14.01,2013-11-01 17:33:00,
2013-11-01 13:34:00,73.0,73.0,29.84,SSW,202,13.0,13.0,100,0.00,,BKN200,0.00,VWS V14.01,2013-11-01 17:34:00,
2013-11-01 13:35:00,72.5,72.5,29.87,South,190,13.0,14.0,100,0.00,,OVC080,0.00,VWS V14.01,2013-11-01 17:35:00,
2013-11-01 13:36:00,72.5,72.5,29.87,SSW,194,12.0,13.0,100,0.00,,OVC080,0.00,VWS V14.01,2013-11-01 17:36:00,
2013-11-01 13:37:00,72.5,72.5,29.86,SSE,153,10.0,15.0,100,0.00,,OVC080,0.00,VWS V14.01,2013-11-01 17:37:00,
2013-11-01 13:38:00,72.5,72.5,29.87,SSW,197,13.0,13.0,100,0.00,,OVC080,0.00,VWS V14.01,2013-11-01 17:38:00,
2013-11-01 13:39:00,73.2,73.2,29.83,South,187,13.0,15.0,100,0.00,,BKN200,0.00,VWS V14.01,2013-11-01 17:39:00,
2013-11-01 13:40:00,72.5,72.5,29.87,South,180,12.0,14.0,100,0.00,,OVC080,0.00,VWS V14.01,2013-11-01 17:40:00,
2013-11-01 13:41:00,72.5,72.5,29.86,SSW,192,13.0,15.0,100,0.00,,OVC080,0.00,VWS V14.01,2013-11-01 17:41:00,
2013-11-01 13:42:00,72.5,72.5,29.87,South,178,15.0,15.0,100,0.00,,OVC080,0.00,VWS V14.01,2013-11-01 17:42:00,
2013-11-01 13:43:00,72.5,72.5,29.86,South,189,13.0,15.0,100,0.00,,OVC080,0.00,VWS V14.01,2013-11-01 17:43:00,
2013-11-01 13:44:00,73.0,73.0,29.83,SSW,200,11.0,14.0,100,0.00,,BKN200,0.00,VWS V14.01,2013-11-01 17:44:00,
2013-11-01 13:45:00,72.5,72.5,29.86,SSE,168,16.0,16.0,100,0.00,,OVC080,0.00,VWS V14.01,2013-11-01 17:45:00,
2013-11-01 13:46:00,72.5,72.5,29.86,South,190,12.0,16.0,100,0.00,,OVC080,0.00,VWS V14.01,2013-11-01 17:46:00,
2013-11-01 13:47:00,72.5,72.5,29.86,South,180,13.0,14.0,100,0.00,,OVC080,0.00,VWS V14.01,2013-11-01 17:47:00,
2013-11-01 13:48:00,72.5,72.5,29.86,South,179,13.0,13.0,100,0.00,,OVC080,0.00,VWS V14.01,2013-11-01 17:48:00,
2013-11-01 13:49:00,73.0,73.0,29.83,SSW,204,10.0,13.0,100,0.00,,BKN200,0.00,VWS V14.01,2013-11-01 17:49:00,
2013-11-01 13:50:00,72.5,72.5,29.86,South,187,12.0,16.0,100,0.00,,OVC080,0.00,VWS V14.01,2013-11-01 17:50:00,
2013-11-01 13:51:00,72.5,72.5,29.86,SSW,198,10.0,12.0,100,0.00,,OVC080,0.00,VWS V14.01,2013-11-01 17:51:00,
2013-11-01 13:52:00,72.5,72.5,29.86,South,169,10.0,12.0,100,0.00,,OVC080,0.00,VWS V14.01,2013-11-01 17:52:00,
2013-11-01 13:53:00,72.5,72.5,29.86,SSW,194,15.0,15.0,100,0.00,,OVC080,0.00,VWS V14.01,2013-11-01 17:53:00,
2013-11-01 13:54:00,73.0,73.0,29.75,South,169,12.0,13.0,100,0.00,,BKN200,0.00,VWS V14.01,2013-11-01 17:54:00,
2013-11-01 13:55:00,72.5,72.5,29.86,South,179,12.0,13.0,100,0.00,,OVC080,0.00,VWS V14.01,2013-11-01 17:55:00,
2013-11-01 13:56:00,72.5,72.5,29.86,South,184,10.0,12.0,100,0.00,,OVC080,0.00,VWS V14.01,2013-11-01 17:56:00,
2013-11-01 13:57:00,72.5,72.5,29.86,SSE,159,11.0,13.0,100,0.00,,OVC080,0.00,VWS V14.01,2013-11-01 17:57:00,
2013-11-01 13:58:00,72.5,72.5,29.86,SSE,168,11.0,13.0,100,0.00,,OVC080,0.00,VWS V14.01,2013-11-01 17:58:00,
2013-11-01 13:59:00,73.0,73.0,29.81,SSW,206,11.0,12.0,100,0.00,,BKN200,0.00,VWS V14.01,2013-11-01 17:59:00,
2013-11-01 14:00:00,72.5,72.5,29.85,SW,219,11.0,12.0,100,0.00,,OVC080,0.00,VWS V14.01,2013-11-01 18:00:00,
2013-11-01 14:01:00,72.5,72.5,29.85,SSW,198,12.0,12.0,100,0.00,,OVC080,0.00,VWS V14.01,2013-11-01 18:01:00,
2013-11-01 14:02:00,72.5,72.5,29.85,South,180,16.0,16.0,100,0.00,,OVC080,0.00,VWS V14.01,2013-11-01 18:02:00,
2013-11-01 14:03:00,72.3,72.3,29.85,South,176,16.0,16.0,100,0.00,,OVC080,0.00,VWS V14.01,2013-11-01 18:03:00,
2013-11-01 14:04:00,73.3,73.3,29.81,SSE,167,10.0,11.0,100,0.00,,BKN200,0.00,VWS V14.01,2013-11-01 18:04:00,
2013-11-01 14:05:00,72.3,72.3,29.81,South,178,11.0,15.0,100,0.00,,OVC080,0.00,VWS V14.01,2013-11-01 18:05:00,
2013-11-01 14:06:00,72.3,72.3,29.84,SSE,163,11.0,14.0,100,0.00,,OVC080,0.00,VWS V14.01,2013-11-01 18:06:00,
2013-11-01 14:07:00,72.5,72.5,29.84,South,173,12.0,15.0,100,0.00,,OVC080,0.00,VWS V14.01,2013-11-01 18:07:00,
2013-11-01 14:08:00,72.5,72.5,29.83,South,182,14.0,15.0,100,0.00,,OVC080,0.00,VWS V14.01,2013-11-01 18:08:00,
2013-11-01 14:09:00,73.7,73.7,29.81,South,179,12.0,12.0,100,0.00,,BKN200,0.00,VWS V14.01,2013-11-01 18:09:00,
2013-11-01 14:10:00,72.5,72.5,29.84,South,185,11.0,15.0,100,0.00,,OVC080,0.00,VWS V14.01,2013-11-01 18:10:00,
2013-11-01 14:11:00,72.5,72.5,29.84,South,173,13.0,13.0,100,0.00,,OVC080,0.00,VWS V14.01,2013-11-01 18:11:00,
2013-11-01 14:12:00,72.5,72.5,29.84,South,179,12.0,13.0,100,0.00,,OVC080,0.00,VWS V14.01,2013-11-01 18:12:00,
2013-11-01 14:13:00,72.5,72.5,29.84,SSW,195,12.0,12.0,100,0.00,,OVC080,0.00,VWS V14.01,2013-11-01 18:13:00,
2013-11-01 14:14:00,73.7,73.7,29.81,SSW,204,12.0,14.0,100,0.00,,BKN200,0.00,VWS V14.01,2013-11-01 18:14:00,
2013-11-01 14:15:00,72.7,72.7,29.84,South,186,12.0,12.0,100,0.00,,OVC080,0.00,VWS V14.01,2013-11-01 18:15:00,
2013-11-01 14:16:00,72.7,72.7,29.84,South,178,10.0,12.0,100,0.00,,OVC080,0.00,VWS V14.01,2013-11-01 18:16:00,
2013-11-01 14:17:00,72.7,72.7,29.84,SW,219,13.0,13.0,100,0.00,,OVC080,0.00,VWS V14.01,2013-11-01 18:17:00,
2013-11-01 14:18:00,72.8,72.8,29.84,SSW,192,11.0,13.0,100,0.00,,OVC080,0.00,VWS V14.01,2013-11-01 18:18:00,
2013-11-01 14:19:00,73.7,73.7,29.81,WSW,240,14.0,14.0,100,0.00,,BKN200,0.00,VWS V14.01,2013-11-01 18:19:00,
2013-11-01 14:20:00,72.8,72.8,29.53,SSW,205,10.0,12.0,100,0.00,,OVC080,0.00,VWS V14.01,2013-11-01 18:20:00,
2013-11-01 14:21:00,72.8,72.8,29.49,SW,214,12.0,12.0,100,0.00,,OVC080,0.00,VWS V14.01,2013-11-01 18:21:00,
2013-11-01 14:22:00,72.8,72.8,29.49,SSW,211,11.0,12.0,100,0.00,,OVC080,0.00,VWS V14.01,2013-11-01 18:22:00,
2013-11-01 14:23:00,72.8,72.8,29.49,SW,221,11.0,16.0,100,0.00,,OVC080,0.00,VWS V14.01,2013-11-01 18:23:00,
2013-11-01 14:24:00,73.5,73.5,29.80,SSW,200,10.0,14.0,100,0.00,,BKN200,0.00,VWS V14.01,2013-11-01 18:24:00,
2013-11-01 14:25:00,73.0,73.0,29.84,SW,215,12.0,14.0,100,0.00,,OVC080,0.00,VWS V14.01,2013-11-01 18:25:00,
2013-11-01 14:26:00,73.0,73.0,29.83,SSW,195,12.0,13.0,100,0.00,,OVC080,0.00,VWS V14.01,2013-11-01 18:26:00,
2013-11-01 14:27:00,73.0,73.0,29.84,SSW,200,13.0,13.0,100,0.00,,OVC080,0.00,VWS V14.01,2013-11-01 18:27:00,
2013-11-01 14:28:00,73.0,73.0,29.84,South,169,11.0,16.0,100,0.00,,OVC080,0.00,VWS V14.01,2013-11-01 18:28:00,
2013-11-01 14:29:00,73.5,73.5,29.81,SSW,213,14.0,15.0,100,0.00,,BKN200,0.00,VWS V14.01,2013-11-01 18:29:00,
2013-11-01 14:30:00,73.0,73.0,29.84,SSW,209,12.0,12.0,100,0.00,,OVC080,0.00,VWS V14.01,2013-11-01 18:30:00,
2013-11-01 14:31:00,73.0,73.0,29.83,SSW,196,10.0,12.0,100,0.00,,OVC080,0.00,VWS V14.01,2013-11-01 18:31:00,
2013-11-01 14:32:00,73.0,73.0,29.84,SW,217,9.0,12.0,100,0.00,,OVC080,0.00,VWS V14.01,2013-11-01 18:32:00,
2013-11-01 14:33:00,73.0,73.0,29.84,SSW,201,7.0,13.0,100,0.00,,OVC080,0.00,VWS V14.01,2013-11-01 18:33:00,
2013-11-01 14:34:00,73.3,73.3,29.80,SW,219,13.0,13.0,100,0.00,,BKN200,0.00,VWS V14.01,2013-11-01 18:34:00,
2013-11-01 14:35:00,73.0,73.0,29.84,SW,218,12.0,13.0,100,0.00,,OVC080,0.00,VWS V14.01,2013-11-01 18:35:00,
2013-11-01 14:36:00,73.2,73.2,29.84,SSW,194,13.0,13.0,100,0.00,,OVC080,0.00,VWS V14.01,2013-11-01 18:36:00,
2013-11-01 14:37:00,73.2,73.2,29.84,SW,233,13.0,15.0,100,0.00,,OVC080,0.00,VWS V14.01,2013-11-01 18:37:00,
2013-11-01 14:38:00,73.2,73.2,29.53,SW,221,14.0,16.0,100,0.00,,OVC080,0.00,VWS V14.01,2013-11-01 18:38:00,
2013-11-01 14:39:00,73.5,73.5,29.80,SSW,192,10.0,10.0,100,0.00,,BKN120,0.00,VWS V14.01,2013-11-01 18:39:00,
2013-11-01 14:40:00,73.2,73.2,29.83,SW,229,13.0,15.0,100,0.00,,OVC080,0.00,VWS V14.01,2013-11-01 18:40:00,
2013-11-01 14:41:00,73.0,73.0,29.83,SSW,203,12.0,16.0,100,0.00,,OVC080,0.00,VWS V14.01,2013-11-01 18:41:00,
2013-11-01 14:42:00,73.0,73.0,29.83,SSW,206,15.0,15.0,100,0.00,,OVC080,0.00,VWS V14.01,2013-11-01 18:42:00,
2013-11-01 14:43:00,73.0,73.0,29.83,SW,215,12.0,15.0,100,0.00,,OVC080,0.00,VWS V14.01,2013-11-01 18:43:00,
2013-11-01 14:44:00,73.7,73.7,29.80,SSW,201,10.0,11.0,100,0.00,,BKN120,0.00,VWS V14.01,2013-11-01 18:44:00,
2013-11-01 14:45:00,73.0,73.0,29.83,SSW,195,11.0,14.0,100,0.00,,OVC080,0.00,VWS V14.01,2013-11-01 18:45:00,
2013-11-01 14:46:00,73.0,73.0,29.83,SSW,199,14.0,14.0,100,0.00,,OVC080,0.00,VWS V14.01,2013-11-01 18:46:00,
2013-11-01 14:47:00,73.0,73.0,29.83,SSW,203,11.0,14.0,100,0.00,,OVC080,0.00,VWS V14.01,2013-11-01 18:47:00,
2013-11-01 14:48:00,73.0,73.0,29.83,South,182,10.0,12.0,100,0.00,,OVC080,0.00,VWS V14.01,2013-11-01 18:48:00,
2013-11-01 14:49:00,73.7,73.7,29.78,South,184,12.0,12.0,100,0.00,,BKN120,0.00,VWS V14.01,2013-11-01 18:49:00,
2013-11-01 14:50:00,73.0,73.0,29.83,SW,215,10.0,13.0,100,0.00,,OVC080,0.00,VWS V14.01,2013-11-01 18:50:00,
2013-11-01 14:51:00,73.0,73.0,29.75,SW,215,10.0,10.0,100,0.00,,OVC080,0.00,VWS V14.01,2013-11-01 18:51:00,
2013-11-01 14:52:00,73.0,73.0,29.75,SSW,208,6.0,10.0,100,0.00,,OVC080,0.00,VWS V14.01,2013-11-01 18:52:00,
2013-11-01 14:53:00,73.0,73.0,29.76,South,188,12.0,12.0,100,0.00,,OVC080,0.00,VWS V14.01,2013-11-01 18:53:00,
2013-11-01 14:54:00,73.7,73.7,29.79,South,181,16.0,16.0,100,0.00,,BKN120,0.00,VWS V14.01,2013-11-01 18:54:00,
2013-11-01 14:55:00,73.0,73.0,29.75,SW,215,9.0,13.0,100,0.00,,OVC080,0.00,VWS V14.01,2013-11-01 18:55:00,
2013-11-01 14:56:00,73.0,73.0,29.78,SW,230,13.0,16.0,100,0.00,,OVC080,0.00,VWS V14.01,2013-11-01 18:56:00,
2013-11-01 14:57:00,73.0,73.0,29.78,SSE,163,13.0,16.0,100,0.00,,OVC080,0.00,VWS V14.01,2013-11-01 18:57:00,
2013-11-01 14:58:00,73.0,73.0,29.81,SSW,212,13.0,13.0,100,0.00,,OVC080,0.00,VWS V14.01,2013-11-01 18:58:00,
2013-11-01 14:59:00,73.9,73.9,29.78,South,171,13.0,13.0,100,0.00,,BKN120,0.00,VWS V14.01,2013-11-01 18:59:00,
2013-11-01 15:00:00,73.2,73.2,29.81,SSW,213,11.0,12.0,100,0.00,,OVC080,0.00,VWS V14.01,2013-11-01 19:00:00,
2013-11-01 15:01:00,73.2,73.2,29.82,SSW,198,10.0,11.0,100,0.00,,OVC080,0.00,VWS V14.01,2013-11-01 19:01:00,
2013-11-01 15:02:00,73.3,73.3,29.81,South,182,11.0,15.0,100,0.00,,OVC080,0.00,VWS V14.01,2013-11-01 19:02:00,
2013-11-01 15:03:00,73.3,73.3,29.81,South,189,13.0,15.0,100,0.00,,OVC080,0.00,VWS V14.01,2013-11-01 19:03:00,
2013-11-01 15:04:00,73.9,73.9,29.76,SSE,159,12.0,13.0,100,0.00,,BKN120,0.00,VWS V14.01,2013-11-01 19:04:00,
2013-11-01 15:05:00,73.5,73.5,29.81,SSW,209,10.0,11.0,100,0.00,,OVC080,0.00,VWS V14.01,2013-11-01 19:05:00,
2013-11-01 15:06:00,73.5,73.5,29.81,SSW,209,13.0,13.0,100,0.00,,OVC080,0.00,VWS V14.01,2013-11-01 19:06:00,
2013-11-01 15:07:00,73.5,73.5,29.81,SSW,198,11.0,13.0,100,0.00,,OVC080,0.00,VWS V14.01,2013-11-01 19:07:00,
2013-11-01 15:08:00,73.7,73.7,29.81,South,186,11.0,11.0,100,0.00,,OVC080,0.00,VWS V14.01,2013-11-01 19:08:00,
2013-11-01 15:09:00,73.9,73.9,29.76,South,173,13.0,15.0,100,0.00,,BKN120,0.00,VWS V14.01,2013-11-01 19:09:00,
2013-11-01 15:10:00,73.7,73.7,29.81,SW,225,14.0,14.0,100,0.00,,OVC080,0.00,VWS V14.01,2013-11-01 19:10:00,
2013-11-01 15:11:00,73.7,73.7,29.81,SSW,206,13.0,14.0,100,0.00,,OVC080,0.00,VWS V14.01,2013-11-01 19:11:00,
2013-11-01 15:12:00,73.7,73.7,29.81,SSW,211,10.0,13.0,100,0.00,,OVC080,0.00,VWS V14.01,2013-11-01 19:12:00,
2013-11-01 15:13:00,73.7,73.7,29.81,SSE,163,9.0,13.0,100,0.00,,OVC080,0.00,VWS V14.01,2013-11-01 19:13:00,
2013-11-01 15:14:00,73.9,73.9,29.79,South,174,17.0,17.0,100,0.00,,BKN120,0.00,VWS V14.01,2013-11-01 19:14:00,
2013-11-01 15:15:00,73.7,73.7,29.81,SSW,196,10.0,14.0,100,0.00,,OVC080,0.00,VWS V14.01,2013-11-01 19:15:00,
2013-11-01 15:16:00,73.7,73.7,29.81,SSW,201,11.0,14.0,100,0.00,,OVC080,0.00,VWS V14.01,2013-11-01 19:16:00,
2013-11-01 15:17:00,73.7,73.7,29.81,SSW,208,11.0,13.0,100,0.00,,OVC080,0.00,VWS V14.01,2013-11-01 19:17:00,
2013-11-01 15:18:00,73.7,73.7,29.81,SSW,209,12.0,16.0,100,0.00,,OVC080,0.00,VWS V14.01,2013-11-01 19:18:00,
2013-11-01 15:19:00,73.7,73.7,29.79,SSE,165,10.0,13.0,100,0.00,,BKN120,0.00,VWS V14.01,2013-11-01 19:19:00,
2013-11-01 15:20:00,73.7,73.7,29.81,SSW,198,13.0,14.0,100,0.00,,OVC080,0.00,VWS V14.01,2013-11-01 19:20:00,
2013-11-01 15:21:00,73.5,73.5,29.81,SSW,207,11.0,15.0,100,0.00,,OVC080,0.00,VWS V14.01,2013-11-01 19:21:00,
2013-11-01 15:22:00,73.5,73.5,29.81,SSW,205,10.0,14.0,100,0.00,,OVC080,0.00,VWS V14.01,2013-11-01 19:22:00,
2013-11-01 15:23:00,73.5,73.5,29.81,SSW,200,11.0,14.0,100,0.00,,OVC080,0.00,VWS V14.01,2013-11-01 19:23:00,
2013-11-01 15:24:00,73.7,73.7,29.79,SSE,160,12.0,13.0,100,0.00,,BKN120,0.00,VWS V14.01,2013-11-01 19:24:00,
2013-11-01 15:25:00,73.5,73.5,29.80,SW,223,12.0,14.0,100,0.00,,OVC080,0.00,VWS V14.01,2013-11-01 19:25:00,
2013-11-01 15:26:00,73.5,73.5,29.81,SW,217,13.0,13.0,100,0.00,,OVC080,0.00,VWS V14.01,2013-11-01 19:26:00,
2013-11-01 15:27:00,73.5,73.5,29.81,SSW,198,14.0,15.0,100,0.00,,OVC080,0.00,VWS V14.01,2013-11-01 19:27:00,
2013-11-01 15:28:00,73.5,73.5,29.81,SSW,201,13.0,15.0,100,0.00,,OVC080,0.00,VWS V14.01,2013-11-01 19:28:00,
2013-11-01 15:29:00,73.5,73.5,29.73,SSE,161,16.0,16.0,100,0.00,,BKN120,0.00,VWS V14.01,2013-11-01 19:29:00,
2013-11-01 15:30:00,73.5,73.5,29.81,SSW,202,12.0,15.0,100,0.00,,OVC080,0.00,VWS V14.01,2013-11-01 19:30:00,
2013-11-01 15:31:00,73.5,73.5,29.81,SSW,204,11.0,14.0,100,0.00,,OVC080,0.00,VWS V14.01,2013-11-01 19:31:00,
2013-11-01 15:32:00,73.5,73.5,29.80,SSW,210,12.0,15.0,100,0.00,,OVC080,0.00,VWS V14.01,2013-11-01 19:32:00,
2013-11-01 15:33:00,73.5,73.5,29.80,SSW,202,13.0,16.0,100,0.00,,OVC080,0.00,VWS V14.01,2013-11-01 19:33:00,
2013-11-01 15:34:00,73.5,73.5,29.78,SSE,168,13.0,15.0,100,0.00,,BKN120,0.00,VWS V14.01,2013-11-01 19:34:00,
2013-11-01 15:35:00,73.3,73.3,29.80,SW,225,12.0,13.0,100,0.00,,OVC080,0.00,VWS V14.01,2013-11-01 19:35:00,
2013-11-01 15:36:00,73.3,73.3,29.80,SW,223,12.0,15.0,100,0.00,,OVC080,0.00,VWS V14.01,2013-11-01 19:36:00,
2013-11-01 15:37:00,73.3,73.3,29.80,SSW,201,10.0,13.0,100,0.00,,OVC080,0.00,VWS V14.01,2013-11-01 19:37:00,
2013-11-01 15:38:00,73.5,73.5,29.80,SSW,200,10.0,11.0,100,0.00,,OVC080,0.00,VWS V14.01,2013-11-01 19:38:00,
2013-11-01 15:39:00,73.3,73.3,29.78,SSE,157,18.0,18.0,100,0.00,,BKN120,0.00,VWS V14.01,2013-11-01 19:39:00,
2013-11-01 15:40:00,73.5,73.5,29.80,South,190,9.0,14.0,100,0.00,,OVC080,0.00,VWS V14.01,2013-11-01 19:40:00,
2013-11-01 15:41:00,73.5,73.5,29.80,SSW,200,10.0,12.0,100,0.00,,OVC080,0.00,VWS V14.01,2013-11-01 19:41:00,
2013-11-01 15:42:00,73.5,73.5,29.80,South,188,9.0,11.0,100,0.00,,OVC080,0.00,VWS V14.01,2013-11-01 19:42:00,
2013-11-01 15:43:00,73.5,73.5,29.80,South,171,11.0,11.0,100,0.00,,OVC080,0.00,VWS V14.01,2013-11-01 19:43:00,
2013-11-01 15:44:00,73.3,73.3,29.78,SSE,168,19.0,19.0,100,0.00,,BKN120,0.00,VWS V14.01,2013-11-01 19:44:00,
2013-11-01 15:45:00,73.7,73.7,29.80,South,176,12.0,12.0,100,0.00,,OVC080,0.00,VWS V14.01,2013-11-01 19:45:00,
2013-11-01 15:46:00,73.7,73.7,29.80,SSW,203,11.0,12.0,100,0.00,,OVC080,0.00,VWS V14.01,2013-11-01 19:46:00,
2013-11-01 15:47:00,73.7,73.7,29.80,South,185,12.0,13.0,100,0.00,,OVC080,0.00,VWS V14.01,2013-11-01 19:47:00,
2013-11-01 15:48:00,73.7,73.7,29.80,South,183,13.0,13.0,100,0.00,,OVC080,0.00,VWS V14.01,2013-11-01 19:48:00,
2013-11-01 15:49:00,73.3,73.3,29.78,SSE,162,16.0,17.0,100,0.00,,BKN120,0.00,VWS V14.01,2013-11-01 19:49:00,
2013-11-01 15:50:00,73.7,73.7,29.78,South,175,15.0,15.0,100,0.00,,OVC080,0.00,VWS V14.01,2013-11-01 19:50:00,
2013-11-01 15:51:00,73.7,73.7,29.78,South,189,12.0,15.0,100,0.00,,OVC080,0.00,VWS V14.01,2013-11-01 19:51:00,
2013-11-01 15:52:00,73.7,73.7,29.52,South,173,11.0,14.0,100,0.00,,OVC080,0.00,VWS V14.01,2013-11-01 19:52:00,
2013-11-01 15:53:00,73.7,73.7,29.52,SSE,162,12.0,14.0,100,0.00,,OVC080,0.00,VWS V14.01,2013-11-01 19:53:00,
2013-11-01 15:54:00,73.3,73.3,29.78,South,169,17.0,19.0,100,0.00,,BKN120,0.00,VWS V14.01,2013-11-01 19:54:00,
2013-11-01 15:55:00,73.7,73.7,29.79,South,172,15.0,16.0,100,0.00,,OVC080,0.00,VWS V14.01,2013-11-01 19:55:00,
2013-11-01 15:56:00,73.7,73.7,29.79,South,175,15.0,17.0,100,0.00,,OVC080,0.00,VWS V14.01,2013-11-01 19:56:00,
2013-11-01 15:57:00,73.7,73.7,29.78,South,180,10.0,15.0,100,0.00,,OVC080,0.00,VWS V14.01,2013-11-01 19:57:00,
2013-11-01 15:58:00,73.9,73.9,29.79,SSE,163,12.0,12.0,100,0.00,,OVC080,0.00,VWS V14.01,2013-11-01 19:58:00,
2013-11-01 15:59:00,73.3,73.3,29.78,SSE,164,17.0,17.0,100,0.00,,BKN120,0.00,VWS V14.01,2013-11-01 19:59:00,
2013-11-01 16:00:00,74.0,74.0,29.78,South,180,12.0,13.0,100,0.00,,OVC080,0.00,VWS V14.01,2013-11-01 20:00:00,
2013-11-01 16:01:00,74.0,74.0,29.79,South,178,12.0,12.0,100,0.00,,OVC080,0.00,VWS V14.01,2013-11-01 20:01:00,
2013-11-01 16:02:00,74.0,74.0,29.78,South,171,11.0,15.0,100,0.00,,OVC080,0.00,VWS V14.01,2013-11-01 20:02:00,
2013-11-01 16:03:00,74.0,74.0,29.78,SSE,163,12.0,14.0,100,0.00,,OVC080,0.00,VWS V14.01,2013-11-01 20:03:00,
2013-11-01 16:04:00,73.3,73.3,29.78,South,175,17.0,17.0,100,0.00,,BKN120,0.00,VWS V14.01,2013-11-01 20:04:00,
2013-11-01 16:05:00,73.9,73.9,29.76,SSE,167,13.0,13.0,100,0.00,,OVC080,0.00,VWS V14.01,2013-11-01 20:05:00,
2013-11-01 16:06:00,73.9,73.9,29.76,SSE,158,12.0,13.0,100,0.00,,OVC080,0.00,VWS V14.01,2013-11-01 20:06:00,
2013-11-01 16:07:00,73.9,73.9,29.79,SSE,163,12.0,13.0,100,0.00,,OVC080,0.00,VWS V14.01,2013-11-01 20:07:00,
2013-11-01 16:08:00,73.9,73.9,29.79,SSE,165,14.0,14.0,100,0.00,,OVC080,0.00,VWS V14.01,2013-11-01 20:08:00,
2013-11-01 16:09:00,73.3,73.3,29.78,South,178,13.0,15.0,100,0.00,,BKN120,0.00,VWS V14.01,2013-11-01 20:09:00,
2013-11-01 16:10:00,73.9,73.9,29.76,SSE,155,13.0,15.0,100,0.00,,OVC080,0.00,VWS V14.01,2013-11-01 20:10:00,
2013-11-01 16:11:00,73.9,73.9,29.79,SSE,161,13.0,14.0,100,0.00,,OVC080,0.00,VWS V14.01,2013-11-01 20:11:00,
2013-11-01 16:12:00,73.9,73.9,29.79,South,191,17.0,17.0,100,0.00,,OVC080,0.00,VWS V14.01,2013-11-01 20:12:00,
2013-11-01 16:13:00,73.9,73.9,29.79,South,172,12.0,17.0,100,0.00,,OVC080,0.00,VWS V14.01,2013-11-01 20:13:00,
2013-11-01 16:14:00,73.3,73.3,29.78,SSE,168,13.0,17.0,100,0.00,,BKN120,0.00,VWS V14.01,2013-11-01 20:14:00,
2013-11-01 16:15:00,73.9,73.9,29.79,SSE,162,14.0,17.0,100,0.00,,OVC080,0.00,VWS V14.01,2013-11-01 20:15:00,
2013-11-01 16:16:00,73.9,73.9,29.77,SSW,196,14.0,15.0,100,0.00,,OVC080,0.00,VWS V14.01,2013-11-01 20:16:00,
2013-11-01 16:17:00,73.9,73.9,29.77,SSE,165,15.0,15.0,100,0.00,,OVC080,0.00,VWS V14.01,2013-11-01 20:17:00,
2013-11-01 16:18:00,73.7,73.7,29.79,SSE,164,13.0,15.0,100,0.00,,OVC080,0.00,VWS V14.01,2013-11-01 20:18:00,
2013-11-01 16:19:00,73.3,73.3,29.78,SSE,149,14.0,14.0,100,0.00,,BKN120,0.00,VWS V14.01,2013-11-01 20:19:00,
2013-11-01 16:20:00,73.7,73.7,29.79,South,173,14.0,14.0,100,0.00,,OVC080,0.00,VWS V14.01,2013-11-01 20:20:00,
2013-11-01 16:21:00,73.7,73.7,29.79,South,170,12.0,14.0,100,0.00,,OVC080,0.00,VWS V14.01,2013-11-01 20:21:00,
2013-11-01 16:22:00,73.7,73.7,29.79,South,182,18.0,18.0,100,0.00,,OVC080,0.00,VWS V14.01,2013-11-01 20:22:00,
2013-11-01 16:23:00,73.7,73.7,29.79,South,176,11.0,18.0,100,0.00,,OVC080,0.00,VWS V14.01,2013-11-01 20:23:00,
2013-11-01 16:24:00,73.3,73.3,29.76,SSE,159,13.0,15.0,100,0.00,,BKN120,0.00,VWS V14.01,2013-11-01 20:24:00,
2013-11-01 16:25:00,73.7,73.7,29.79,SSE,165,10.0,13.0,100,0.00,,OVC080,0.00,VWS V14.01,2013-11-01 20:25:00,
2013-11-01 16:26:00,73.5,73.5,29.79,South,175,9.0,14.0,100,0.00,,OVC080,0.00,VWS V14.01,2013-11-01 20:26:00,
2013-11-01 16:27:00,73.5,73.5,29.79,South,184,12.0,14.0,100,0.00,,OVC080,0.00,VWS V14.01,2013-11-01 20:27:00,
2013-11-01 16:28:00,73.5,73.5,29.79,SSE,158,12.0,16.0,100,0.00,,OVC080,0.00,VWS V14.01,2013-11-01 20:28:00,
2013-11-01 16:29:00,73.3,73.3,29.78,South,169,14.0,17.0,100,0.00,,BKN120,0.00,VWS V14.01,2013-11-01 20:29:00,
2013-11-01 16:30:00,73.5,73.5,29.73,SSE,165,15.0,16.0,100,0.00,,OVC080,0.00,VWS V14.01,2013-11-01 20:30:00,
2013-11-01 16:31:00,73.5,73.5,29.78,SSE,166,13.0,15.0,100,0.00,,OVC080,0.00,VWS V14.01,2013-11-01 20:31:00,
2013-11-01 16:32:00,73.5,73.5,29.78,SSE,159,11.0,15.0,100,0.00,,OVC080,0.00,VWS V14.01,2013-11-01 20:32:00,
2013-11-01 16:33:00,73.5,73.5,29.78,SSE,165,18.0,18.0,100,0.00,,OVC080,0.00,VWS V14.01,2013-11-01 20:33:00,
2013-11-01 16:34:00,73.3,73.3,29.78,South,182,14.0,18.0,100,0.00,,BKN120,0.00,VWS V14.01,2013-11-01 20:34:00,
2013-11-01 16:35:00,73.5,73.5,29.78,SSW,201,15.0,15.0,100,0.00,,OVC080,0.00,VWS V14.01,2013-11-01 20:35:00,
2013-11-01 16:36:00,73.5,73.5,29.79,South,173,12.0,17.0,100,0.00,,OVC080,0.00,VWS V14.01,2013-11-01 20:36:00,
2013-11-01 16:37:00,73.3,73.3,29.79,South,174,16.0,17.0,100,0.00,,OVC080,0.00,VWS V14.01,2013-11-01 20:37:00,
2013-11-01 16:38:00,73.3,73.3,29.79,SSE,159,17.0,17.0,100,0.00,,OVC080,0.00,VWS V14.01,2013-11-01 20:38:00,
2013-11-01 16:39:00,73.2,73.2,29.78,South,174,15.0,16.0,100,0.00,,OVC120,0.00,VWS V14.01,2013-11-01 20:39:00,
2013-11-01 16:40:00,73.3,73.3,29.78,SSE,160,13.0,18.0,100,0.00,,OVC080,0.00,VWS V14.01,2013-11-01 20:40:00,
2013-11-01 16:41:00,73.3,73.3,29.78,SSE,159,16.0,18.0,100,0.00,,OVC080,0.00,VWS V14.01,2013-11-01 20:41:00,
2013-11-01 16:42:00,73.3,73.3,29.78,SSE,152,19.0,19.0,100,0.00,,OVC080,0.00,VWS V14.01,2013-11-01 20:42:00,
2013-11-01 16:43:00,73.3,73.3,29.78,SSE,150,14.0,19.0,100,0.00,,OVC080,0.00,VWS V14.01,2013-11-01 20:43:00,
2013-11-01 16:44:00,73.2,73.2,29.78,South,178,18.0,18.0,100,0.00,,OVC120,0.00,VWS V14.01,2013-11-01 20:44:00,
2013-11-01 16:45:00,73.3,73.3,29.78,South,182,12.0,19.0,100,0.00,,OVC080,0.00,VWS V14.01,2013-11-01 20:45:00,
2013-11-01 16:46:00,73.3,73.3,29.78,South,172,17.0,17.0,100,0.00,,OVC080,0.00,VWS V14.01,2013-11-01 20:46:00,
2013-11-01 16:47:00,73.3,73.3,29.78,SSE,160,17.0,18.0,100,0.00,,OVC080,0.00,VWS V14.01,2013-11-01 20:47:00,
2013-11-01 16:48:00,73.3,73.3,29.78,SSE,163,19.0,19.0,100,0.00,,OVC080,0.00,VWS V14.01,2013-11-01 20:48:00,
2013-11-01 16:49:00,73.2,73.2,29.78,South,187,17.0,17.0,100,0.00,,OVC120,0.00,VWS V14.01,2013-11-01 20:49:00,
2013-11-01 16:50:00,73.3,73.3,29.78,SSE,162,17.0,17.0,100,0.00,,OVC080,0.00,VWS V14.01,2013-11-01 20:50:00,
2013-11-01 16:51:00,73.3,73.3,29.78,SSE,167,17.0,17.0,100,0.00,,OVC080,0.00,VWS V14.01,2013-11-01 20:51:00,
2013-11-01 16:52:00,73.3,73.3,29.78,SSW,213,14.0,19.0,100,0.00,,OVC080,0.00,VWS V14.01,2013-11-01 20:52:00,
2013-11-01 16:53:00,73.3,73.3,29.78,South,178,16.0,17.0,100,0.00,,OVC080,0.00,VWS V14.01,2013-11-01 20:53:00,
2013-11-01 16:54:00,73.2,73.2,29.79,South,186,12.0,17.0,100,0.00,,OVC120,0.00,VWS V14.01,2013-11-01 20:54:00,
2013-11-01 16:55:00,73.3,73.3,29.78,SSE,158,14.0,19.0,100,0.00,,OVC080,0.00,VWS V14.01,2013-11-01 20:55:00,
2013-11-01 16:56:00,73.3,73.3,29.78,South,184,18.0,19.0,100,0.00,,OVC080,0.00,VWS V14.01,2013-11-01 20:56:00,
2013-11-01 16:57:00,73.3,73.3,29.78,SSE,161,15.0,19.0,100,0.00,,OVC080,0.00,VWS V14.01,2013-11-01 20:57:00,
2013-11-01 16:58:00,73.3,73.3,29.78,SE,141,17.0,18.0,100,0.00,,OVC080,0.00,VWS V14.01,2013-11-01 20:58:00,
2013-11-01 16:59:00,73.2,73.2,29.79,South,191,12.0,15.0,100,0.00,,OVC120,0.00,VWS V14.01,2013-11-01 20:59:00,
2013-11-01 17:00:00,73.3,73.3,29.78,SSE,162,15.0,17.0,100,0.00,,OVC080,0.00,VWS V14.01,2013-11-01 21:00:00,
2013-11-01 17:01:00,73.3,73.3,29.78,SSE,156,14.0,17.0,100,0.00,,OVC080,0.00,VWS V14.01,2013-11-01 21:01:00,
2013-11-01 17:02:00,73.3,73.3,29.78,SSE,166,13.0,15.0,100,0.00,,OVC080,0.00,VWS V14.01,2013-11-01 21:02:00,
2013-11-01 17:03:00,73.3,73.3,29.78,South,179,16.0,16.0,100,0.00,,OVC080,0.00,VWS V14.01,2013-11-01 21:03:00,
2013-11-01 17:04:00,73.2,73.2,29.78,South,180,15.0,16.0,100,0.00,,OVC120,0.00,VWS V14.01,2013-11-01 21:04:00,
2013-11-01 17:05:00,73.3,73.3,29.78,SSE,163,14.0,17.0,100,0.00,,OVC080,0.00,VWS V14.01,2013-11-01 21:05:00,
2013-11-01 17:06:00,73.3,73.3,29.78,South,169,13.0,14.0,100,0.00,,OVC080,0.00,VWS V14.01,2013-11-01 21:06:00,
2013-11-01 17:07:00,73.3,73.3,29.78,South,189,15.0,15.0,100,0.00,,OVC080,0.00,VWS V14.01,2013-11-01 21:07:00,
2013-11-01 17:08:00,73.3,73.3,29.78,SSE,155,15.0,15.0,100,0.00,,OVC080,0.00,VWS V14.01,2013-11-01 21:08:00,
2013-11-01 17:09:00,73.2,73.2,29.78,South,177,16.0,17.0,100,0.00,,OVC120,0.00,VWS V14.01,2013-11-01 21:09:00,
2013-11-01 17:10:00,73.3,73.3,29.78,SSE,162,15.0,15.0,100,0.00,,OVC080,0.00,VWS V14.01,2013-11-01 21:10:00,
2013-11-01 17:11:00,73.3,73.3,29.78,SSE,163,17.0,17.0,100,0.00,,OVC080,0.00,VWS V14.01,2013-11-01 21:11:00,
2013-11-01 17:12:00,73.3,73.3,29.78,SSE,164,13.0,17.0,100,0.00,,OVC080,0.00,VWS V14.01,2013-11-01 21:12:00,
2013-11-01 17:13:00,73.3,73.3,29.78,SSE,168,12.0,16.0,100,0.00,,OVC080,0.00,VWS V14.01,2013-11-01 21:13:00,
2013-11-01 17:14:00,73.2,73.2,29.78,South,184,18.0,19.0,100,0.00,,OVC120,0.00,VWS V14.01,2013-11-01 21:14:00,
2013-11-01 17:15:00,73.3,73.3,29.78,SSE,162,15.0,17.0,100,0.00,,OVC080,0.00,VWS V14.01,2013-11-01 21:15:00,
2013-11-01 17:16:00,73.3,73.3,29.77,SSE,165,12.0,15.0,100,0.00,,OVC080,0.00,VWS V14.01,2013-11-01 21:16:00,
2013-11-01 17:17:00,73.3,73.3,29.78,SSW,194,16.0,16.0,100,0.00,,OVC080,0.00,VWS V14.01,2013-11-01 21:17:00,
2013-11-01 17:18:00,73.3,73.3,29.78,SSE,157,14.0,16.0,100,0.00,,OVC080,0.00,VWS V14.01,2013-11-01 21:18:00,
2013-11-01 17:19:00,73.2,73.2,29.78,South,190,15.0,20.0,100,0.00,,OVC120,0.00,VWS V14.01,2013-11-01 21:19:00,
2013-11-01 17:20:00,73.3,73.3,29.78,South,173,17.0,17.0,100,0.00,,OVC080,0.00,VWS V14.01,2013-11-01 21:20:00,
2013-11-01 17:21:00,73.3,73.3,29.78,South,171,15.0,19.0,100,0.00,,OVC080,0.00,VWS V14.01,2013-11-01 21:21:00,
2013-11-01 17:22:00,73.3,73.3,29.78,South,175,14.0,17.0,100,0.00,,OVC080,0.00,VWS V14.01,2013-11-01 21:22:00,
2013-11-01 17:23:00,73.3,73.3,29.78,SSE,163,12.0,16.0,100,0.00,,OVC080,0.00,VWS V14.01,2013-11-01 21:23:00,
2013-11-01 17:24:00,73.2,73.2,29.78,South,175,18.0,18.0,100,0.00,,OVC120,0.00,VWS V14.01,2013-11-01 21:24:00,
2013-11-01 17:25:00,73.3,73.3,29.76,SSE,165,14.0,20.0,100,0.00,,OVC080,0.00,VWS V14.01,2013-11-01 21:25:00,
2013-11-01 17:26:00,73.3,73.3,29.76,South,171,16.0,16.0,100,0.00,,OVC080,0.00,VWS V14.01,2013-11-01 21:26:00,
2013-11-01 17:27:00,73.3,73.3,29.76,SSE,162,14.0,16.0,100,0.00,,OVC080,0.00,VWS V14.01,2013-11-01 21:27:00,
2013-11-01 17:28:00,73.3,73.3,29.78,SSW,195,11.0,16.0,100,0.00,,OVC080,0.00,VWS V14.01,2013-11-01 21:28:00,
2013-11-01 17:29:00,73.2,73.2,29.77,South,186,17.0,18.0,100,0.00,,OVC120,0.00,VWS V14.01,2013-11-01 21:29:00,
2013-11-01 17:30:00,73.3,73.3,29.78,South,191,14.0,17.0,100,0.00,,OVC080,0.00,VWS V14.01,2013-11-01 21:30:00,
2013-11-01 17:31:00,73.3,73.3,29.78,SSE,159,14.0,16.0,100,0.00,,OVC080,0.00,VWS V14.01,2013-11-01 21:31:00,
2013-11-01 17:32:00,73.3,73.3,29.78,South,177,19.0,19.0,100,0.00,,OVC080,0.00,VWS V14.01,2013-11-01 21:32:00,
2013-11-01 17:33:00,73.3,73.3,29.78,SSE,165,16.0,19.0,100,0.00,,OVC080,0.00,VWS V14.01,2013-11-01 21:33:00,
2013-11-01 17:34:00,73.2,73.2,29.77,South,174,18.0,20.0,100,0.00,,OVC120,0.00,VWS V14.01,2013-11-01 21:34:00,
2013-11-01 17:35:00,73.3,73.3,29.78,SSE,162,13.0,18.0,100,0.00,,OVC080,0.00,VWS V14.01,2013-11-01 21:35:00,
2013-11-01 17:36:00,73.2,73.2,29.77,South,171,12.0,18.0,100,0.00,,OVC080,0.00,VWS V14.01,2013-11-01 21:36:00,
2013-11-01 17:37:00,73.2,73.2,29.78,SSE,163,18.0,18.0,100,0.00,,OVC080,0.00,VWS V14.01,2013-11-01 21:37:00,
2013-11-01 17:38:00,73.2,73.2,29.78,South,172,14.0,18.0,100,0.00,,OVC080,0.00,VWS V14.01,2013-11-01 21:38:00,
2013-11-01 17:39:00,73.2,73.2,29.73,South,173,14.0,14.0,100,0.00,,OVC120,0.00,VWS V14.01,2013-11-01 21:39:00,
2013-11-01 17:40:00,73.2,73.2,29.78,South,177,13.0,16.0,100,0.00,,OVC080,0.00,VWS V14.01,2013-11-01 21:40:00,
2013-11-01 17:41:00,73.2,73.2,29.78,South,170,12.0,16.0,100,0.00,,OVC080,0.00,VWS V14.01,2013-11-01 21:41:00,
2013-11-01 17:42:00,73.2,73.2,29.78,South,177,20.0,20.0,100,0.00,,OVC080,0.00,VWS V14.01,2013-11-01 21:42:00,
2013-11-01 17:43:00,73.2,73.2,29.78,South,182,20.0,20.0,100,0.00,,OVC080,0.00,VWS V14.01,2013-11-01 21:43:00,
2013-11-01 17:44:00,73.2,73.2,29.74,SSE,165,16.0,16.0,100,0.00,,OVC120,0.00,VWS V14.01,2013-11-01 21:44:00,
2013-11-01 17:45:00,73.2,73.2,29.78,SSE,167,13.0,18.0,100,0.00,,OVC080,0.00,VWS V14.01,2013-11-01 21:45:00,
2013-11-01 17:46:00,73.2,73.2,29.78,SSW,194,18.0,18.0,100,0.00,,OVC080,0.00,VWS V14.01,2013-11-01 21:46:00,
2013-11-01 17:47:00,73.2,73.2,29.78,South,187,13.0,19.0,100,0.00,,OVC080,0.00,VWS V14.01,2013-11-01 21:47:00,
2013-11-01 17:48:00,73.2,73.2,29.78,South,186,12.0,19.0,100,0.00,,OVC080,0.00,VWS V14.01,2013-11-01 21:48:00,
2013-11-01 17:49:00,73.2,73.2,29.68,South,173,15.0,15.0,100,0.00,,OVC120,0.00,VWS V14.01,2013-11-01 21:49:00,
2013-11-01 17:50:00,73.2,73.2,29.78,SSW,192,17.0,17.0,100,0.00,,OVC080,0.00,VWS V14.01,2013-11-01 21:50:00,
2013-11-01 17:51:00,73.2,73.2,29.78,South,190,14.0,17.0,100,0.00,,OVC080,0.00,VWS V14.01,2013-11-01 21:51:00,
2013-11-01 17:52:00,73.2,73.2,29.78,SSW,194,14.0,16.0,100,0.00,,OVC080,0.00,VWS V14.01,2013-11-01 21:52:00,
2013-11-01 17:53:00,73.2,73.2,29.78,South,190,13.0,14.0,100,0.00,,OVC080,0.00,VWS V14.01,2013-11-01 21:53:00,
2013-11-01 17:54:00,73.2,73.2,29.77,South,189,13.0,15.0,100,0.00,,OVC120,0.00,VWS V14.01,2013-11-01 21:54:00,
2013-11-01 17:55:00,73.2,73.2,29.79,South,189,12.0,17.0,100,0.00,,OVC080,0.00,VWS V14.01,2013-11-01 21:55:00,
2013-11-01 17:56:00,73.2,73.2,29.79,South,178,15.0,16.0,100,0.00,,OVC080,0.00,VWS V14.01,2013-11-01 21:56:00,
2013-11-01 17:57:00,73.2,73.2,29.79,SSW,202,13.0,15.0,100,0.00,,OVC080,0.00,VWS V14.01,2013-11-01 21:57:00,
2013-11-01 17:58:00,73.2,73.2,29.78,South,175,13.0,14.0,100,0.00,,OVC080,0.00,VWS V14.01,2013-11-01 21:58:00,
2013-11-01 17:59:00,73.2,73.2,29.76,SSE,160,12.0,13.0,100,0.00,,OVC120,0.00,VWS V14.01,2013-11-01 21:59:00,
2013-11-01 18:00:00,73.2,73.2,29.79,South,171,15.0,15.0,100,0.00,,OVC080,0.00,VWS V14.01,2013-11-01 22:00:00,
2013-11-01 18:01:00,73.2,73.2,29.78,South,173,13.0,16.0,100,0.00,,OVC080,0.00,VWS V14.01,2013-11-01 22:01:00,
2013-11-01 18:02:00,73.2,73.2,29.78,SSW,198,18.0,20.0,100,0.00,,OVC080,0.00,VWS V14.01,2013-11-01 22:02:00,
2013-11-01 18:03:00,73.2,73.2,29.78,SSE,168,17.0,18.0,100,0.00,,OVC080,0.00,VWS V14.01,2013-11-01 22:03:00,
2013-11-01 18:04:00,73.2,73.2,29.55,South,170,15.0,17.0,100,0.00,,OVC120,0.00,VWS V14.01,2013-11-01 22:04:00,
2013-11-01 18:05:00,73.2,73.2,29.78,South,180,10.0,16.0,100,0.00,,OVC080,0.00,VWS V14.01,2013-11-01 22:05:00,
2013-11-01 18:06:00,73.2,73.2,29.78,South,191,14.0,17.0,100,0.00,,OVC080,0.00,VWS V14.01,2013-11-01 22:06:00,
2013-11-01 18:07:00,73.2,73.2,29.78,SW,220,13.0,17.0,100,0.00,,OVC080,0.00,VWS V14.01,2013-11-01 22:07:00,
2013-11-01 18:08:00,73.2,73.2,29.78,SSW,197,15.0,17.0,100,0.00,,OVC080,0.00,VWS V14.01,2013-11-01 22:08:00,
2013-11-01 18:09:00,73.2,73.2,29.76,South,186,15.0,15.0,100,0.00,,OVC120,0.00,VWS V14.01,2013-11-01 22:09:00,
2013-11-01 18:10:00,73.2,73.2,29.78,South,184,17.0,17.0,100,0.00,,OVC080,0.00,VWS V14.01,2013-11-01 22:10:00,
2013-11-01 18:11:00,73.2,73.2,29.78,SSW,199,15.0,17.0,100,0.00,,OVC080,0.00,VWS V14.01,2013-11-01 22:11:00,
2013-11-01 18:12:00,73.2,73.2,29.78,South,180,16.0,16.0,100,0.00,,OVC080,0.00,VWS V14.01,2013-11-01 22:12:00,
2013-11-01 18:13:00,73.2,73.2,29.78,South,180,15.0,17.0,100,0.00,,OVC080,0.00,VWS V14.01,2013-11-01 22:13:00,
2013-11-01 18:14:00,73.2,73.2,29.76,SSE,161,17.0,17.0,100,0.00,,OVC120,0.00,VWS V14.01,2013-11-01 22:14:00,
2013-11-01 18:15:00,73.2,73.2,29.78,South,186,18.0,19.0,100,0.00,,OVC080,0.00,VWS V14.01,2013-11-01 22:15:00,
2013-11-01 18:16:00,73.2,73.2,29.78,South,176,20.0,20.0,100,0.00,,OVC080,0.00,VWS V14.01,2013-11-01 22:16:00,
2013-11-01 18:17:00,73.2,73.2,29.78,SSE,165,17.0,20.0,100,0.00,,OVC080,0.00,VWS V14.01,2013-11-01 22:17:00,
2013-11-01 18:18:00,73.2,73.2,29.77,SSE,166,15.0,19.0,100,0.00,,OVC080,0.00,VWS V14.01,2013-11-01 22:18:00,
2013-11-01 18:19:00,73.2,73.2,29.76,South,182,18.0,18.0,100,0.00,,OVC120,0.00,VWS V14.01,2013-11-01 22:19:00,
2013-11-01 18:20:00,73.2,73.2,29.78,South,182,15.0,20.0,100,0.00,,OVC080,0.00,VWS V14.01,2013-11-01 22:20:00,
2013-11-01 18:21:00,73.2,73.2,29.78,SSW,193,15.0,18.0,100,0.00,,OVC080,0.00,VWS V14.01,2013-11-01 22:21:00,
2013-11-01 18:22:00,73.2,73.2,29.78,SSW,195,14.0,18.0,100,0.00,,OVC080,0.00,VWS V14.01,2013-11-01 22:22:00,
2013-11-01 18:23:00,73.2,73.2,29.78,South,178,14.0,19.0,100,0.00,,OVC080,0.00,VWS V14.01,2013-11-01 22:23:00,
2013-11-01 18:24:00,73.2,73.2,29.76,South,169,18.0,18.0,100,0.00,,OVC120,0.00,VWS V14.01,2013-11-01 22:24:00,
2013-11-01 18:25:00,73.2,73.2,29.78,South,173,18.0,18.0,100,0.00,,OVC080,0.00,VWS V14.01,2013-11-01 22:25:00,
2013-11-01 18:26:00,73.2,73.2,29.78,SSW,196,19.0,19.0,100,0.00,,OVC080,0.00,VWS V14.01,2013-11-01 22:26:00,
2013-11-01 18:27:00,73.2,73.2,29.78,South,175,18.0,20.0,100,0.00,,OVC080,0.00,VWS V14.01,2013-11-01 22:27:00,
2013-11-01 18:28:00,73.2,73.2,29.78,South,174,16.0,19.0,100,0.00,,OVC080,0.00,VWS V14.01,2013-11-01 22:28:00,
2013-11-01 18:29:00,73.2,73.2,29.59,South,184,16.0,19.0,100,0.00,,OVC120,0.00,VWS V14.01,2013-11-01 22:29:00,
2013-11-01 18:30:00,73.2,73.2,29.77,South,169,14.0,18.0,100,0.00,,OVC080,0.00,VWS V14.01,2013-11-01 22:30:00,
2013-11-01 18:31:00,73.2,73.2,29.77,SSW,199,15.0,18.0,100,0.00,,OVC080,0.00,VWS V14.01,2013-11-01 22:31:00,
2013-11-01 18:32:00,73.2,73.2,29.77,SSE,160,12.0,17.0,100,0.00,,OVC080,0.00,VWS V14.01,2013-11-01 22:32:00,
2013-11-01 18:33:00,73.2,73.2,29.77,SSE,155,13.0,18.0,100,0.00,,OVC080,0.00,VWS V14.01,2013-11-01 22:33:00,
2013-11-01 18:34:00,73.2,73.2,29.76,South,183,15.0,17.0,100,0.00,,OVC120,0.00,VWS V14.01,2013-11-01 22:34:00,
2013-11-01 18:35:00,73.2,73.2,29.77,South,173,14.0,20.0,100,0.00,,OVC080,0.00,VWS V14.01,2013-11-01 22:35:00,
2013-11-01 18:36:00,73.2,73.2,29.77,South,186,15.0,18.0,100,0.00,,OVC080,0.00,VWS V14.01,2013-11-01 22:36:00,
2013-11-01 18:37:00,73.2,73.2,29.77,SSE,165,14.0,16.0,100,0.00,,OVC080,0.00,VWS V14.01,2013-11-01 22:37:00,
2013-11-01 18:38:00,73.2,73.2,29.76,SSE,163,13.0,18.0,100,0.00,,OVC080,0.00,VWS V14.01,2013-11-01 22:38:00,
2013-11-01 18:39:00,73.2,73.2,29.58,South,190,13.0,16.0,100,0.00,,BKN100,0.00,VWS V14.01,2013-11-01 22:39:00,
2013-11-01 18:40:00,73.2,73.2,29.73,SSE,163,16.0,16.0,100,0.00,,OVC080,0.00,VWS V14.01,2013-11-01 22:40:00,
2013-11-01 18:41:00,73.2,73.2,29.74,SSE,168,11.0,16.0,100,0.00,,OVC080,0.00,VWS V14.01,2013-11-01 22:41:00,
2013-11-01 18:42:00,73.2,73.2,29.74,South,172,17.0,17.0,100,0.00,,OVC080,0.00,VWS V14.01,2013-11-01 22:42:00,
2013-11-01 18:43:00,73.2,73.2,29.74,SSE,167,18.0,18.0,100,0.00,,OVC080,0.00,VWS V14.01,2013-11-01 22:43:00,
2013-11-01 18:44:00,73.2,73.2,29.59,South,179,16.0,17.0,100,0.00,,BKN100,0.00,VWS V14.01,2013-11-01 22:44:00,
2013-11-01 18:45:00,73.2,73.2,29.74,SSE,164,12.0,16.0,100,0.00,,OVC080,0.00,VWS V14.01,2013-11-01 22:45:00,
2013-11-01 18:46:00,73.2,73.2,29.74,South,182,14.0,17.0,100,0.00,,OVC080,0.00,VWS V14.01,2013-11-01 22:46:00,
2013-11-01 18:47:00,73.2,73.2,29.74,SSE,168,15.0,15.0,100,0.00,,OVC080,0.00,VWS V14.01,2013-11-01 22:47:00,
2013-11-01 18:48:00,73.2,73.2,29.68,SSE,155,12.0,15.0,100,0.00,,OVC080,0.00,VWS V14.01,2013-11-01 22:48:00,
2013-11-01 18:49:00,73.2,73.2,29.41,South,172,12.0,17.0,100,0.00,,BKN100,0.00,VWS V14.01,2013-11-01 22:49:00,
2013-11-01 18:50:00,73.2,73.2,29.68,SSE,162,15.0,15.0,100,0.00,,OVC080,0.00,VWS V14.01,2013-11-01 22:50:00,
2013-11-01 18:51:00,73.2,73.2,29.68,SSE,158,14.0,15.0,100,0.00,,OVC080,0.00,VWS V14.01,2013-11-01 22:51:00,
2013-11-01 18:52:00,73.2,73.2,29.68,SSE,156,12.0,14.0,100,0.00,,OVC080,0.00,VWS V14.01,2013-11-01 22:52:00,
2013-11-01 18:53:00,73.2,73.2,29.77,SSE,165,12.0,16.0,100,0.00,,OVC080,0.00,VWS V14.01,2013-11-01 22:53:00,
2013-11-01 18:54:00,73.2,73.2,29.41,South,187,16.0,16.0,100,0.00,,BKN100,0.00,VWS V14.01,2013-11-01 22:54:00,
2013-11-01 18:55:00,73.2,73.2,29.77,South,179,13.0,15.0,100,0.00,,OVC080,0.00,VWS V14.01,2013-11-01 22:55:00,
2013-11-01 18:56:00,73.2,73.2,29.77,SSE,167,15.0,15.0,100,0.00,,OVC080,0.00,VWS V14.01,2013-11-01 22:56:00,
2013-11-01 18:57:00,73.2,73.2,29.76,South,175,13.0,15.0,100,0.00,,OVC080,0.00,VWS V14.01,2013-11-01 22:57:00,
2013-11-01 18:58:00,73.2,73.2,29.77,South,178,10.0,15.0,100,0.00,,OVC080,0.00,VWS V14.01,2013-11-01 22:58:00,
2013-11-01 18:59:00,73.3,73.3,29.41,SSE,161,16.0,18.0,100,0.00,,BKN100,0.00,VWS V14.01,2013-11-01 22:59:00,
2013-11-01 19:00:00,73.2,73.2,29.76,SSE,162,13.0,14.0,100,0.00,,OVC080,0.00,VWS V14.01,2013-11-01 23:00:00,
2013-11-01 19:01:00,73.2,73.2,29.76,SSE,159,14.0,14.0,100,0.00,,OVC080,0.00,VWS V14.01,2013-11-01 23:01:00,
2013-11-01 19:02:00,73.2,73.2,29.54,South,176,14.0,17.0,100,0.00,,OVC080,0.00,VWS V14.01,2013-11-01 23:02:00,
2013-11-01 19:03:00,73.2,73.2,29.55,South,169,14.0,16.0,100,0.00,,OVC080,0.00,VWS V14.01,2013-11-01 23:03:00,
2013-11-01 19:04:00,73.3,73.3,29.29,South,184,15.0,15.0,100,0.00,,BKN100,0.00,VWS V14.01,2013-11-01 23:04:00,
2013-11-01 19:05:00,73.2,73.2,29.55,SSW,194,13.0,17.0,100,0.00,,OVC080,0.00,VWS V14.01,2013-11-01 23:05:00,
2013-11-01 19:06:00,73.2,73.2,29.55,SSE,155,13.0,18.0,100,0.00,,OVC080,0.00,VWS V14.01,2013-11-01 23:06:00,
2013-11-01 19:07:00,73.2,73.2,29.55,SSE,163,14.0,16.0,100,0.00,,OVC080,0.00,VWS V14.01,2013-11-01 23:07:00,
2013-11-01 19:08:00,73.2,73.2,29.55,South,171,13.0,15.0,100,0.00,,OVC080,0.00,VWS V14.01,2013-11-01 23:08:00,
2013-11-01 19:09:00,73.3,73.3,29.29,SSE,167,19.0,19.0,100,0.00,,BKN100,0.00,VWS V14.01,2013-11-01 23:09:00,
2013-11-01 19:10:00,73.2,73.2,29.76,SSE,163,14.0,15.0,100,0.00,,OVC080,0.00,VWS V14.01,2013-11-01 23:10:00,
2013-11-01 19:11:00,73.2,73.2,29.76,South,169,18.0,18.0,100,0.00,,OVC080,0.00,VWS V14.01,2013-11-01 23:11:00,
2013-11-01 19:12:00,73.2,73.2,29.76,SSE,165,20.0,20.0,100,0.00,,OVC080,0.00,VWS V14.01,2013-11-01 23:12:00,
2013-11-01 19:13:00,73.2,73.2,29.75,SSE,167,14.0,20.0,100,0.00,,OVC080,0.00,VWS V14.01,2013-11-01 23:13:00,
2013-11-01 19:14:00,73.3,73.3,29.29,SSE,147,15.0,18.0,100,0.00,,BKN100,0.00,VWS V14.01,2013-11-01 23:14:00,
2013-11-01 19:15:00,73.2,73.2,29.76,South,172,11.0,17.0,100,0.00,,OVC080,0.00,VWS V14.01,2013-11-01 23:15:00,
2013-11-01 19:16:00,73.2,73.2,29.76,SSE,167,12.0,15.0,100,0.00,,OVC080,0.00,VWS V14.01,2013-11-01 23:16:00,
2013-11-01 19:17:00,73.2,73.2,29.76,SSE,167,15.0,19.0,100,0.00,,OVC080,0.00,VWS V14.01,2013-11-01 23:17:00,
2013-11-01 19:18:00,73.2,73.2,29.76,South,173,12.0,15.0,100,0.00,,OVC080,0.00,VWS V14.01,2013-11-01 23:18:00,
2013-11-01 19:19:00,73.3,73.3,29.27,SSE,161,13.0,18.0,100,0.00,,BKN100,0.00,VWS V14.01,2013-11-01 23:19:00,
2013-11-01 19:20:00,73.2,73.2,29.76,SSW,192,16.0,18.0,100,0.00,,OVC080,0.00,VWS V14.01,2013-11-01 23:20:00,
2013-11-01 19:21:00,73.2,73.2,29.72,South,190,16.0,18.0,100,0.00,,OVC080,0.00,VWS V14.01,2013-11-01 23:21:00,
2013-11-01 19:22:00,73.2,73.2,29.72,South,176,15.0,17.0,100,0.00,,OVC080,0.00,VWS V14.01,2013-11-01 23:22:00,
2013-11-01 19:23:00,73.2,73.2,29.76,South,172,14.0,15.0,100,0.00,,OVC080,0.00,VWS V14.01,2013-11-01 23:23:00,
2013-11-01 19:24:00,73.3,73.3,29.30,South,171,20.0,20.0,100,0.00,,BKN100,0.00,VWS V14.01,2013-11-01 23:24:00,
2013-11-01 19:25:00,73.2,73.2,29.76,South,180,20.0,21.0,100,0.00,,OVC080,0.00,VWS V14.01,2013-11-01 23:25:00,
2013-11-01 19:26:00,73.2,73.2,29.76,South,173,16.0,20.0,100,0.00,,OVC080,0.00,VWS V14.01,2013-11-01 23:26:00,
2013-11-01 19:27:00,73.2,73.2,29.76,South,172,17.0,20.0,100,0.00,,OVC080,0.00,VWS V14.01,2013-11-01 23:27:00,
2013-11-01 19:28:00,73.2,73.2,29.76,South,179,19.0,20.0,100,0.00,,OVC080,0.00,VWS V14.01,2013-11-01 23:28:00,
2013-11-01 19:29:00,73.3,73.3,29.28,SSE,163,18.0,18.0,100,0.00,,BKN100,0.00,VWS V14.01,2013-11-01 23:29:00,
2013-11-01 19:30:00,73.2,73.2,29.59,South,173,15.0,19.0,100,0.00,,OVC080,0.00,VWS V14.01,2013-11-01 23:30:00,
2013-11-01 19:31:00,73.2,73.2,29.59,South,177,12.0,17.0,100,0.00,,OVC080,0.00,VWS V14.01,2013-11-01 23:31:00,
2013-11-01 19:32:00,73.2,73.2,29.59,South,180,14.0,18.0,100,0.00,,OVC080,0.00,VWS V14.01,2013-11-01 23:32:00,
2013-11-01 19:33:00,73.2,73.2,29.59,SSE,161,14.0,17.0,100,0.00,,OVC080,0.00,VWS V14.01,2013-11-01 23:33:00,
2013-11-01 19:34:00,73.5,73.5,29.28,South,171,19.0,21.0,100,0.00,,BKN100,0.00,VWS V14.01,2013-11-01 23:34:00,
2013-11-01 19:35:00,73.2,73.2,29.76,South,182,15.0,17.0,100,0.00,,OVC080,0.00,VWS V14.01,2013-11-01 23:35:00,
2013-11-01 19:36:00,73.2,73.2,29.76,South,180,18.0,18.0,100,0.00,,OVC080,0.00,VWS V14.01,2013-11-01 23:36:00,
2013-11-01 19:37:00,73.2,73.2,29.58,South,180,15.0,18.0,100,0.00,,OVC080,0.00,VWS V14.01,2013-11-01 23:37:00,
2013-11-01 19:38:00,73.2,73.2,29.58,South,174,14.0,19.0,100,0.00,,OVC080,0.00,VWS V14.01,2013-11-01 23:38:00,
2013-11-01 19:39:00,73.5,73.5,29.30,SSE,163,16.0,18.0,100,0.00,,BKN070,0.00,VWS V14.01,2013-11-01 23:39:00,
2013-11-01 19:40:00,73.2,73.2,29.58,South,182,12.0,16.0,100,0.00,,OVC080,0.00,VWS V14.01,2013-11-01 23:40:00,
2013-11-01 19:41:00,73.2,73.2,29.58,South,190,15.0,15.0,100,0.00,,OVC080,0.00,VWS V14.01,2013-11-01 23:41:00,
2013-11-01 19:42:00,73.2,73.2,29.76,South,184,15.0,16.0,100,0.00,,OVC080,0.00,VWS V14.01,2013-11-01 23:42:00,
2013-11-01 19:43:00,73.2,73.2,29.76,SSE,153,14.0,15.0,100,0.00,,OVC080,0.00,VWS V14.01,2013-11-01 23:43:00,
2013-11-01 19:44:00,73.5,73.5,29.65,South,185,23.0,23.0,100,0.00,,BKN070,0.00,VWS V14.01,2013-11-01 23:44:00,
2013-11-01 19:45:00,73.2,73.2,29.59,South,179,12.0,17.0,100,0.00,,OVC080,0.00,VWS V14.01,2013-11-01 23:45:00,
2013-11-01 19:46:00,73.2,73.2,29.59,SE,144,13.0,15.0,100,0.00,,OVC080,0.00,VWS V14.01,2013-11-01 23:46:00,
2013-11-01 19:47:00,73.2,73.2,29.59,South,173,16.0,16.0,100,0.00,,OVC080,0.00,VWS V14.01,2013-11-01 23:47:00,
2013-11-01 19:48:00,73.2,73.2,29.59,SSE,167,13.0,16.0,100,0.00,,OVC080,0.00,VWS V14.01,2013-11-01 23:48:00,
2013-11-01 19:49:00,73.5,73.5,29.77,South,171,14.0,18.0,100,0.00,,BKN070,0.00,VWS V14.01,2013-11-01 23:49:00,
2013-11-01 19:50:00,73.2,73.2,29.41,SSE,155,15.0,17.0,100,0.00,,OVC080,0.00,VWS V14.01,2013-11-01 23:50:00,
2013-11-01 19:51:00,73.2,73.2,29.41,SSE,161,18.0,18.0,100,0.00,,OVC080,0.00,VWS V14.01,2013-11-01 23:51:00,
2013-11-01 19:52:00,73.2,73.2,29.41,South,180,17.0,18.0,100,0.00,,OVC080,0.00,VWS V14.01,2013-11-01 23:52:00,
2013-11-01 19:53:00,73.2,73.2,29.41,South,190,18.0,18.0,100,0.00,,OVC080,0.00,VWS V14.01,2013-11-01 23:53:00,
2013-11-01 19:54:00,73.7,73.7,29.51,South,172,15.0,15.0,100,0.00,,BKN070,0.00,VWS V14.01,2013-11-01 23:54:00,
2013-11-01 19:55:00,73.2,73.2,29.41,South,173,16.0,17.0,100,0.00,,OVC080,0.00,VWS V14.01,2013-11-01 23:55:00,
2013-11-01 19:56:00,73.2,73.2,29.41,South,181,17.0,19.0,100,0.00,,OVC080,0.00,VWS V14.01,2013-11-01 23:56:00,
2013-11-01 19:57:00,73.3,73.3,29.41,South,174,13.0,19.0,100,0.00,,OVC080,0.00,VWS V14.01,2013-11-01 23:57:00,
2013-11-01 19:58:00,73.3,73.3,29.41,South,178,15.0,20.0,100,0.00,,OVC080,0.00,VWS V14.01,2013-11-01 23:58:00,
2013-11-01 19:59:00,73.7,73.7,29.67,South,176,14.0,16.0,100,0.00,,BKN070,0.00,VWS V14.01,2013-11-01 23:59:00,
2013-11-01 20:00:00,73.3,73.3,29.41,South,187,17.0,20.0,100,0.00,,OVC080,0.00,VWS V14.01,2013-11-02 00:00:00,
2013-11-01 20:01:00,73.3,73.3,29.41,SSE,166,14.0,20.0,100,0.00,,OVC080,0.00,VWS V14.01,2013-11-02 00:01:00,
2013-11-01 20:02:00,73.3,73.3,29.27,South,177,14.0,18.0,100,0.00,,OVC080,0.00,VWS V14.01,2013-11-02 00:02:00,
2013-11-01 20:03:00,73.3,73.3,29.28,SSE,167,18.0,18.0,100,0.00,,OVC080,0.00,VWS V14.01,2013-11-02 00:03:00,
2013-11-01 20:04:00,73.7,73.7,29.42,SSE,163,15.0,17.0,100,0.00,,BKN070,0.00,VWS V14.01,2013-11-02 00:04:00,
2013-11-01 20:05:00,73.3,73.3,29.29,South,175,13.0,17.0,100,0.00,,OVC080,0.00,VWS V14.01,2013-11-02 00:05:00,
2013-11-01 20:06:00,73.3,73.3,29.29,South,171,20.0,20.0,100,0.00,,OVC080,0.00,VWS V14.01,2013-11-02 00:06:00,
2013-11-01 20:07:00,73.3,73.3,29.29,SSE,159,14.0,20.0,100,0.00,,OVC080,0.00,VWS V14.01,2013-11-02 00:07:00,
2013-11-01 20:08:00,73.3,73.3,29.29,South,171,12.0,18.0,100,0.00,,OVC080,0.00,VWS V14.01,2013-11-02 00:08:00,
2013-11-01 20:09:00,73.5,73.5,29.42,South,173,16.0,16.0,100,0.00,,-RA,0.00,VWS V14.01,2013-11-02 00:09:00,
2013-11-01 20:10:00,73.3,73.3,29.29,SSE,157,13.0,19.0,100,0.00,,OVC080,0.00,VWS V14.01,2013-11-02 00:10:00,
2013-11-01 20:11:00,73.3,73.3,29.32,SSE,161,16.0,18.0,100,0.00,,OVC080,0.00,VWS V14.01,2013-11-02 00:11:00,
2013-11-01 20:12:00,73.3,73.3,29.32,South,173,17.0,17.0,100,0.00,,OVC080,0.00,VWS V14.01,2013-11-02 00:12:00,
2013-11-01 20:13:00,73.3,73.3,29.29,SSE,167,15.0,17.0,100,0.00,,OVC080,0.00,VWS V14.01,2013-11-02 00:13:00,
2013-11-01 20:14:00,73.5,73.5,29.37,South,175,12.0,15.0,100,0.00,,-RA,0.00,VWS V14.01,2013-11-02 00:14:00,
2013-11-01 20:15:00,73.3,73.3,29.29,SSE,163,16.0,18.0,100,0.00,,OVC080,0.00,VWS V14.01,2013-11-02 00:15:00,
2013-11-01 20:16:00,73.3,73.3,29.29,South,177,20.0,20.0,100,0.00,,OVC080,0.00,VWS V14.01,2013-11-02 00:16:00,
2013-11-01 20:17:00,73.3,73.3,29.30,South,178,17.0,20.0,100,0.00,,OVC080,0.00,VWS V14.01,2013-11-02 00:17:00,
2013-11-01 20:18:00,73.3,73.3,29.29,South,173,20.0,20.0,100,0.00,,OVC080,0.00,VWS V14.01,2013-11-02 00:18:00,
2013-11-01 20:19:00,73.5,73.5,29.37,SSE,162,14.0,16.0,100,0.00,,-RA,0.00,VWS V14.01,2013-11-02 00:19:00,
2013-11-01 20:20:00,73.3,73.3,29.27,SSE,164,20.0,20.0,100,0.00,,OVC080,0.00,VWS V14.01,2013-11-02 00:20:00,
2013-11-01 20:21:00,73.3,73.3,29.28,SSE,165,21.0,21.0,100,0.00,,OVC080,0.00,VWS V14.01,2013-11-02 00:21:00,
2013-11-01 20:22:00,73.3,73.3,29.29,South,175,14.0,21.0,100,0.00,,OVC080,0.00,VWS V14.01,2013-11-02 00:22:00,
2013-11-01 20:23:00,73.3,73.3,29.30,South,172,16.0,20.0,100,0.00,,OVC080,0.00,VWS V14.01,2013-11-02 00:23:00,
2013-11-01 20:24:00,73.5,73.5,29.37,South,183,14.0,14.0,100,0.00,,-RA,0.00,VWS V14.01,2013-11-02 00:24:00,
2013-11-01 20:25:00,73.3,73.3,29.30,South,169,12.0,20.0,100,0.00,,OVC080,0.00,VWS V14.01,2013-11-02 00:25:00,
2013-11-01 20:26:00,73.3,73.3,29.30,South,175,20.0,20.0,100,0.00,,OVC080,0.00,VWS V14.01,2013-11-02 00:26:00,
2013-11-01 20:27:00,73.3,73.3,29.26,South,177,14.0,20.0,100,0.00,,OVC080,0.00,VWS V14.01,2013-11-02 00:27:00,
2013-11-01 20:28:00,73.3,73.3,29.30,South,173,14.0,17.0,100,0.00,,OVC080,0.00,VWS V14.01,2013-11-02 00:28:00,
2013-11-01 20:29:00,73.5,73.5,29.42,South,171,17.0,17.0,100,0.00,,-RA,0.00,VWS V14.01,2013-11-02 00:29:00,
2013-11-01 20:30:00,73.3,73.3,29.28,South,173,20.0,20.0,100,0.00,,OVC080,0.00,VWS V14.01,2013-11-02 00:30:00,
2013-11-01 20:31:00,73.5,73.5,29.28,South,171,14.0,20.0,100,0.00,,OVC080,0.00,VWS V14.01,2013-11-02 00:31:00,
2013-11-01 20:32:00,73.5,73.5,29.28,South,172,18.0,18.0,100,0.00,,OVC080,0.00,VWS V14.01,2013-11-02 00:32:00,
2013-11-01 20:33:00,73.5,73.5,29.28,South,169,20.0,21.0,100,0.00,,OVC080,0.00,VWS V14.01,2013-11-02 00:33:00,
2013-11-01 20:34:00,73.5,73.5,29.42,South,170,12.0,13.0,100,0.00,,-RA,0.00,VWS V14.01,2013-11-02 00:34:00,
2013-11-01 20:35:00,73.5,73.5,29.28,South,170,15.0,21.0,100,0.00,,OVC080,0.00,VWS V14.01,2013-11-02 00:35:00,
2013-11-01 20:36:00,73.5,73.5,29.28,South,175,22.0,22.0,100,0.00,,OVC080,0.00,VWS V14.01,2013-11-02 00:36:00,
2013-11-01 20:37:00,73.5,73.5,29.30,South,175,18.0,22.0,100,0.00,,OVC080,0.00,VWS V14.01,2013-11-02 00:37:00,
2013-11-01 20:38:00,73.5,73.5,29.30,South,178,18.0,18.0,100,0.00,,OVC080,0.00,VWS V14.01,2013-11-02 00:38:00,
2013-11-01 20:39:00,73.5,73.5,29.48,South,170,18.0,18.0,100,0.00,,-RA,0.00,VWS V14.01,2013-11-02 00:39:00,
2013-11-01 20:40:00,73.5,73.5,29.30,South,183,11.0,21.0,100,0.00,,OVC080,0.00,VWS V14.01,2013-11-02 00:40:00,
2013-11-01 20:41:00,73.5,73.5,29.30,South,184,16.0,19.0,100,0.00,,OVC080,0.00,VWS V14.01,2013-11-02 00:41:00,
2013-11-01 20:42:00,73.5,73.5,29.53,South,188,15.0,18.0,100,0.00,,OVC080,0.00,VWS V14.01,2013-11-02 00:42:00,
2013-11-01 20:43:00,73.5,73.5,29.53,South,170,16.0,20.0,100,0.00,,OVC080,0.00,VWS V14.01,2013-11-02 00:43:00,
2013-11-01 20:44:00,73.5,73.5,29.73,South,169,20.0,20.0,100,0.00,,-RA,0.00,VWS V14.01,2013-11-02 00:44:00,
2013-11-01 20:45:00,73.5,73.5,29.65,South,187,14.0,23.0,100,0.00,,OVC080,0.00,VWS V14.01,2013-11-02 00:45:00,
2013-11-01 20:46:00,73.5,73.5,29.65,South,175,16.0,16.0,100,0.00,,OVC080,0.00,VWS V14.01,2013-11-02 00:46:00,
2013-11-01 20:47:00,73.5,73.5,29.77,SSE,161,14.0,16.0,100,0.00,,OVC080,0.00,VWS V14.01,2013-11-02 00:47:00,
2013-11-01 20:48:00,73.5,73.5,29.77,SSE,167,20.0,20.0,100,0.00,,OVC080,0.00,VWS V14.01,2013-11-02 00:48:00,
2013-11-01 20:49:00,73.5,73.5,29.55,SSE,161,17.0,18.0,100,0.00,,-RA,0.00,VWS V14.01,2013-11-02 00:49:00,
2013-11-01 20:50:00,73.5,73.5,29.77,South,191,16.0,18.0,100,0.00,,OVC080,0.00,VWS V14.01,2013-11-02 00:50:00,
2013-11-01 20:51:00,73.5,73.5,29.77,South,176,15.0,20.0,100,0.00,,OVC080,0.00,VWS V14.01,2013-11-02 00:51:00,
2013-11-01 20:52:00,73.5,73.5,29.51,SSE,167,16.0,22.0,100,0.00,,OVC080,0.00,VWS V14.01,2013-11-02 00:52:00,
2013-11-01 20:53:00,73.7,73.7,29.51,South,172,21.0,21.0,100,0.00,,OVC080,0.00,VWS V14.01,2013-11-02 00:53:00,
2013-11-01 20:54:00,73.5,73.5,29.63,South,170,15.0,16.0,100,0.00,,-RA,0.00,VWS V14.01,2013-11-02 00:54:00,
2013-11-01 20:55:00,73.7,73.7,29.51,SSE,168,14.0,15.0,100,0.00,,OVC080,0.00,VWS V14.01,2013-11-02 00:55:00,
2013-11-01 20:56:00,73.7,73.7,29.67,South,176,14.0,20.0,100,0.00,,OVC080,0.00,VWS V14.01,2013-11-02 00:56:00,
2013-11-01 20:57:00,73.7,73.7,29.67,South,173,14.0,19.0,100,0.00,,OVC080,0.00,VWS V14.01,2013-11-02 00:57:00,
2013-11-01 20:58:00,73.7,73.7,29.67,South,180,19.0,19.0,100,0.00,,OVC080,0.00,VWS V14.01,2013-11-02 00:58:00,
2013-11-01 20:59:00,73.5,73.5,29.63,South,175,16.0,16.0,100,0.00,,-RA,0.00,VWS V14.01,2013-11-02 00:59:00,
2013-11-01 21:00:00,73.7,73.7,29.67,SSW,195,19.0,19.0,100,0.00,,OVC080,0.00,VWS V14.01,2013-11-02 01:00:00,
2013-11-01 21:01:00,73.7,73.7,29.42,SSW,194,14.0,19.0,100,0.00,,OVC080,0.00,VWS V14.01,2013-11-02 01:01:00,
2013-11-01 21:02:00,73.7,73.7,29.37,South,183,13.0,20.0,100,0.00,,OVC080,0.00,VWS V14.01,2013-11-02 01:02:00,
2013-11-01 21:03:00,73.7,73.7,29.37,South,169,14.0,16.0,100,0.00,,OVC080,0.00,VWS V14.01,2013-11-02 01:03:00,
2013-11-01 21:04:00,73.7,73.7,29.77,SSE,163,17.0,17.0,100,0.00,,-RA,0.00,VWS V14.01,2013-11-02 01:04:00,
2013-11-01 21:05:00,73.7,73.7,29.42,SSE,163,16.0,17.0,100,0.00,,OVC080,0.00,VWS V14.01,2013-11-02 01:05:00,
2013-11-01 21:06:00,73.7,73.7,29.36,South,184,15.0,16.0,100,0.00,,OVC080,0.00,VWS V14.01,2013-11-02 01:06:00,
2013-11-01 21:07:00,73.5,73.5,29.36,South,175,14.0,18.0,100,0.00,,OVC080,0.00,VWS V14.01,2013-11-02 01:07:00,
2013-11-01 21:08:00,73.5,73.5,29.37,South,175,14.0,15.0,100,0.00,,OVC080,0.00,VWS V14.01,2013-11-02 01:08:00,
2013-11-01 21:09:00,73.7,73.7,29.62,South,178,19.0,19.0,100,0.00,,-RA,0.00,VWS V14.01,2013-11-02 01:09:00,
2013-11-01 21:10:00,73.5,73.5,29.42,SSE,167,16.0,17.0,100,0.00,,OVC080,0.00,VWS V14.01,2013-11-02 01:10:00,
2013-11-01 21:11:00,73.7,73.7,29.42,South,177,12.0,17.0,100,0.00,,OVC080,0.00,VWS V14.01,2013-11-02 01:11:00,
2013-11-01 21:12:00,73.5,73.5,29.37,South,175,14.0,15.0,100,0.00,,OVC080,0.00,VWS V14.01,2013-11-02 01:12:00,
2013-11-01 21:13:00,73.5,73.5,29.37,SSE,157,14.0,18.0,100,0.00,,OVC080,0.00,VWS V14.01,2013-11-02 01:13:00,
2013-11-01 21:14:00,73.7,73.7,29.62,SSE,151,12.0,13.0,100,0.00,,-RA,0.00,VWS V14.01,2013-11-02 01:14:00,
2013-11-01 21:15:00,73.5,73.5,29.37,South,171,15.0,17.0,100,0.00,,OVC080,0.00,VWS V14.01,2013-11-02 01:15:00,
2013-11-01 21:16:00,73.5,73.5,29.37,SSE,168,15.0,15.0,100,0.00,,OVC080,0.00,VWS V14.01,2013-11-02 01:16:00,
2013-11-01 21:17:00,73.5,73.5,29.37,South,178,16.0,17.0,100,0.00,,OVC080,0.00,VWS V14.01,2013-11-02 01:17:00,
2013-11-01 21:18:00,73.5,73.5,29.37,SSE,165,13.0,20.0,100,0.00,,OVC080,0.00,VWS V14.01,2013-11-02 01:18:00,
2013-11-01 21:19:00,73.7,73.7,29.62,South,169,21.0,21.0,100,0.00,,-RA,0.00,VWS V14.01,2013-11-02 01:19:00,
2013-11-01 21:20:00,73.5,73.5,29.37,SE,145,13.0,16.0,100,0.00,,OVC080,0.00,VWS V14.01,2013-11-02 01:20:00,
2013-11-01 21:21:00,73.5,73.5,29.37,SSE,157,12.0,18.0,100,0.00,,OVC080,0.00,VWS V14.01,2013-11-02 01:21:00,
2013-11-01 21:22:00,73.5,73.5,29.37,SSW,209,16.0,16.0,100,0.00,,OVC080,0.00,VWS V14.01,2013-11-02 01:22:00,
2013-11-01 21:23:00,73.5,73.5,29.37,South,171,17.0,17.0,100,0.00,,OVC080,0.00,VWS V14.01,2013-11-02 01:23:00,
2013-11-01 21:24:00,73.7,73.7,29.55,SSE,167,18.0,18.0,100,0.00,,-RA,0.00,VWS V14.01,2013-11-02 01:24:00,
2013-11-01 21:25:00,73.5,73.5,29.37,South,173,15.0,18.0,100,0.00,,OVC080,0.00,VWS V14.01,2013-11-02 01:25:00,
2013-11-01 21:26:00,73.5,73.5,29.37,South,182,15.0,18.0,100,0.00,,OVC080,0.00,VWS V14.01,2013-11-02 01:26:00,
2013-11-01 21:27:00,73.5,73.5,29.37,SSE,167,14.0,17.0,100,0.00,,OVC080,0.00,VWS V14.01,2013-11-02 01:27:00,
2013-11-01 21:28:00,73.5,73.5,29.42,South,170,16.0,18.0,100,0.00,,OVC080,0.00,VWS V14.01,2013-11-02 01:28:00,
2013-11-01 21:29:00,73.7,73.7,29.55,SSE,166,17.0,20.0,100,0.00,,-RA,0.00,VWS V14.01,2013-11-02 01:29:00,
2013-11-01 21:30:00,73.5,73.5,29.42,SSE,156,17.0,17.0,100,0.00,,OVC080,0.00,VWS V14.01,2013-11-02 01:30:00,
2013-11-01 21:31:00,73.5,73.5,29.42,South,179,15.0,17.0,100,0.00,,OVC080,0.00,VWS V14.01,2013-11-02 01:31:00,
2013-11-01 21:32:00,73.5,73.5,29.42,SSE,157,14.0,17.0,100,0.00,,OVC080,0.00,VWS V14.01,2013-11-02 01:32:00,
2013-11-01 21:33:00,73.5,73.5,29.42,SSE,161,15.0,15.0,100,0.00,,OVC080,0.00,VWS V14.01,2013-11-02 01:33:00,
2013-11-01 21:34:00,73.5,73.5,29.46,South,175,18.0,18.0,100,0.00,,-RA,0.00,VWS V14.01,2013-11-02 01:34:00,
2013-11-01 21:35:00,73.5,73.5,29.42,South,172,14.0,16.0,100,0.00,,OVC080,0.00,VWS V14.01,2013-11-02 01:35:00,
2013-11-01 21:36:00,73.5,73.5,29.42,South,178,17.0,17.0,100,0.00,,OVC080,0.00,VWS V14.01,2013-11-02 01:36:00,
2013-11-01 21:37:00,73.5,73.5,29.42,SSE,166,10.0,17.0,100,0.00,,OVC080,0.00,VWS V14.01,2013-11-02 01:37:00,
2013-11-01 21:38:00,73.5,73.5,29.48,SSE,167,16.0,16.0,100,0.00,,OVC080,0.00,VWS V14.01,2013-11-02 01:38:00,
2013-11-01 21:39:00,73.5,73.5,29.64,South,185,20.0,20.0,100,0.00,,RA,0.00,VWS V14.01,2013-11-02 01:39:00,
2013-11-01 21:40:00,73.5,73.5,29.48,SSE,165,16.0,18.0,100,0.00,,OVC080,0.00,VWS V14.01,2013-11-02 01:40:00,
2013-11-01 21:41:00,73.5,73.5,29.48,SSE,166,14.0,20.0,100,0.00,,OVC080,0.00,VWS V14.01,2013-11-02 01:41:00,
2013-11-01 21:42:00,73.5,73.5,29.48,South,169,13.0,15.0,100,0.00,,OVC080,0.00,VWS V14.01,2013-11-02 01:42:00,
2013-11-01 21:43:00,73.5,73.5,29.48,SSW,196,15.0,17.0,100,0.00,,OVC080,0.00,VWS V14.01,2013-11-02 01:43:00,
2013-11-01 21:44:00,73.5,73.5,29.55,South,169,16.0,16.0,100,0.00,,RA,0.00,VWS V14.01,2013-11-02 01:44:00,
2013-11-01 21:45:00,73.5,73.5,29.73,South,171,18.0,20.0,100,0.00,,OVC080,0.00,VWS V14.01,2013-11-02 01:45:00,
2013-11-01 21:46:00,73.5,73.5,29.73,South,190,16.0,18.0,100,0.00,,OVC080,0.00,VWS V14.01,2013-11-02 01:46:00,
2013-11-01 21:47:00,73.5,73.5,29.73,South,185,16.0,16.0,100,0.00,,OVC080,0.00,VWS V14.01,2013-11-02 01:47:00,
2013-11-01 21:48:00,73.5,73.5,29.55,South,170,16.0,21.0,100,0.00,,OVC080,0.00,VWS V14.01,2013-11-02 01:48:00,
2013-11-01 21:49:00,73.5,73.5,29.51,South,174,16.0,16.0,100,0.00,,RA,0.00,VWS V14.01,2013-11-02 01:49:00,
2013-11-01 21:50:00,73.5,73.5,29.55,SSE,155,16.0,18.0,100,0.00,,OVC080,0.00,VWS V14.01,2013-11-02 01:50:00,
2013-11-01 21:51:00,73.5,73.5,29.63,SSE,162,17.0,20.0,100,0.00,,OVC080,0.00,VWS V14.01,2013-11-02 01:51:00,
2013-11-01 21:52:00,73.5,73.5,29.63,SSE,157,15.0,17.0,100,0.00,,OVC080,0.00,VWS V14.01,2013-11-02 01:52:00,
2013-11-01 21:53:00,73.5,73.5,29.63,South,182,16.0,21.0,100,0.00,,OVC080,0.00,VWS V14.01,2013-11-02 01:53:00,
2013-11-01 21:54:00,73.5,73.5,29.55,South,169,14.0,19.0,100,0.00,,RA,0.00,VWS V14.01,2013-11-02 01:54:00,
2013-11-01 21:55:00,73.5,73.5,29.63,SSE,156,16.0,16.0,100,0.00,,OVC080,0.00,VWS V14.01,2013-11-02 01:55:00,
2013-11-01 21:56:00,73.5,73.5,29.63,South,179,14.0,16.0,100,0.00,,OVC080,0.00,VWS V14.01,2013-11-02 01:56:00,
2013-11-01 21:57:00,73.5,73.5,29.63,South,173,12.0,17.0,100,0.00,,OVC080,0.00,VWS V14.01,2013-11-02 01:57:00,
2013-11-01 21:58:00,73.5,73.5,29.63,South,176,16.0,17.0,100,0.00,,OVC080,0.00,VWS V14.01,2013-11-02 01:58:00,
2013-11-01 21:59:00,73.5,73.5,29.50,SSE,149,12.0,15.0,100,0.00,,RA,0.00,VWS V14.01,2013-11-02 01:59:00,
2013-11-01 22:00:00,73.5,73.5,29.63,SSE,148,16.0,16.0,100,0.00,,OVC080,0.00,VWS V14.01,2013-11-02 02:00:00,
2013-11-01 22:01:00,73.5,73.5,29.63,SSE,150,15.0,16.0,100,0.00,,OVC080,0.00,VWS V14.01,2013-11-02 02:01:00,
2013-11-01 22:02:00,73.5,73.5,29.63,SSE,159,16.0,17.0,100,0.00,,OVC080,0.00,VWS V14.01,2013-11-02 02:02:00,
2013-11-01 22:03:00,73.5,73.5,29.77,SSE,162,15.0,17.0,100,0.00,,OVC080,0.00,VWS V14.01,2013-11-02 02:03:00,
2013-11-01 22:04:00,73.5,73.5,29.59,South,170,17.0,17.0,100,0.00,,RA,0.00,VWS V14.01,2013-11-02 02:04:00,
2013-11-01 22:05:00,73.7,73.7,29.77,SSE,158,10.0,17.0,100,0.00,,OVC080,0.00,VWS V14.01,2013-11-02 02:05:00,
2013-11-01 22:06:00,73.7,73.7,29.62,South,175,17.0,21.0,100,0.00,,OVC080,0.00,VWS V14.01,2013-11-02 02:06:00,
2013-11-01 22:07:00,73.7,73.7,29.62,South,177,17.0,17.0,100,0.00,,OVC080,0.00,VWS V14.01,2013-11-02 02:07:00,
2013-11-01 22:08:00,73.7,73.7,29.62,SSE,157,14.0,19.0,100,0.00,,OVC080,0.00,VWS V14.01,2013-11-02 02:08:00,
2013-11-01 22:09:00,73.5,73.5,29.76,SSE,166,18.0,18.0,100,0.00,,RA,0.00,VWS V14.01,2013-11-02 02:09:00,
2013-11-01 22:10:00,73.7,73.7,29.62,South,169,13.0,19.0,100,0.00,,OVC080,0.00,VWS V14.01,2013-11-02 02:10:00,
2013-11-01 22:11:00,73.7,73.7,29.62,South,182,19.0,19.0,100,0.00,,OVC080,0.00,VWS V14.01,2013-11-02 02:11:00,
2013-11-01 22:12:00,73.7,73.7,29.62,SSE,159,13.0,19.0,100,0.00,,OVC080,0.00,VWS V14.01,2013-11-02 02:12:00,
2013-11-01 22:13:00,73.7,73.7,29.62,SSE,168,19.0,19.0,100,0.00,,OVC080,0.00,VWS V14.01,2013-11-02 02:13:00,
2013-11-01 22:14:00,73.5,73.5,29.76,SSE,161,19.0,19.0,100,0.00,,RA,0.00,VWS V14.01,2013-11-02 02:14:00,
2013-11-01 22:15:00,73.7,73.7,29.62,South,169,17.0,17.0,100,0.00,,OVC080,0.00,VWS V14.01,2013-11-02 02:15:00,
2013-11-01 22:16:00,73.7,73.7,29.62,SSE,167,18.0,18.0,100,0.00,,OVC080,0.00,VWS V14.01,2013-11-02 02:16:00,
2013-11-01 22:17:00,73.7,73.7,29.62,South,169,15.0,18.0,100,0.00,,OVC080,0.00,VWS V14.01,2013-11-02 02:17:00,
2013-11-01 22:18:00,73.7,73.7,29.62,SSE,155,15.0,20.0,100,0.00,,OVC080,0.00,VWS V14.01,2013-11-02 02:18:00,
2013-11-01 22:19:00,73.5,73.5,29.76,SSE,164,20.0,20.0,100,0.01,,RA,0.01,VWS V14.01,2013-11-02 02:19:00,
2013-11-01 22:20:00,73.7,73.7,29.62,SSE,167,12.0,21.0,100,0.00,,OVC080,0.00,VWS V14.01,2013-11-02 02:20:00,
2013-11-01 22:21:00,73.7,73.7,29.62,SSE,168,14.0,20.0,100,0.00,,OVC080,0.00,VWS V14.01,2013-11-02 02:21:00,
2013-11-01 22:22:00,73.7,73.7,29.62,South,187,17.0,18.0,100,0.00,,OVC080,0.00,VWS V14.01,2013-11-02 02:22:00,
2013-11-01 22:23:00,73.7,73.7,29.62,South,178,15.0,17.0,100,0.00,,OVC080,0.00,VWS V14.01,2013-11-02 02:23:00,
2013-11-01 22:24:00,73.5,73.5,29.76,SSE,167,16.0,16.0,100,0.01,,RA,0.01,VWS V14.01,2013-11-02 02:24:00,
2013-11-01 22:25:00,73.7,73.7,29.55,South,175,18.0,19.0,100,0.00,,OVC080,0.00,VWS V14.01,2013-11-02 02:25:00,
2013-11-01 22:26:00,73.7,73.7,29.55,South,174,12.0,19.0,100,0.00,,OVC080,0.00,VWS V14.01,2013-11-02 02:26:00,
2013-11-01 22:27:00,73.7,73.7,29.55,SSE,167,13.0,17.0,100,0.00,,OVC080,0.00,VWS V14.01,2013-11-02 02:27:00,
2013-11-01 22:28:00,73.7,73.7,29.55,South,188,18.0,18.0,100,0.00,,OVC080,0.00,VWS V14.01,2013-11-02 02:28:00,
2013-11-01 22:29:00,73.5,73.5,29.63,South,175,17.0,17.0,100,0.01,,RA,0.01,VWS V14.01,2013-11-02 02:29:00,
2013-11-01 22:31:00,73.7,73.7,29.55,South,171,18.0,18.0,100,0.00,,OVC080,0.00,VWS V14.01,2013-11-02 02:31:00,
2013-11-01 22:33:00,73.7,73.7,29.51,South,179,19.0,19.0,100,0.00,,OVC080,0.00,VWS V14.01,2013-11-02 02:33:00,
2013-11-01 22:34:00,73.7,73.7,29.75,SSE,165,22.0,22.0,100,0.01,,RA,0.01,VWS V14.01,2013-11-02 02:34:00,
2013-11-01 22:36:00,73.5,73.5,29.46,South,179,19.0,19.0,100,0.00,,OVC080,0.00,VWS V14.01,2013-11-02 02:36:00,
2013-11-01 22:37:00,73.5,73.5,29.46,South,178,17.0,19.0,100,0.00,,OVC080,0.00,VWS V14.01,2013-11-02 02:37:00,
2013-11-01 22:39:00,73.7,73.7,29.63,SSE,161,17.0,20.0,100,0.01,,-RA,0.01,VWS V14.01,2013-11-02 02:39:00,
2013-11-01 22:40:00,73.5,73.5,29.64,South,182,18.0,20.0,100,0.00,,OVC080,0.00,VWS V14.01,2013-11-02 02:40:00,
2013-11-01 22:41:00,73.5,73.5,29.64,South,173,17.0,18.0,100,0.00,,OVC080,0.00,VWS V14.01,2013-11-02 02:41:00,
2013-11-01 22:42:00,73.5,73.5,29.64,South,181,14.0,20.0,100,0.00,,OVC080,0.00,VWS V14.01,2013-11-02 02:42:00,
2013-11-01 22:44:00,73.7,73.7,29.75,South,173,20.0,21.0,100,0.01,,-RA,0.01,VWS V14.01,2013-11-02 02:44:00,
2013-11-01 22:45:00,73.5,73.5,29.55,SSE,166,13.0,20.0,100,0.00,,OVC080,0.00,VWS V14.01,2013-11-02 02:45:00,
2013-11-01 22:46:00,73.5,73.5,29.55,South,186,16.0,16.0,100,0.00,,OVC080,0.00,VWS V14.01,2013-11-02 02:46:00,
2013-11-01 22:47:00,73.5,73.5,29.50,South,173,16.0,17.0,100,0.00,,OVC080,0.00,VWS V14.01,2013-11-02 02:47:00,
2013-11-01 22:48:00,73.5,73.5,29.51,South,174,15.0,16.0,100,0.00,,OVC080,0.00,VWS V14.01,2013-11-02 02:48:00,
2013-11-01 22:49:00,73.7,73.7,29.49,South,176,15.0,19.0,100,0.01,,-RA,0.01,VWS V14.01,2013-11-02 02:49:00,
2013-11-01 22:52:00,73.5,73.5,29.51,South,173,19.0,19.0,100,0.00,,OVC080,0.00,VWS V14.01,2013-11-02 02:52:00,
2013-11-01 22:53:00,73.5,73.5,29.51,South,169,16.0,20.0,100,0.00,,OVC080,0.00,VWS V14.01,2013-11-02 02:53:00,
2013-11-01 22:54:00,73.5,73.5,29.76,South,171,17.0,20.0,100,0.02,,-RA,0.02,VWS V14.01,2013-11-02 02:54:00,
2013-11-01 22:55:00,73.5,73.5,29.55,South,183,17.0,19.0,100,0.00,,OVC080,0.00,VWS V14.01,2013-11-02 02:55:00,
2013-11-01 22:56:00,73.5,73.5,29.55,South,186,12.0,17.0,100,0.00,,OVC080,0.00,VWS V14.01,2013-11-02 02:56:00,
2013-11-01 22:57:00,73.5,73.5,29.68,South,176,14.0,17.0,100,0.00,,OVC080,0.00,VWS V14.01,2013-11-02 02:57:00,
2013-11-01 22:58:00,73.5,73.5,29.68,South,171,12.0,20.0,100,0.00,,OVC080,0.00,VWS V14.01,2013-11-02 02:58:00,
2013-11-01 22:59:00,73.5,73.5,29.67,South,172,19.0,19.0,100,0.03,,-RA,0.03,VWS V14.01,2013-11-02 02:59:00,
2013-11-01 23:00:00,73.5,73.5,29.50,SE,144,15.0,16.0,100,0.00,,OVC080,0.00,VWS V14.01,2013-11-02 03:00:00,
2013-11-01 23:01:00,73.5,73.5,29.59,SSE,156,16.0,23.0,100,0.00,,OVC080,0.00,VWS V14.01,2013-11-02 03:01:00,
2013-11-01 23:02:00,73.5,73.5,29.59,South,190,21.0,21.0,100,0.00,,OVC080,0.00,VWS V14.01,2013-11-02 03:02:00,
2013-11-01 23:03:00,73.5,73.5,29.59,South,170,16.0,21.0,100,0.00,,OVC080,0.00,VWS V14.01,2013-11-02 03:03:00,
2013-11-01 23:04:00,73.3,73.3,29.76,SSW,192,19.0,23.0,100,0.03,,-RA,0.03,VWS V14.01,2013-11-02 03:04:00,
2013-11-01 23:05:00,73.5,73.5,29.59,SSE,167,15.0,18.0,100,0.00,,OVC080,0.00,VWS V14.01,2013-11-02 03:05:00,
2013-11-01 23:06:00,73.5,73.5,29.76,South,175,13.0,17.0,100,0.00,,OVC080,0.00,VWS V14.01,2013-11-02 03:06:00,
2013-11-01 23:07:00,73.5,73.5,29.76,SSE,161,20.0,20.0,100,0.00,,OVC080,0.00,VWS V14.01,2013-11-02 03:07:00,
2013-11-01 23:08:00,73.5,73.5,29.76,SSE,166,13.0,20.0,100,0.00,,OVC080,0.00,VWS V14.01,2013-11-02 03:08:00,
2013-11-01 23:09:00,73.3,73.3,29.72,SSW,194,15.0,19.0,100,0.03,,-RA,0.03,VWS V14.01,2013-11-02 03:09:00,
2013-11-01 23:10:00,73.5,73.5,29.76,SSE,165,16.0,18.0,100,0.00,,OVC080,0.00,VWS V14.01,2013-11-02 03:10:00,
2013-11-01 23:11:00,73.5,73.5,29.76,SSE,166,14.0,17.0,100,0.00,,OVC080,0.00,VWS V14.01,2013-11-02 03:11:00,
2013-11-01 23:12:00,73.5,73.5,29.76,South,173,18.0,20.0,100,0.00,,OVC080,0.00,VWS V14.01,2013-11-02 03:12:00,
2013-11-01 23:13:00,73.5,73.5,29.76,South,173,20.0,20.0,100,0.00,,OVC080,0.00,VWS V14.01,2013-11-02 03:13:00,
2013-11-01 23:14:00,73.3,73.3,29.67,South,191,18.0,18.0,100,0.03,,-RA,0.03,VWS V14.01,2013-11-02 03:14:00,
2013-11-01 23:15:00,73.5,73.5,29.76,SSE,159,14.0,19.0,100,0.00,,OVC080,0.00,VWS V14.01,2013-11-02 03:15:00,
2013-11-01 23:16:00,73.5,73.5,29.76,South,176,13.0,19.0,100,0.00,,OVC080,0.00,VWS V14.01,2013-11-02 03:16:00,
2013-11-01 23:17:00,73.5,73.5,29.75,SSE,160,14.0,18.0,100,0.01,,OVC080,0.01,VWS V14.01,2013-11-02 03:17:00,
2013-11-01 23:18:00,73.5,73.5,29.76,South,170,19.0,19.0,100,0.01,,OVC080,0.01,VWS V14.01,2013-11-02 03:18:00,
2013-11-01 23:19:00,73.3,73.3,29.62,South,182,14.0,14.0,100,0.02,,-RA,0.03,VWS V14.01,2013-11-02 03:19:00,
2013-11-01 23:20:00,73.5,73.5,29.76,South,178,19.0,20.0,100,0.01,,OVC080,0.01,VWS V14.01,2013-11-02 03:20:00,
2013-11-01 23:21:00,73.5,73.5,29.76,South,173,18.0,21.0,100,0.01,,OVC080,0.01,VWS V14.01,2013-11-02 03:21:00,
2013-11-01 23:22:00,73.5,73.5,29.75,SSE,168,20.0,20.0,100,0.01,,OVC080,0.01,VWS V14.01,2013-11-02 03:22:00,
2013-11-01 23:23:00,73.5,73.5,29.76,South,177,14.0,20.0,100,0.01,,OVC080,0.01,VWS V14.01,2013-11-02 03:23:00,
2013-11-01 23:24:00,73.3,73.3,29.63,SSW,208,12.0,13.0,100,0.02,,-RA,0.03,VWS V14.01,2013-11-02 03:24:00,
2013-11-01 23:25:00,73.5,73.5,29.76,SSW,212,14.0,18.0,100,0.01,,OVC080,0.01,VWS V14.01,2013-11-02 03:25:00,
2013-11-01 23:26:00,73.5,73.5,29.76,South,178,18.0,19.0,100,0.01,,OVC080,0.01,VWS V14.01,2013-11-02 03:26:00,
2013-11-01 23:27:00,73.5,73.5,29.76,South,184,19.0,19.0,100,0.01,,OVC080,0.01,VWS V14.01,2013-11-02 03:27:00,
2013-11-01 23:28:00,73.5,73.5,29.76,South,177,21.0,21.0,100,0.01,,OVC080,0.01,VWS V14.01,2013-11-02 03:28:00,
2013-11-01 23:29:00,73.3,73.3,29.59,South,184,11.0,17.0,100,0.02,,-RA,0.03,VWS V14.01,2013-11-02 03:29:00,
2013-11-01 23:30:00,73.7,73.7,29.63,South,171,17.0,20.0,100,0.01,,OVC080,0.01,VWS V14.01,2013-11-02 03:30:00,
2013-11-01 23:31:00,73.7,73.7,29.76,SSE,168,13.0,20.0,100,0.01,,OVC080,0.01,VWS V14.01,2013-11-02 03:31:00,
2013-11-01 23:32:00,73.7,73.7,29.75,South,171,16.0,21.0,100,0.01,,OVC080,0.01,VWS V14.01,2013-11-02 03:32:00,
2013-11-01 23:33:00,73.7,73.7,29.75,SSE,167,18.0,18.0,100,0.01,,OVC080,0.01,VWS V14.01,2013-11-02 03:33:00,
2013-11-01 23:34:00,73.3,73.3,29.76,SW,233,9.0,13.0,100,0.02,,-RA,0.03,VWS V14.01,2013-11-02 03:34:00,
2013-11-01 23:35:00,73.7,73.7,29.75,SSE,160,16.0,22.0,100,0.01,,OVC080,0.01,VWS V14.01,2013-11-02 03:35:00,
2013-11-01 23:36:00,73.7,73.7,29.75,South,184,17.0,21.0,100,0.01,,OVC080,0.01,VWS V14.01,2013-11-02 03:36:00,
2013-11-01 23:37:00,73.7,73.7,29.63,South,174,26.0,26.0,100,0.01,,OVC080,0.01,VWS V14.01,2013-11-02 03:37:00,
2013-11-01 23:38:00,73.7,73.7,29.63,South,175,17.0,27.0,100,0.01,,OVC080,0.01,VWS V14.01,2013-11-02 03:38:00,
2013-11-01 23:39:00,73.3,73.3,29.76,West,276,4.0,7.0,100,0.02,,-RA,0.03,VWS V14.01,2013-11-02 03:39:00,
2013-11-01 23:40:00,73.7,73.7,29.63,SSE,167,15.0,22.0,100,0.01,,OVC080,0.01,VWS V14.01,2013-11-02 03:40:00,
2013-11-01 23:41:00,73.7,73.7,29.75,South,179,16.0,18.0,100,0.01,,OVC080,0.01,VWS V14.01,2013-11-02 03:41:00,
2013-11-01 23:42:00,73.7,73.7,29.75,South,170,18.0,20.0,100,0.01,,OVC080,0.01,VWS V14.01,2013-11-02 03:42:00,
2013-11-01 23:43:00,73.2,73.2,29.72,SW,232,3.0,3.0,100,0.02,,-RA,0.03,VWS V14.01,2013-11-02 03:43:00,
2013-11-01 23:44:00,73.7,73.7,29.75,South,173,20.0,21.0,100,0.01,,OVC080,0.01,VWS V14.01,2013-11-02 03:44:00,
2013-11-01 23:45:00,73.7,73.7,29.75,South,169,19.0,24.0,100,0.01,,OVC080,0.01,VWS V14.01,2013-11-02 03:45:00,
2013-11-01 23:46:00,73.7,73.7,29.49,South,179,25.0,25.0,100,0.01,,OVC080,0.01,VWS V14.01,2013-11-02 03:46:00,
2013-11-01 23:47:00,73.7,73.7,29.50,SSE,161,14.0,25.0,100,0.01,,OVC080,0.01,VWS V14.01,2013-11-02 03:47:00,
2013-11-01 23:48:00,73.2,73.2,29.76,West,279,7.0,11.0,100,0.03,,-RA,0.04,VWS V14.01,2013-11-02 03:48:00,
2013-11-01 23:49:00,73.7,73.7,29.49,South,190,19.0,19.0,100,0.01,,OVC080,0.01,VWS V14.01,2013-11-02 03:49:00,
2013-11-01 23:50:00,73.7,73.7,29.49,South,174,21.0,21.0,100,0.01,,OVC080,0.01,VWS V14.01,2013-11-02 03:50:00,
2013-11-01 23:51:00,73.5,73.5,29.49,South,188,22.0,23.0,100,0.02,,OVC080,0.02,VWS V14.01,2013-11-02 03:51:00,
2013-11-01 23:52:00,73.5,73.5,29.49,SSW,198,18.0,23.0,100,0.02,,OVC080,0.02,VWS V14.01,2013-11-02 03:52:00,
2013-11-01 23:53:00,73.0,73.0,29.77,NW,316,2.0,4.0,100,0.02,,RA,0.04,VWS V14.01,2013-11-02 03:53:00,
2013-11-01 23:54:00,73.5,73.5,29.76,South,173,20.0,20.0,100,0.02,,OVC080,0.02,VWS V14.01,2013-11-02 03:54:00,
2013-11-01 23:55:00,73.5,73.5,29.76,South,182,24.0,24.0,100,0.02,,OVC080,0.02,VWS V14.01,2013-11-02 03:55:00,
2013-11-01 23:56:00,73.5,73.5,29.76,South,188,18.0,24.0,100,0.03,,OVC080,0.03,VWS V14.01,2013-11-02 03:56:00,
2013-11-01 23:57:00,73.5,73.5,29.72,South,187,21.0,21.0,100,0.03,,OVC080,0.03,VWS V14.01,2013-11-02 03:57:00,
2013-11-01 23:58:00,73.0,73.0,29.75,WNW,302,3.0,9.0,100,0.02,,RA,0.05,VWS V14.01,2013-11-02 03:58:00,
2013-11-01 23:59:00,73.5,73.5,29.67,SSE,163,19.0,20.0,100,0.03,,OVC080,0.03,VWS V14.01,2013-11-02 03:59:00,